<?xml version="1.0" encoding="UTF-8" standalone="no" ?>
<gpx xmlns="http://www.topografix.com/GPX/1/1" xmlns:xsi="http://www.w3.org/2001/XMLSchema-instance" xsi:schemaLocation="http://www.topografix.com/GPX/1/1 http://www.topografix.com/GPX/1/1/gpx.xsd" version="1.1" creator="VisuGPX - https://www.visugpx.com">
  <metadata>
    <name>Facteur de St Pancrasse et Manival</name>
    <desc><![CDATA[Cycling]]></desc>
  </metadata>
  <trk>
    <name><![CDATA[St Pancrasse et Manival 18/03/2010 11:34]]></name>
    <trkseg>
      <trkpt lat="45.24748" lon="5.8246">
        <ele>360</ele>
        <time>2010-03-18T11:37:33.73</time>
      </trkpt>
      <trkpt lat="45.24764" lon="5.8249">
        <ele>364</ele>
        <time>2010-03-18T11:37:44.62</time>
      </trkpt>
      <trkpt lat="45.24787" lon="5.82531">
        <ele>365</ele>
        <time>2010-03-18T11:37:54.62</time>
      </trkpt>
      <trkpt lat="45.24809" lon="5.82568">
        <ele>366</ele>
        <time>2010-03-18T11:38:04.61</time>
      </trkpt>
      <trkpt lat="45.24808" lon="5.82594">
        <ele>365</ele>
        <time>2010-03-18T11:38:19.61</time>
      </trkpt>
      <trkpt lat="45.24831" lon="5.82655">
        <ele>365</ele>
        <time>2010-03-18T11:38:31.61</time>
      </trkpt>
      <trkpt lat="45.24885" lon="5.82736">
        <ele>367</ele>
        <time>2010-03-18T11:38:45.60</time>
      </trkpt>
      <trkpt lat="45.24914" lon="5.82779">
        <ele>364</ele>
        <time>2010-03-18T11:38:55.60</time>
      </trkpt>
      <trkpt lat="45.24946" lon="5.82827">
        <ele>367</ele>
        <time>2010-03-18T11:39:05.59</time>
      </trkpt>
      <trkpt lat="45.24982" lon="5.82877">
        <ele>365</ele>
        <time>2010-03-18T11:39:15.60</time>
      </trkpt>
      <trkpt lat="45.25021" lon="5.82918">
        <ele>365</ele>
        <time>2010-03-18T11:39:25.59</time>
      </trkpt>
      <trkpt lat="45.25058" lon="5.82959">
        <ele>365</ele>
        <time>2010-03-18T11:39:35.59</time>
      </trkpt>
      <trkpt lat="45.25098" lon="5.83007">
        <ele>365</ele>
        <time>2010-03-18T11:39:45.59</time>
      </trkpt>
      <trkpt lat="45.25148" lon="5.83027">
        <ele>366</ele>
        <time>2010-03-18T11:39:55.59</time>
      </trkpt>
      <trkpt lat="45.25193" lon="5.83049">
        <ele>368</ele>
        <time>2010-03-18T11:40:05.59</time>
      </trkpt>
      <trkpt lat="45.25234" lon="5.83065">
        <ele>368</ele>
        <time>2010-03-18T11:40:15.58</time>
      </trkpt>
      <trkpt lat="45.25277" lon="5.83078">
        <ele>371</ele>
        <time>2010-03-18T11:40:25.58</time>
      </trkpt>
      <trkpt lat="45.25312" lon="5.83094">
        <ele>368</ele>
        <time>2010-03-18T11:40:35.58</time>
      </trkpt>
      <trkpt lat="45.25351" lon="5.83091">
        <ele>371</ele>
        <time>2010-03-18T11:40:45.58</time>
      </trkpt>
      <trkpt lat="45.25387" lon="5.83099">
        <ele>371</ele>
        <time>2010-03-18T11:40:55.57</time>
      </trkpt>
      <trkpt lat="45.25425" lon="5.83108">
        <ele>374</ele>
        <time>2010-03-18T11:41:05.58</time>
      </trkpt>
      <trkpt lat="45.25465" lon="5.83136">
        <ele>374</ele>
        <time>2010-03-18T11:41:15.57</time>
      </trkpt>
      <trkpt lat="45.25499" lon="5.83174">
        <ele>372</ele>
        <time>2010-03-18T11:41:25.57</time>
      </trkpt>
      <trkpt lat="45.2551" lon="5.83231">
        <ele>373</ele>
        <time>2010-03-18T11:41:35.57</time>
      </trkpt>
      <trkpt lat="45.25515" lon="5.83292">
        <ele>370</ele>
        <time>2010-03-18T11:41:45.57</time>
      </trkpt>
      <trkpt lat="45.25535" lon="5.83352">
        <ele>369</ele>
        <time>2010-03-18T11:41:55.91</time>
      </trkpt>
      <trkpt lat="45.25561" lon="5.83386">
        <ele>370</ele>
        <time>2010-03-18T11:42:07.56</time>
      </trkpt>
      <trkpt lat="45.25583" lon="5.83428">
        <ele>372</ele>
        <time>2010-03-18T11:42:17.57</time>
      </trkpt>
      <trkpt lat="45.25606" lon="5.83471">
        <ele>377</ele>
        <time>2010-03-18T11:42:27.55</time>
      </trkpt>
      <trkpt lat="45.25634" lon="5.83492">
        <ele>379</ele>
        <time>2010-03-18T11:42:37.55</time>
      </trkpt>
      <trkpt lat="45.25661" lon="5.83493">
        <ele>381</ele>
        <time>2010-03-18T11:42:47.55</time>
      </trkpt>
      <trkpt lat="45.25686" lon="5.83493">
        <ele>385</ele>
        <time>2010-03-18T11:42:57.54</time>
      </trkpt>
      <trkpt lat="45.2571" lon="5.83508">
        <ele>386</ele>
        <time>2010-03-18T11:43:07.54</time>
      </trkpt>
      <trkpt lat="45.25735" lon="5.83525">
        <ele>388</ele>
        <time>2010-03-18T11:43:17.55</time>
      </trkpt>
      <trkpt lat="45.25758" lon="5.83548">
        <ele>394</ele>
        <time>2010-03-18T11:43:27.54</time>
      </trkpt>
      <trkpt lat="45.25779" lon="5.83574">
        <ele>394</ele>
        <time>2010-03-18T11:43:37.54</time>
      </trkpt>
      <trkpt lat="45.258" lon="5.83596">
        <ele>395</ele>
        <time>2010-03-18T11:43:47.53</time>
      </trkpt>
      <trkpt lat="45.25821" lon="5.8362">
        <ele>396</ele>
        <time>2010-03-18T11:43:57.54</time>
      </trkpt>
      <trkpt lat="45.25842" lon="5.83641">
        <ele>402</ele>
        <time>2010-03-18T11:44:07.53</time>
      </trkpt>
      <trkpt lat="45.25859" lon="5.83669">
        <ele>401</ele>
        <time>2010-03-18T11:44:17.54</time>
      </trkpt>
      <trkpt lat="45.25879" lon="5.8369">
        <ele>403</ele>
        <time>2010-03-18T11:44:27.52</time>
      </trkpt>
      <trkpt lat="45.25905" lon="5.83696">
        <ele>404</ele>
        <time>2010-03-18T11:44:38.53</time>
      </trkpt>
      <trkpt lat="45.25926" lon="5.83695">
        <ele>410</ele>
        <time>2010-03-18T11:44:48.52</time>
      </trkpt>
      <trkpt lat="45.25946" lon="5.83684">
        <ele>411</ele>
        <time>2010-03-18T11:44:58.52</time>
      </trkpt>
      <trkpt lat="45.25963" lon="5.83681">
        <ele>412</ele>
        <time>2010-03-18T11:45:08.51</time>
      </trkpt>
      <trkpt lat="45.25979" lon="5.83679">
        <ele>414</ele>
        <time>2010-03-18T11:45:18.51</time>
      </trkpt>
      <trkpt lat="45.25997" lon="5.83678">
        <ele>416</ele>
        <time>2010-03-18T11:45:28.52</time>
      </trkpt>
      <trkpt lat="45.26015" lon="5.83673">
        <ele>420</ele>
        <time>2010-03-18T11:45:38.51</time>
      </trkpt>
      <trkpt lat="45.26035" lon="5.83669">
        <ele>421</ele>
        <time>2010-03-18T11:45:48.51</time>
      </trkpt>
      <trkpt lat="45.26054" lon="5.83669">
        <ele>423</ele>
        <time>2010-03-18T11:45:58.50</time>
      </trkpt>
      <trkpt lat="45.26072" lon="5.8367">
        <ele>425</ele>
        <time>2010-03-18T11:46:08.50</time>
      </trkpt>
      <trkpt lat="45.26093" lon="5.83674">
        <ele>428</ele>
        <time>2010-03-18T11:46:18.50</time>
      </trkpt>
      <trkpt lat="45.26111" lon="5.83684">
        <ele>430</ele>
        <time>2010-03-18T11:46:29.50</time>
      </trkpt>
      <trkpt lat="45.26125" lon="5.83687">
        <ele>431</ele>
        <time>2010-03-18T11:46:39.50</time>
      </trkpt>
      <trkpt lat="45.26142" lon="5.8368">
        <ele>432</ele>
        <time>2010-03-18T11:46:49.49</time>
      </trkpt>
      <trkpt lat="45.26158" lon="5.83673">
        <ele>435</ele>
        <time>2010-03-18T11:46:59.49</time>
      </trkpt>
      <trkpt lat="45.26177" lon="5.83659">
        <ele>439</ele>
        <time>2010-03-18T11:47:09.49</time>
      </trkpt>
      <trkpt lat="45.26193" lon="5.83646">
        <ele>441</ele>
        <time>2010-03-18T11:47:19.49</time>
      </trkpt>
      <trkpt lat="45.26209" lon="5.8364">
        <ele>442</ele>
        <time>2010-03-18T11:47:29.48</time>
      </trkpt>
      <trkpt lat="45.26221" lon="5.83637">
        <ele>443</ele>
        <time>2010-03-18T11:47:39.48</time>
      </trkpt>
      <trkpt lat="45.26234" lon="5.83639">
        <ele>443</ele>
        <time>2010-03-18T11:47:49.48</time>
      </trkpt>
      <trkpt lat="45.26249" lon="5.83634">
        <ele>444</ele>
        <time>2010-03-18T11:47:59.47</time>
      </trkpt>
      <trkpt lat="45.26263" lon="5.83631">
        <ele>450</ele>
        <time>2010-03-18T11:48:09.47</time>
      </trkpt>
      <trkpt lat="45.26276" lon="5.83627">
        <ele>451</ele>
        <time>2010-03-18T11:48:19.47</time>
      </trkpt>
      <trkpt lat="45.26295" lon="5.83639">
        <ele>452</ele>
        <time>2010-03-18T11:48:29.47</time>
      </trkpt>
      <trkpt lat="45.26297" lon="5.83661">
        <ele>452</ele>
        <time>2010-03-18T11:48:39.47</time>
      </trkpt>
      <trkpt lat="45.263" lon="5.83667">
        <ele>451</ele>
        <time>2010-03-18T11:48:49.47</time>
      </trkpt>
      <trkpt lat="45.26299" lon="5.83667">
        <ele>450</ele>
        <time>2010-03-18T11:48:59.47</time>
      </trkpt>
      <trkpt lat="45.263" lon="5.83665">
        <ele>452</ele>
        <time>2010-03-18T11:49:09.46</time>
      </trkpt>
      <trkpt lat="45.26298" lon="5.83662">
        <ele>452</ele>
        <time>2010-03-18T11:49:19.46</time>
      </trkpt>
      <trkpt lat="45.26298" lon="5.83661">
        <ele>452</ele>
        <time>2010-03-18T11:49:29.46</time>
      </trkpt>
      <trkpt lat="45.26298" lon="5.83661">
        <ele>452</ele>
        <time>2010-03-18T11:49:39.46</time>
      </trkpt>
      <trkpt lat="45.26299" lon="5.83663">
        <ele>452</ele>
        <time>2010-03-18T11:49:50.45</time>
      </trkpt>
      <trkpt lat="45.263" lon="5.83665">
        <ele>452</ele>
        <time>2010-03-18T11:50:00.91</time>
      </trkpt>
      <trkpt lat="45.26301" lon="5.83665">
        <ele>452</ele>
        <time>2010-03-18T11:50:11.68</time>
      </trkpt>
      <trkpt lat="45.26302" lon="5.83665">
        <ele>452</ele>
        <time>2010-03-18T11:50:21.43</time>
      </trkpt>
      <trkpt lat="45.26301" lon="5.83665">
        <ele>452</ele>
        <time>2010-03-18T11:50:31.46</time>
      </trkpt>
      <trkpt lat="45.26311" lon="5.83689">
        <ele>451</ele>
        <time>2010-03-18T11:50:42.43</time>
      </trkpt>
      <trkpt lat="45.26318" lon="5.83724">
        <ele>451</ele>
        <time>2010-03-18T11:50:52.42</time>
      </trkpt>
      <trkpt lat="45.26339" lon="5.83752">
        <ele>454</ele>
        <time>2010-03-18T11:51:03.42</time>
      </trkpt>
      <trkpt lat="45.26339" lon="5.83758">
        <ele>454</ele>
        <time>2010-03-18T11:51:13.42</time>
      </trkpt>
      <trkpt lat="45.26343" lon="5.83759">
        <ele>454</ele>
        <time>2010-03-18T11:51:23.44</time>
      </trkpt>
      <trkpt lat="45.26337" lon="5.83769">
        <ele>454</ele>
        <time>2010-03-18T11:51:34.41</time>
      </trkpt>
      <trkpt lat="45.26366" lon="5.83811">
        <ele>454</ele>
        <time>2010-03-18T11:51:45.41</time>
      </trkpt>
      <trkpt lat="45.26387" lon="5.83849">
        <ele>454</ele>
        <time>2010-03-18T11:51:55.40</time>
      </trkpt>
      <trkpt lat="45.26408" lon="5.83881">
        <ele>454</ele>
        <time>2010-03-18T11:52:05.40</time>
      </trkpt>
      <trkpt lat="45.26421" lon="5.83913">
        <ele>456</ele>
        <time>2010-03-18T11:52:15.40</time>
      </trkpt>
      <trkpt lat="45.26438" lon="5.83942">
        <ele>457</ele>
        <time>2010-03-18T11:52:25.40</time>
      </trkpt>
      <trkpt lat="45.26458" lon="5.83969">
        <ele>458</ele>
        <time>2010-03-18T11:52:35.39</time>
      </trkpt>
      <trkpt lat="45.26479" lon="5.84002">
        <ele>457</ele>
        <time>2010-03-18T11:52:45.39</time>
      </trkpt>
      <trkpt lat="45.26506" lon="5.84025">
        <ele>462</ele>
        <time>2010-03-18T11:52:56.39</time>
      </trkpt>
      <trkpt lat="45.26525" lon="5.84036">
        <ele>463</ele>
        <time>2010-03-18T11:53:06.38</time>
      </trkpt>
      <trkpt lat="45.26523" lon="5.84036">
        <ele>463</ele>
        <time>2010-03-18T11:53:16.38</time>
      </trkpt>
      <trkpt lat="45.26533" lon="5.8405">
        <ele>463</ele>
        <time>2010-03-18T11:53:26.37</time>
      </trkpt>
      <trkpt lat="45.2656" lon="5.84058">
        <ele>464</ele>
        <time>2010-03-18T11:53:36.37</time>
      </trkpt>
      <trkpt lat="45.26582" lon="5.84068">
        <ele>464</ele>
        <time>2010-03-18T11:53:46.37</time>
      </trkpt>
      <trkpt lat="45.26604" lon="5.84073">
        <ele>469</ele>
        <time>2010-03-18T11:53:56.37</time>
      </trkpt>
      <trkpt lat="45.26627" lon="5.84077">
        <ele>470</ele>
        <time>2010-03-18T11:54:06.37</time>
      </trkpt>
      <trkpt lat="45.26648" lon="5.84081">
        <ele>471</ele>
        <time>2010-03-18T11:54:16.36</time>
      </trkpt>
      <trkpt lat="45.26671" lon="5.84085">
        <ele>473</ele>
        <time>2010-03-18T11:54:26.36</time>
      </trkpt>
      <trkpt lat="45.26692" lon="5.84092">
        <ele>475</ele>
        <time>2010-03-18T11:54:36.35</time>
      </trkpt>
      <trkpt lat="45.26713" lon="5.84097">
        <ele>477</ele>
        <time>2010-03-18T11:54:46.36</time>
      </trkpt>
      <trkpt lat="45.26735" lon="5.84101">
        <ele>479</ele>
        <time>2010-03-18T11:54:56.35</time>
      </trkpt>
      <trkpt lat="45.26752" lon="5.84109">
        <ele>484</ele>
        <time>2010-03-18T11:55:06.35</time>
      </trkpt>
      <trkpt lat="45.26768" lon="5.84115">
        <ele>485</ele>
        <time>2010-03-18T11:55:16.34</time>
      </trkpt>
      <trkpt lat="45.26787" lon="5.84119">
        <ele>485</ele>
        <time>2010-03-18T11:55:26.35</time>
      </trkpt>
      <trkpt lat="45.2681" lon="5.84121">
        <ele>487</ele>
        <time>2010-03-18T11:55:36.34</time>
      </trkpt>
      <trkpt lat="45.26831" lon="5.8412">
        <ele>487</ele>
        <time>2010-03-18T11:55:46.34</time>
      </trkpt>
      <trkpt lat="45.26854" lon="5.84118">
        <ele>493</ele>
        <time>2010-03-18T11:55:56.33</time>
      </trkpt>
      <trkpt lat="45.26875" lon="5.8412">
        <ele>494</ele>
        <time>2010-03-18T11:56:06.33</time>
      </trkpt>
      <trkpt lat="45.26898" lon="5.84117">
        <ele>495</ele>
        <time>2010-03-18T11:56:16.33</time>
      </trkpt>
      <trkpt lat="45.26923" lon="5.84117">
        <ele>500</ele>
        <time>2010-03-18T11:56:26.32</time>
      </trkpt>
      <trkpt lat="45.26947" lon="5.84115">
        <ele>500</ele>
        <time>2010-03-18T11:56:36.32</time>
      </trkpt>
      <trkpt lat="45.26974" lon="5.84112">
        <ele>502</ele>
        <time>2010-03-18T11:56:47.31</time>
      </trkpt>
      <trkpt lat="45.26999" lon="5.84112">
        <ele>503</ele>
        <time>2010-03-18T11:56:57.32</time>
      </trkpt>
      <trkpt lat="45.27022" lon="5.84108">
        <ele>507</ele>
        <time>2010-03-18T11:57:07.31</time>
      </trkpt>
      <trkpt lat="45.27041" lon="5.84111">
        <ele>508</ele>
        <time>2010-03-18T11:57:17.31</time>
      </trkpt>
      <trkpt lat="45.27057" lon="5.84115">
        <ele>509</ele>
        <time>2010-03-18T11:57:27.31</time>
      </trkpt>
      <trkpt lat="45.27076" lon="5.84113">
        <ele>510</ele>
        <time>2010-03-18T11:57:37.31</time>
      </trkpt>
      <trkpt lat="45.27092" lon="5.84119">
        <ele>523</ele>
        <time>2010-03-18T11:57:47.31</time>
      </trkpt>
      <trkpt lat="45.27107" lon="5.84136">
        <ele>524</ele>
        <time>2010-03-18T11:57:57.31</time>
      </trkpt>
      <trkpt lat="45.27118" lon="5.84165">
        <ele>524</ele>
        <time>2010-03-18T11:58:08.29</time>
      </trkpt>
      <trkpt lat="45.27132" lon="5.8419">
        <ele>521</ele>
        <time>2010-03-18T11:58:18.30</time>
      </trkpt>
      <trkpt lat="45.27145" lon="5.84219">
        <ele>521</ele>
        <time>2010-03-18T11:58:28.29</time>
      </trkpt>
      <trkpt lat="45.27157" lon="5.84243">
        <ele>525</ele>
        <time>2010-03-18T11:58:38.29</time>
      </trkpt>
      <trkpt lat="45.27171" lon="5.84266">
        <ele>536</ele>
        <time>2010-03-18T11:58:48.29</time>
      </trkpt>
      <trkpt lat="45.27183" lon="5.84291">
        <ele>537</ele>
        <time>2010-03-18T11:58:58.29</time>
      </trkpt>
      <trkpt lat="45.272" lon="5.84318">
        <ele>538</ele>
        <time>2010-03-18T11:59:09.29</time>
      </trkpt>
      <trkpt lat="45.27215" lon="5.84343">
        <ele>529</ele>
        <time>2010-03-18T11:59:19.28</time>
      </trkpt>
      <trkpt lat="45.27237" lon="5.84367">
        <ele>532</ele>
        <time>2010-03-18T11:59:30.28</time>
      </trkpt>
      <trkpt lat="45.27253" lon="5.84389">
        <ele>557</ele>
        <time>2010-03-18T11:59:40.27</time>
      </trkpt>
      <trkpt lat="45.27267" lon="5.84412">
        <ele>552</ele>
        <time>2010-03-18T11:59:50.27</time>
      </trkpt>
      <trkpt lat="45.2728" lon="5.84433">
        <ele>542</ele>
        <time>2010-03-18T12:00:00.28</time>
      </trkpt>
      <trkpt lat="45.27295" lon="5.84453">
        <ele>544</ele>
        <time>2010-03-18T12:00:10.27</time>
      </trkpt>
      <trkpt lat="45.27311" lon="5.84476">
        <ele>544</ele>
        <time>2010-03-18T12:00:20.27</time>
      </trkpt>
      <trkpt lat="45.27325" lon="5.84495">
        <ele>546</ele>
        <time>2010-03-18T12:00:30.26</time>
      </trkpt>
      <trkpt lat="45.27343" lon="5.84512">
        <ele>549</ele>
        <time>2010-03-18T12:00:40.26</time>
      </trkpt>
      <trkpt lat="45.27366" lon="5.84524">
        <ele>551</ele>
        <time>2010-03-18T12:00:50.26</time>
      </trkpt>
      <trkpt lat="45.27385" lon="5.84536">
        <ele>553</ele>
        <time>2010-03-18T12:01:00.25</time>
      </trkpt>
      <trkpt lat="45.27398" lon="5.84557">
        <ele>551</ele>
        <time>2010-03-18T12:01:10.26</time>
      </trkpt>
      <trkpt lat="45.2741" lon="5.84575">
        <ele>550</ele>
        <time>2010-03-18T12:01:20.25</time>
      </trkpt>
      <trkpt lat="45.27429" lon="5.84594">
        <ele>551</ele>
        <time>2010-03-18T12:01:31.25</time>
      </trkpt>
      <trkpt lat="45.27444" lon="5.8461">
        <ele>551</ele>
        <time>2010-03-18T12:01:41.25</time>
      </trkpt>
      <trkpt lat="45.27467" lon="5.84624">
        <ele>553</ele>
        <time>2010-03-18T12:01:51.25</time>
      </trkpt>
      <trkpt lat="45.27489" lon="5.84635">
        <ele>554</ele>
        <time>2010-03-18T12:02:02.25</time>
      </trkpt>
      <trkpt lat="45.27506" lon="5.84645">
        <ele>568</ele>
        <time>2010-03-18T12:02:12.25</time>
      </trkpt>
      <trkpt lat="45.27526" lon="5.84655">
        <ele>571</ele>
        <time>2010-03-18T12:02:23.24</time>
      </trkpt>
      <trkpt lat="45.27545" lon="5.84663">
        <ele>575</ele>
        <time>2010-03-18T12:02:33.24</time>
      </trkpt>
      <trkpt lat="45.27564" lon="5.84671">
        <ele>563</ele>
        <time>2010-03-18T12:02:43.23</time>
      </trkpt>
      <trkpt lat="45.27583" lon="5.84684">
        <ele>564</ele>
        <time>2010-03-18T12:02:53.23</time>
      </trkpt>
      <trkpt lat="45.27604" lon="5.84699">
        <ele>576</ele>
        <time>2010-03-18T12:03:03.23</time>
      </trkpt>
      <trkpt lat="45.27617" lon="5.84714">
        <ele>575</ele>
        <time>2010-03-18T12:03:13.23</time>
      </trkpt>
      <trkpt lat="45.27637" lon="5.84713">
        <ele>579</ele>
        <time>2010-03-18T12:03:24.23</time>
      </trkpt>
      <trkpt lat="45.27641" lon="5.84675">
        <ele>589</ele>
        <time>2010-03-18T12:03:39.22</time>
      </trkpt>
      <trkpt lat="45.2762" lon="5.8465">
        <ele>603</ele>
        <time>2010-03-18T12:03:54.22</time>
      </trkpt>
      <trkpt lat="45.27608" lon="5.84633">
        <ele>603</ele>
        <time>2010-03-18T12:04:04.21</time>
      </trkpt>
      <trkpt lat="45.27595" lon="5.8461">
        <ele>606</ele>
        <time>2010-03-18T12:04:14.21</time>
      </trkpt>
      <trkpt lat="45.27565" lon="5.846">
        <ele>590</ele>
        <time>2010-03-18T12:04:28.21</time>
      </trkpt>
      <trkpt lat="45.2755" lon="5.84587">
        <ele>587</ele>
        <time>2010-03-18T12:04:38.20</time>
      </trkpt>
      <trkpt lat="45.27533" lon="5.84576">
        <ele>602</ele>
        <time>2010-03-18T12:04:48.21</time>
      </trkpt>
      <trkpt lat="45.27526" lon="5.8456">
        <ele>603</ele>
        <time>2010-03-18T12:04:59.19</time>
      </trkpt>
      <trkpt lat="45.27514" lon="5.84541">
        <ele>607</ele>
        <time>2010-03-18T12:05:09.20</time>
      </trkpt>
      <trkpt lat="45.275" lon="5.84537">
        <ele>607</ele>
        <time>2010-03-18T12:05:19.20</time>
      </trkpt>
      <trkpt lat="45.27484" lon="5.84538">
        <ele>588</ele>
        <time>2010-03-18T12:05:30.19</time>
      </trkpt>
      <trkpt lat="45.27465" lon="5.84533">
        <ele>586</ele>
        <time>2010-03-18T12:05:40.19</time>
      </trkpt>
      <trkpt lat="45.27439" lon="5.84505">
        <ele>587</ele>
        <time>2010-03-18T12:05:52.18</time>
      </trkpt>
      <trkpt lat="45.27429" lon="5.84484">
        <ele>606</ele>
        <time>2010-03-18T12:06:04.18</time>
      </trkpt>
      <trkpt lat="45.27421" lon="5.8445">
        <ele>619</ele>
        <time>2010-03-18T12:06:16.17</time>
      </trkpt>
      <trkpt lat="45.27398" lon="5.84426">
        <ele>605</ele>
        <time>2010-03-18T12:06:28.18</time>
      </trkpt>
      <trkpt lat="45.27363" lon="5.84413">
        <ele>611</ele>
        <time>2010-03-18T12:06:42.17</time>
      </trkpt>
      <trkpt lat="45.27353" lon="5.84364">
        <ele>620</ele>
        <time>2010-03-18T12:06:57.17</time>
      </trkpt>
      <trkpt lat="45.27337" lon="5.84347">
        <ele>620</ele>
        <time>2010-03-18T12:07:07.17</time>
      </trkpt>
      <trkpt lat="45.27331" lon="5.84309">
        <ele>610</ele>
        <time>2010-03-18T12:07:18.16</time>
      </trkpt>
      <trkpt lat="45.27325" lon="5.84269">
        <ele>619</ele>
        <time>2010-03-18T12:07:31.16</time>
      </trkpt>
      <trkpt lat="45.2732" lon="5.84246">
        <ele>633</ele>
        <time>2010-03-18T12:07:41.15</time>
      </trkpt>
      <trkpt lat="45.27306" lon="5.84221">
        <ele>625</ele>
        <time>2010-03-18T12:07:52.16</time>
      </trkpt>
      <trkpt lat="45.27301" lon="5.84196">
        <ele>625</ele>
        <time>2010-03-18T12:08:02.15</time>
      </trkpt>
      <trkpt lat="45.27296" lon="5.84178">
        <ele>625</ele>
        <time>2010-03-18T12:08:12.15</time>
      </trkpt>
      <trkpt lat="45.27294" lon="5.84157">
        <ele>628</ele>
        <time>2010-03-18T12:08:22.14</time>
      </trkpt>
      <trkpt lat="45.27295" lon="5.84127">
        <ele>628</ele>
        <time>2010-03-18T12:08:33.14</time>
      </trkpt>
      <trkpt lat="45.27301" lon="5.84101">
        <ele>630</ele>
        <time>2010-03-18T12:08:44.14</time>
      </trkpt>
      <trkpt lat="45.27306" lon="5.84086">
        <ele>632</ele>
        <time>2010-03-18T12:08:54.14</time>
      </trkpt>
      <trkpt lat="45.2732" lon="5.84067">
        <ele>635</ele>
        <time>2010-03-18T12:09:04.14</time>
      </trkpt>
      <trkpt lat="45.27323" lon="5.8405">
        <ele>633</ele>
        <time>2010-03-18T12:09:14.13</time>
      </trkpt>
      <trkpt lat="45.27323" lon="5.84032">
        <ele>634</ele>
        <time>2010-03-18T12:09:25.13</time>
      </trkpt>
      <trkpt lat="45.27324" lon="5.83993">
        <ele>641</ele>
        <time>2010-03-18T12:09:36.13</time>
      </trkpt>
      <trkpt lat="45.27326" lon="5.83965">
        <ele>634</ele>
        <time>2010-03-18T12:09:46.13</time>
      </trkpt>
      <trkpt lat="45.27328" lon="5.83935">
        <ele>638</ele>
        <time>2010-03-18T12:09:56.12</time>
      </trkpt>
      <trkpt lat="45.27333" lon="5.83909">
        <ele>643</ele>
        <time>2010-03-18T12:10:06.12</time>
      </trkpt>
      <trkpt lat="45.27335" lon="5.83875">
        <ele>662</ele>
        <time>2010-03-18T12:10:18.11</time>
      </trkpt>
      <trkpt lat="45.27345" lon="5.83853">
        <ele>659</ele>
        <time>2010-03-18T12:10:28.12</time>
      </trkpt>
      <trkpt lat="45.27357" lon="5.83831">
        <ele>654</ele>
        <time>2010-03-18T12:10:38.11</time>
      </trkpt>
      <trkpt lat="45.27364" lon="5.83806">
        <ele>657</ele>
        <time>2010-03-18T12:10:48.11</time>
      </trkpt>
      <trkpt lat="45.27371" lon="5.83785">
        <ele>658</ele>
        <time>2010-03-18T12:10:58.10</time>
      </trkpt>
      <trkpt lat="45.27384" lon="5.83769">
        <ele>662</ele>
        <time>2010-03-18T12:11:08.09</time>
      </trkpt>
      <trkpt lat="45.27398" lon="5.83748">
        <ele>662</ele>
        <time>2010-03-18T12:11:18.10</time>
      </trkpt>
      <trkpt lat="45.27408" lon="5.83725">
        <ele>660</ele>
        <time>2010-03-18T12:11:28.10</time>
      </trkpt>
      <trkpt lat="45.2742" lon="5.83708">
        <ele>694</ele>
        <time>2010-03-18T12:11:38.10</time>
      </trkpt>
      <trkpt lat="45.27428" lon="5.83689">
        <ele>690</ele>
        <time>2010-03-18T12:11:48.09</time>
      </trkpt>
      <trkpt lat="45.27427" lon="5.8366">
        <ele>677</ele>
        <time>2010-03-18T12:12:00.09</time>
      </trkpt>
      <trkpt lat="45.27426" lon="5.83633">
        <ele>684</ele>
        <time>2010-03-18T12:12:11.08</time>
      </trkpt>
      <trkpt lat="45.27408" lon="5.83613">
        <ele>649</ele>
        <time>2010-03-18T12:12:22.08</time>
      </trkpt>
      <trkpt lat="45.27411" lon="5.83579">
        <ele>657</ele>
        <time>2010-03-18T12:12:33.07</time>
      </trkpt>
      <trkpt lat="45.27426" lon="5.8358">
        <ele>671</ele>
        <time>2010-03-18T12:12:43.07</time>
      </trkpt>
      <trkpt lat="45.27436" lon="5.83599">
        <ele>683</ele>
        <time>2010-03-18T12:12:54.07</time>
      </trkpt>
      <trkpt lat="45.27444" lon="5.83625">
        <ele>689</ele>
        <time>2010-03-18T12:13:04.07</time>
      </trkpt>
      <trkpt lat="45.27446" lon="5.83653">
        <ele>689</ele>
        <time>2010-03-18T12:13:14.06</time>
      </trkpt>
      <trkpt lat="45.27442" lon="5.83682">
        <ele>695</ele>
        <time>2010-03-18T12:13:24.06</time>
      </trkpt>
      <trkpt lat="45.27428" lon="5.83703">
        <ele>695</ele>
        <time>2010-03-18T12:13:34.05</time>
      </trkpt>
      <trkpt lat="45.27417" lon="5.83729">
        <ele>692</ele>
        <time>2010-03-18T12:13:44.05</time>
      </trkpt>
      <trkpt lat="45.27414" lon="5.83764">
        <ele>673</ele>
        <time>2010-03-18T12:13:54.06</time>
      </trkpt>
      <trkpt lat="45.27405" lon="5.83794">
        <ele>669</ele>
        <time>2010-03-18T12:14:04.05</time>
      </trkpt>
      <trkpt lat="45.27399" lon="5.83829">
        <ele>676</ele>
        <time>2010-03-18T12:14:14.05</time>
      </trkpt>
      <trkpt lat="45.27392" lon="5.83866">
        <ele>676</ele>
        <time>2010-03-18T12:14:24.05</time>
      </trkpt>
      <trkpt lat="45.27393" lon="5.83895">
        <ele>679</ele>
        <time>2010-03-18T12:14:34.04</time>
      </trkpt>
      <trkpt lat="45.27404" lon="5.83917">
        <ele>688</ele>
        <time>2010-03-18T12:14:44.04</time>
      </trkpt>
      <trkpt lat="45.2742" lon="5.83927">
        <ele>702</ele>
        <time>2010-03-18T12:14:54.04</time>
      </trkpt>
      <trkpt lat="45.27433" lon="5.83936">
        <ele>706</ele>
        <time>2010-03-18T12:15:04.04</time>
      </trkpt>
      <trkpt lat="45.27445" lon="5.83949">
        <ele>708</ele>
        <time>2010-03-18T12:15:14.03</time>
      </trkpt>
      <trkpt lat="45.27462" lon="5.83963">
        <ele>710</ele>
        <time>2010-03-18T12:15:24.03</time>
      </trkpt>
      <trkpt lat="45.2747" lon="5.8398">
        <ele>711</ele>
        <time>2010-03-18T12:15:34.03</time>
      </trkpt>
      <trkpt lat="45.2748" lon="5.84001">
        <ele>707</ele>
        <time>2010-03-18T12:15:44.03</time>
      </trkpt>
      <trkpt lat="45.27482" lon="5.84023">
        <ele>705</ele>
        <time>2010-03-18T12:15:54.02</time>
      </trkpt>
      <trkpt lat="45.27484" lon="5.84046">
        <ele>703</ele>
        <time>2010-03-18T12:16:04.02</time>
      </trkpt>
      <trkpt lat="45.27489" lon="5.8407">
        <ele>705</ele>
        <time>2010-03-18T12:16:14.02</time>
      </trkpt>
      <trkpt lat="45.27504" lon="5.84095">
        <ele>716</ele>
        <time>2010-03-18T12:16:24.02</time>
      </trkpt>
      <trkpt lat="45.27514" lon="5.84111">
        <ele>720</ele>
        <time>2010-03-18T12:16:34.01</time>
      </trkpt>
      <trkpt lat="45.27532" lon="5.84134">
        <ele>722</ele>
        <time>2010-03-18T12:16:45.01</time>
      </trkpt>
      <trkpt lat="45.27545" lon="5.84155">
        <ele>724</ele>
        <time>2010-03-18T12:16:55.01</time>
      </trkpt>
      <trkpt lat="45.27557" lon="5.84175">
        <ele>721</ele>
        <time>2010-03-18T12:17:05.00</time>
      </trkpt>
      <trkpt lat="45.27566" lon="5.84194">
        <ele>720</ele>
        <time>2010-03-18T12:17:15.00</time>
      </trkpt>
      <trkpt lat="45.27578" lon="5.84211">
        <ele>719</ele>
        <time>2010-03-18T12:17:25.00</time>
      </trkpt>
      <trkpt lat="45.27594" lon="5.84207">
        <ele>736</ele>
        <time>2010-03-18T12:17:35.00</time>
      </trkpt>
      <trkpt lat="45.27594" lon="5.84187">
        <ele>737</ele>
        <time>2010-03-18T12:17:46.00</time>
      </trkpt>
      <trkpt lat="45.27587" lon="5.84179">
        <ele>735</ele>
        <time>2010-03-18T12:17:55.99</time>
      </trkpt>
      <trkpt lat="45.27577" lon="5.84157">
        <ele>729</ele>
        <time>2010-03-18T12:18:06.98</time>
      </trkpt>
      <trkpt lat="45.27576" lon="5.84138">
        <ele>728</ele>
        <time>2010-03-18T12:18:16.99</time>
      </trkpt>
      <trkpt lat="45.27576" lon="5.84104">
        <ele>732</ele>
        <time>2010-03-18T12:18:29.98</time>
      </trkpt>
      <trkpt lat="45.2757" lon="5.84051">
        <ele>736</ele>
        <time>2010-03-18T12:18:49.98</time>
      </trkpt>
      <trkpt lat="45.27558" lon="5.84005">
        <ele>738</ele>
        <time>2010-03-18T12:19:09.97</time>
      </trkpt>
      <trkpt lat="45.27551" lon="5.83942">
        <ele>746</ele>
        <time>2010-03-18T12:19:29.97</time>
      </trkpt>
      <trkpt lat="45.27539" lon="5.83906">
        <ele>753</ele>
        <time>2010-03-18T12:19:49.96</time>
      </trkpt>
      <trkpt lat="45.27527" lon="5.83847">
        <ele>754</ele>
        <time>2010-03-18T12:20:08.96</time>
      </trkpt>
      <trkpt lat="45.27514" lon="5.8383">
        <ele>754</ele>
        <time>2010-03-18T12:20:19.96</time>
      </trkpt>
      <trkpt lat="45.27513" lon="5.83807">
        <ele>758</ele>
        <time>2010-03-18T12:20:29.95</time>
      </trkpt>
      <trkpt lat="45.27527" lon="5.83804">
        <ele>762</ele>
        <time>2010-03-18T12:20:40.96</time>
      </trkpt>
      <trkpt lat="45.27531" lon="5.8382">
        <ele>762</ele>
        <time>2010-03-18T12:20:50.95</time>
      </trkpt>
      <trkpt lat="45.27535" lon="5.83835">
        <ele>757</ele>
        <time>2010-03-18T12:21:00.94</time>
      </trkpt>
      <trkpt lat="45.27543" lon="5.83849">
        <ele>759</ele>
        <time>2010-03-18T12:21:10.94</time>
      </trkpt>
      <trkpt lat="45.27555" lon="5.83862">
        <ele>761</ele>
        <time>2010-03-18T12:21:20.94</time>
      </trkpt>
      <trkpt lat="45.27569" lon="5.83874">
        <ele>761</ele>
        <time>2010-03-18T12:21:30.93</time>
      </trkpt>
      <trkpt lat="45.27588" lon="5.83887">
        <ele>785</ele>
        <time>2010-03-18T12:21:41.93</time>
      </trkpt>
      <trkpt lat="45.27606" lon="5.83901">
        <ele>785</ele>
        <time>2010-03-18T12:21:51.93</time>
      </trkpt>
      <trkpt lat="45.27615" lon="5.83917">
        <ele>776</ele>
        <time>2010-03-18T12:22:01.93</time>
      </trkpt>
      <trkpt lat="45.27622" lon="5.83931">
        <ele>778</ele>
        <time>2010-03-18T12:22:11.93</time>
      </trkpt>
      <trkpt lat="45.27621" lon="5.83934">
        <ele>777</ele>
        <time>2010-03-18T12:22:21.93</time>
      </trkpt>
      <trkpt lat="45.27622" lon="5.8393">
        <ele>778</ele>
        <time>2010-03-18T12:22:31.92</time>
      </trkpt>
      <trkpt lat="45.2762" lon="5.83927">
        <ele>777</ele>
        <time>2010-03-18T12:22:42.92</time>
      </trkpt>
      <trkpt lat="45.27617" lon="5.83927">
        <ele>776</ele>
        <time>2010-03-18T12:22:53.91</time>
      </trkpt>
      <trkpt lat="45.2762" lon="5.83928">
        <ele>777</ele>
        <time>2010-03-18T12:23:03.91</time>
      </trkpt>
      <trkpt lat="45.27622" lon="5.83928">
        <ele>778</ele>
        <time>2010-03-18T12:23:13.91</time>
      </trkpt>
      <trkpt lat="45.27621" lon="5.83927">
        <ele>777</ele>
        <time>2010-03-18T12:23:23.90</time>
      </trkpt>
      <trkpt lat="45.27624" lon="5.83928">
        <ele>779</ele>
        <time>2010-03-18T12:23:33.90</time>
      </trkpt>
      <trkpt lat="45.27633" lon="5.83934">
        <ele>781</ele>
        <time>2010-03-18T12:23:44.90</time>
      </trkpt>
      <trkpt lat="45.2763" lon="5.83933">
        <ele>780</ele>
        <time>2010-03-18T12:23:54.89</time>
      </trkpt>
      <trkpt lat="45.27632" lon="5.8393">
        <ele>781</ele>
        <time>2010-03-18T12:24:04.89</time>
      </trkpt>
      <trkpt lat="45.27633" lon="5.83928">
        <ele>782</ele>
        <time>2010-03-18T12:24:14.89</time>
      </trkpt>
      <trkpt lat="45.27634" lon="5.83928">
        <ele>782</ele>
        <time>2010-03-18T12:24:24.88</time>
      </trkpt>
      <trkpt lat="45.27629" lon="5.83922">
        <ele>781</ele>
        <time>2010-03-18T12:24:35.88</time>
      </trkpt>
      <trkpt lat="45.27627" lon="5.83922">
        <ele>780</ele>
        <time>2010-03-18T12:24:45.86</time>
      </trkpt>
      <trkpt lat="45.27626" lon="5.83917">
        <ele>780</ele>
        <time>2010-03-18T12:24:55.87</time>
      </trkpt>
      <trkpt lat="45.27624" lon="5.83917">
        <ele>779</ele>
        <time>2010-03-18T12:25:05.87</time>
      </trkpt>
      <trkpt lat="45.27624" lon="5.83915">
        <ele>791</ele>
        <time>2010-03-18T12:25:15.87</time>
      </trkpt>
      <trkpt lat="45.27622" lon="5.83915">
        <ele>790</ele>
        <time>2010-03-18T12:25:25.87</time>
      </trkpt>
      <trkpt lat="45.27622" lon="5.83915">
        <ele>790</ele>
        <time>2010-03-18T12:25:35.86</time>
      </trkpt>
      <trkpt lat="45.27623" lon="5.83917">
        <ele>779</ele>
        <time>2010-03-18T12:25:45.86</time>
      </trkpt>
      <trkpt lat="45.27623" lon="5.83916">
        <ele>791</ele>
        <time>2010-03-18T12:25:55.86</time>
      </trkpt>
      <trkpt lat="45.27621" lon="5.83916">
        <ele>790</ele>
        <time>2010-03-18T12:26:05.86</time>
      </trkpt>
      <trkpt lat="45.27621" lon="5.83921">
        <ele>778</ele>
        <time>2010-03-18T12:26:15.85</time>
      </trkpt>
      <trkpt lat="45.27625" lon="5.83926">
        <ele>779</ele>
        <time>2010-03-18T12:26:25.85</time>
      </trkpt>
      <trkpt lat="45.27639" lon="5.83942">
        <ele>782</ele>
        <time>2010-03-18T12:26:38.85</time>
      </trkpt>
      <trkpt lat="45.27651" lon="5.83963">
        <ele>780</ele>
        <time>2010-03-18T12:26:48.85</time>
      </trkpt>
      <trkpt lat="45.27656" lon="5.83986">
        <ele>779</ele>
        <time>2010-03-18T12:26:58.84</time>
      </trkpt>
      <trkpt lat="45.27663" lon="5.84007">
        <ele>776</ele>
        <time>2010-03-18T12:27:08.83</time>
      </trkpt>
      <trkpt lat="45.27671" lon="5.8403">
        <ele>793</ele>
        <time>2010-03-18T12:27:18.84</time>
      </trkpt>
      <trkpt lat="45.27681" lon="5.84053">
        <ele>792</ele>
        <time>2010-03-18T12:27:28.83</time>
      </trkpt>
      <trkpt lat="45.27696" lon="5.84075">
        <ele>793</ele>
        <time>2010-03-18T12:27:38.82</time>
      </trkpt>
      <trkpt lat="45.27706" lon="5.84097">
        <ele>787</ele>
        <time>2010-03-18T12:27:48.83</time>
      </trkpt>
      <trkpt lat="45.27719" lon="5.84119">
        <ele>789</ele>
        <time>2010-03-18T12:27:58.82</time>
      </trkpt>
      <trkpt lat="45.27738" lon="5.84138">
        <ele>791</ele>
        <time>2010-03-18T12:28:08.81</time>
      </trkpt>
      <trkpt lat="45.27756" lon="5.84149">
        <ele>810</ele>
        <time>2010-03-18T12:28:18.81</time>
      </trkpt>
      <trkpt lat="45.27772" lon="5.84159">
        <ele>813</ele>
        <time>2010-03-18T12:28:28.81</time>
      </trkpt>
      <trkpt lat="45.27787" lon="5.84178">
        <ele>803</ele>
        <time>2010-03-18T12:28:39.81</time>
      </trkpt>
      <trkpt lat="45.27795" lon="5.842">
        <ele>802</ele>
        <time>2010-03-18T12:28:49.81</time>
      </trkpt>
      <trkpt lat="45.27802" lon="5.84225">
        <ele>800</ele>
        <time>2010-03-18T12:28:59.80</time>
      </trkpt>
      <trkpt lat="45.27813" lon="5.84249">
        <ele>801</ele>
        <time>2010-03-18T12:29:09.81</time>
      </trkpt>
      <trkpt lat="45.27822" lon="5.84265">
        <ele>789</ele>
        <time>2010-03-18T12:29:19.80</time>
      </trkpt>
      <trkpt lat="45.27835" lon="5.84286">
        <ele>794</ele>
        <time>2010-03-18T12:29:29.80</time>
      </trkpt>
      <trkpt lat="45.27844" lon="5.84313">
        <ele>788</ele>
        <time>2010-03-18T12:29:39.80</time>
      </trkpt>
      <trkpt lat="45.27847" lon="5.8434">
        <ele>776</ele>
        <time>2010-03-18T12:29:49.80</time>
      </trkpt>
      <trkpt lat="45.27857" lon="5.84364">
        <ele>774</ele>
        <time>2010-03-18T12:29:59.79</time>
      </trkpt>
      <trkpt lat="45.27873" lon="5.84377">
        <ele>772</ele>
        <time>2010-03-18T12:30:09.78</time>
      </trkpt>
      <trkpt lat="45.27888" lon="5.84392">
        <ele>771</ele>
        <time>2010-03-18T12:30:19.78</time>
      </trkpt>
      <trkpt lat="45.2789" lon="5.84419">
        <ele>760</ele>
        <time>2010-03-18T12:30:29.77</time>
      </trkpt>
      <trkpt lat="45.27887" lon="5.84445">
        <ele>758</ele>
        <time>2010-03-18T12:30:39.78</time>
      </trkpt>
      <trkpt lat="45.27883" lon="5.8447">
        <ele>755</ele>
        <time>2010-03-18T12:30:49.77</time>
      </trkpt>
      <trkpt lat="45.27883" lon="5.84495">
        <ele>753</ele>
        <time>2010-03-18T12:30:59.77</time>
      </trkpt>
      <trkpt lat="45.27887" lon="5.84521">
        <ele>738</ele>
        <time>2010-03-18T12:31:09.76</time>
      </trkpt>
      <trkpt lat="45.27882" lon="5.84544">
        <ele>735</ele>
        <time>2010-03-18T12:31:19.76</time>
      </trkpt>
      <trkpt lat="45.27888" lon="5.8457">
        <ele>731</ele>
        <time>2010-03-18T12:31:29.75</time>
      </trkpt>
      <trkpt lat="45.27899" lon="5.84597">
        <ele>720</ele>
        <time>2010-03-18T12:31:39.76</time>
      </trkpt>
      <trkpt lat="45.27912" lon="5.84616">
        <ele>720</ele>
        <time>2010-03-18T12:31:49.75</time>
      </trkpt>
      <trkpt lat="45.27927" lon="5.84633">
        <ele>759</ele>
        <time>2010-03-18T12:31:59.75</time>
      </trkpt>
      <trkpt lat="45.27939" lon="5.84652">
        <ele>759</ele>
        <time>2010-03-18T12:32:09.74</time>
      </trkpt>
      <trkpt lat="45.27948" lon="5.84675">
        <ele>764</ele>
        <time>2010-03-18T12:32:19.74</time>
      </trkpt>
      <trkpt lat="45.27965" lon="5.84685">
        <ele>776</ele>
        <time>2010-03-18T12:32:29.74</time>
      </trkpt>
      <trkpt lat="45.27979" lon="5.84694">
        <ele>782</ele>
        <time>2010-03-18T12:32:40.74</time>
      </trkpt>
      <trkpt lat="45.27997" lon="5.84707">
        <ele>786</ele>
        <time>2010-03-18T12:32:51.73</time>
      </trkpt>
      <trkpt lat="45.28009" lon="5.84711">
        <ele>830</ele>
        <time>2010-03-18T12:33:01.73</time>
      </trkpt>
      <trkpt lat="45.28017" lon="5.8471">
        <ele>832</ele>
        <time>2010-03-18T12:33:11.72</time>
      </trkpt>
      <trkpt lat="45.28031" lon="5.84698">
        <ele>838</ele>
        <time>2010-03-18T12:33:22.70</time>
      </trkpt>
      <trkpt lat="45.28248" lon="5.84844">
        <ele>903</ele>
        <time>2010-03-18T12:35:46.69</time>
      </trkpt>
      <trkpt lat="45.28257" lon="5.84838">
        <ele>927</ele>
        <time>2010-03-18T12:35:56.68</time>
      </trkpt>
      <trkpt lat="45.28487" lon="5.84799">
        <ele>934</ele>
        <time>2010-03-18T12:38:25.66</time>
      </trkpt>
      <trkpt lat="45.2847" lon="5.848">
        <ele>935</ele>
        <time>2010-03-18T12:38:37.66</time>
      </trkpt>
      <trkpt lat="45.28463" lon="5.84817">
        <ele>932</ele>
        <time>2010-03-18T12:38:49.66</time>
      </trkpt>
      <trkpt lat="45.28476" lon="5.848">
        <ele>934</ele>
        <time>2010-03-18T12:39:00.66</time>
      </trkpt>
      <trkpt lat="45.28491" lon="5.84844">
        <ele>911</ele>
        <time>2010-03-18T12:39:17.66</time>
      </trkpt>
      <trkpt lat="45.2851" lon="5.84876">
        <ele>910</ele>
        <time>2010-03-18T12:39:30.63</time>
      </trkpt>
      <trkpt lat="45.28527" lon="5.84891">
        <ele>909</ele>
        <time>2010-03-18T12:39:40.60</time>
      </trkpt>
      <trkpt lat="45.28539" lon="5.84896">
        <ele>911</ele>
        <time>2010-03-18T12:39:50.59</time>
      </trkpt>
      <trkpt lat="45.28559" lon="5.84893">
        <ele>916</ele>
        <time>2010-03-18T12:40:01.58</time>
      </trkpt>
      <trkpt lat="45.28577" lon="5.84893">
        <ele>918</ele>
        <time>2010-03-18T12:40:11.57</time>
      </trkpt>
      <trkpt lat="45.28598" lon="5.84901">
        <ele>935</ele>
        <time>2010-03-18T12:40:21.56</time>
      </trkpt>
      <trkpt lat="45.28616" lon="5.84912">
        <ele>940</ele>
        <time>2010-03-18T12:40:31.55</time>
      </trkpt>
      <trkpt lat="45.28629" lon="5.84929">
        <ele>924</ele>
        <time>2010-03-18T12:40:41.56</time>
      </trkpt>
      <trkpt lat="45.28643" lon="5.84943">
        <ele>925</ele>
        <time>2010-03-18T12:40:51.54</time>
      </trkpt>
      <trkpt lat="45.28657" lon="5.84958">
        <ele>924</ele>
        <time>2010-03-18T12:41:01.53</time>
      </trkpt>
      <trkpt lat="45.28669" lon="5.84974">
        <ele>935</ele>
        <time>2010-03-18T12:41:11.53</time>
      </trkpt>
      <trkpt lat="45.2868" lon="5.8499">
        <ele>931</ele>
        <time>2010-03-18T12:41:21.52</time>
      </trkpt>
      <trkpt lat="45.28694" lon="5.85003">
        <ele>922</ele>
        <time>2010-03-18T12:41:31.52</time>
      </trkpt>
      <trkpt lat="45.28707" lon="5.85017">
        <ele>923</ele>
        <time>2010-03-18T12:41:41.51</time>
      </trkpt>
      <trkpt lat="45.2872" lon="5.85029">
        <ele>924</ele>
        <time>2010-03-18T12:41:51.51</time>
      </trkpt>
      <trkpt lat="45.28733" lon="5.8504">
        <ele>923</ele>
        <time>2010-03-18T12:42:01.50</time>
      </trkpt>
      <trkpt lat="45.28747" lon="5.85054">
        <ele>921</ele>
        <time>2010-03-18T12:42:11.50</time>
      </trkpt>
      <trkpt lat="45.28763" lon="5.85068">
        <ele>924</ele>
        <time>2010-03-18T12:42:21.49</time>
      </trkpt>
      <trkpt lat="45.28777" lon="5.85077">
        <ele>926</ele>
        <time>2010-03-18T12:42:31.49</time>
      </trkpt>
      <trkpt lat="45.28798" lon="5.85081">
        <ele>929</ele>
        <time>2010-03-18T12:42:43.48</time>
      </trkpt>
      <trkpt lat="45.28815" lon="5.85085">
        <ele>918</ele>
        <time>2010-03-18T12:42:54.48</time>
      </trkpt>
      <trkpt lat="45.2883" lon="5.85077">
        <ele>930</ele>
        <time>2010-03-18T12:43:04.47</time>
      </trkpt>
      <trkpt lat="45.28841" lon="5.85059">
        <ele>934</ele>
        <time>2010-03-18T12:43:14.46</time>
      </trkpt>
      <trkpt lat="45.28845" lon="5.85035">
        <ele>937</ele>
        <time>2010-03-18T12:43:24.46</time>
      </trkpt>
      <trkpt lat="45.28848" lon="5.85008">
        <ele>939</ele>
        <time>2010-03-18T12:43:34.46</time>
      </trkpt>
      <trkpt lat="45.28861" lon="5.84975">
        <ele>948</ele>
        <time>2010-03-18T12:43:46.45</time>
      </trkpt>
      <trkpt lat="45.28877" lon="5.84959">
        <ele>949</ele>
        <time>2010-03-18T12:43:56.45</time>
      </trkpt>
      <trkpt lat="45.28891" lon="5.84948">
        <ele>950</ele>
        <time>2010-03-18T12:44:07.43</time>
      </trkpt>
      <trkpt lat="45.28898" lon="5.84932">
        <ele>952</ele>
        <time>2010-03-18T12:44:17.43</time>
      </trkpt>
      <trkpt lat="45.28943" lon="5.84909">
        <ele>965</ele>
        <time>2010-03-18T12:44:32.42</time>
      </trkpt>
      <trkpt lat="45.28957" lon="5.84922">
        <ele>959</ele>
        <time>2010-03-18T12:44:42.41</time>
      </trkpt>
      <trkpt lat="45.28956" lon="5.84943">
        <ele>959</ele>
        <time>2010-03-18T12:44:52.42</time>
      </trkpt>
      <trkpt lat="45.28953" lon="5.84966">
        <ele>957</ele>
        <time>2010-03-18T12:45:02.41</time>
      </trkpt>
      <trkpt lat="45.28951" lon="5.84992">
        <ele>955</ele>
        <time>2010-03-18T12:45:12.40</time>
      </trkpt>
      <trkpt lat="45.28953" lon="5.85022">
        <ele>950</ele>
        <time>2010-03-18T12:45:22.40</time>
      </trkpt>
      <trkpt lat="45.28966" lon="5.85047">
        <ele>951</ele>
        <time>2010-03-18T12:45:32.39</time>
      </trkpt>
      <trkpt lat="45.2898" lon="5.85064">
        <ele>952</ele>
        <time>2010-03-18T12:45:42.39</time>
      </trkpt>
      <trkpt lat="45.28991" lon="5.85088">
        <ele>952</ele>
        <time>2010-03-18T12:45:52.37</time>
      </trkpt>
      <trkpt lat="45.29003" lon="5.85107">
        <ele>958</ele>
        <time>2010-03-18T12:46:02.37</time>
      </trkpt>
      <trkpt lat="45.29007" lon="5.85123">
        <ele>957</ele>
        <time>2010-03-18T12:46:12.36</time>
      </trkpt>
      <trkpt lat="45.29008" lon="5.85124">
        <ele>957</ele>
        <time>2010-03-18T12:46:22.36</time>
      </trkpt>
      <trkpt lat="45.29007" lon="5.85128">
        <ele>957</ele>
        <time>2010-03-18T12:46:32.36</time>
      </trkpt>
      <trkpt lat="45.29005" lon="5.8513">
        <ele>956</ele>
        <time>2010-03-18T12:46:42.36</time>
      </trkpt>
      <trkpt lat="45.29005" lon="5.8513">
        <ele>956</ele>
        <time>2010-03-18T12:46:52.35</time>
      </trkpt>
      <trkpt lat="45.29005" lon="5.85131">
        <ele>956</ele>
        <time>2010-03-18T12:47:02.34</time>
      </trkpt>
      <trkpt lat="45.29006" lon="5.85132">
        <ele>956</ele>
        <time>2010-03-18T12:47:12.34</time>
      </trkpt>
      <trkpt lat="45.29005" lon="5.85134">
        <ele>956</ele>
        <time>2010-03-18T12:47:22.33</time>
      </trkpt>
      <trkpt lat="45.29005" lon="5.85135">
        <ele>956</ele>
        <time>2010-03-18T12:47:32.33</time>
      </trkpt>
      <trkpt lat="45.29005" lon="5.85135">
        <ele>956</ele>
        <time>2010-03-18T12:47:42.33</time>
      </trkpt>
      <trkpt lat="45.29005" lon="5.85135">
        <ele>956</ele>
        <time>2010-03-18T12:47:52.32</time>
      </trkpt>
      <trkpt lat="45.29005" lon="5.85135">
        <ele>956</ele>
        <time>2010-03-18T12:48:02.31</time>
      </trkpt>
      <trkpt lat="45.29005" lon="5.85135">
        <ele>956</ele>
        <time>2010-03-18T12:48:19.30</time>
      </trkpt>
      <trkpt lat="45.29005" lon="5.85135">
        <ele>956</ele>
        <time>2010-03-18T12:48:39.30</time>
      </trkpt>
      <trkpt lat="45.29005" lon="5.85135">
        <ele>955</ele>
        <time>2010-03-18T12:48:56.28</time>
      </trkpt>
      <trkpt lat="45.29005" lon="5.85135">
        <ele>955</ele>
        <time>2010-03-18T12:49:08.29</time>
      </trkpt>
      <trkpt lat="45.29005" lon="5.85135">
        <ele>955</ele>
        <time>2010-03-18T12:49:18.28</time>
      </trkpt>
      <trkpt lat="45.29005" lon="5.85135">
        <ele>955</ele>
        <time>2010-03-18T12:49:28.27</time>
      </trkpt>
      <trkpt lat="45.29005" lon="5.85135">
        <ele>955</ele>
        <time>2010-03-18T12:49:39.27</time>
      </trkpt>
      <trkpt lat="45.29005" lon="5.85135">
        <ele>955</ele>
        <time>2010-03-18T12:49:49.26</time>
      </trkpt>
      <trkpt lat="45.29005" lon="5.85136">
        <ele>955</ele>
        <time>2010-03-18T12:49:59.26</time>
      </trkpt>
      <trkpt lat="45.29005" lon="5.85136">
        <ele>955</ele>
        <time>2010-03-18T12:50:09.25</time>
      </trkpt>
      <trkpt lat="45.29005" lon="5.85135">
        <ele>956</ele>
        <time>2010-03-18T12:50:19.25</time>
      </trkpt>
      <trkpt lat="45.29006" lon="5.85135">
        <ele>956</ele>
        <time>2010-03-18T12:50:29.24</time>
      </trkpt>
      <trkpt lat="45.29006" lon="5.85135">
        <ele>956</ele>
        <time>2010-03-18T12:50:39.23</time>
      </trkpt>
      <trkpt lat="45.29007" lon="5.85135">
        <ele>956</ele>
        <time>2010-03-18T12:50:49.23</time>
      </trkpt>
      <trkpt lat="45.29007" lon="5.85135">
        <ele>956</ele>
        <time>2010-03-18T12:50:59.22</time>
      </trkpt>
      <trkpt lat="45.29007" lon="5.85135">
        <ele>956</ele>
        <time>2010-03-18T12:51:09.22</time>
      </trkpt>
      <trkpt lat="45.29007" lon="5.85136">
        <ele>955</ele>
        <time>2010-03-18T12:51:19.21</time>
      </trkpt>
      <trkpt lat="45.29007" lon="5.85135">
        <ele>956</ele>
        <time>2010-03-18T12:51:29.21</time>
      </trkpt>
      <trkpt lat="45.29007" lon="5.85135">
        <ele>956</ele>
        <time>2010-03-18T12:51:39.20</time>
      </trkpt>
      <trkpt lat="45.29007" lon="5.85135">
        <ele>956</ele>
        <time>2010-03-18T12:51:49.20</time>
      </trkpt>
      <trkpt lat="45.29007" lon="5.85136">
        <ele>955</ele>
        <time>2010-03-18T12:51:59.19</time>
      </trkpt>
      <trkpt lat="45.29007" lon="5.85138">
        <ele>955</ele>
        <time>2010-03-18T12:52:09.19</time>
      </trkpt>
      <trkpt lat="45.29007" lon="5.85137">
        <ele>955</ele>
        <time>2010-03-18T12:52:22.24</time>
      </trkpt>
      <trkpt lat="45.29007" lon="5.85137">
        <ele>955</ele>
        <time>2010-03-18T12:52:33.16</time>
      </trkpt>
      <trkpt lat="45.29008" lon="5.85137">
        <ele>955</ele>
        <time>2010-03-18T12:52:45.14</time>
      </trkpt>
      <trkpt lat="45.29007" lon="5.85137">
        <ele>955</ele>
        <time>2010-03-18T12:52:55.13</time>
      </trkpt>
      <trkpt lat="45.29007" lon="5.85136">
        <ele>956</ele>
        <time>2010-03-18T12:53:05.10</time>
      </trkpt>
      <trkpt lat="45.29007" lon="5.85136">
        <ele>956</ele>
        <time>2010-03-18T12:53:15.09</time>
      </trkpt>
      <trkpt lat="45.29007" lon="5.85136">
        <ele>956</ele>
        <time>2010-03-18T12:53:25.07</time>
      </trkpt>
      <trkpt lat="45.29007" lon="5.85136">
        <ele>956</ele>
        <time>2010-03-18T12:53:35.06</time>
      </trkpt>
      <trkpt lat="45.29007" lon="5.85136">
        <ele>956</ele>
        <time>2010-03-18T12:53:45.05</time>
      </trkpt>
      <trkpt lat="45.29008" lon="5.85135">
        <ele>956</ele>
        <time>2010-03-18T12:53:56.05</time>
      </trkpt>
      <trkpt lat="45.29006" lon="5.85137">
        <ele>955</ele>
        <time>2010-03-18T12:54:06.04</time>
      </trkpt>
      <trkpt lat="45.29009" lon="5.85141">
        <ele>955</ele>
        <time>2010-03-18T12:54:16.03</time>
      </trkpt>
      <trkpt lat="45.29021" lon="5.85161">
        <ele>954</ele>
        <time>2010-03-18T12:54:27.03</time>
      </trkpt>
      <trkpt lat="45.29027" lon="5.85158">
        <ele>955</ele>
        <time>2010-03-18T12:54:37.03</time>
      </trkpt>
      <trkpt lat="45.29033" lon="5.85159">
        <ele>956</ele>
        <time>2010-03-18T12:54:48.02</time>
      </trkpt>
      <trkpt lat="45.29035" lon="5.85161">
        <ele>956</ele>
        <time>2010-03-18T12:55:04.00</time>
      </trkpt>
      <trkpt lat="45.29034" lon="5.85161">
        <ele>956</ele>
        <time>2010-03-18T12:55:19.07</time>
      </trkpt>
      <trkpt lat="45.29035" lon="5.85161">
        <ele>956</ele>
        <time>2010-03-18T12:55:29.98</time>
      </trkpt>
      <trkpt lat="45.2903" lon="5.85168">
        <ele>950</ele>
        <time>2010-03-18T12:55:39.98</time>
      </trkpt>
      <trkpt lat="45.29028" lon="5.8517">
        <ele>950</ele>
        <time>2010-03-18T12:55:49.98</time>
      </trkpt>
      <trkpt lat="45.29028" lon="5.85171">
        <ele>950</ele>
        <time>2010-03-18T12:55:59.97</time>
      </trkpt>
      <trkpt lat="45.29035" lon="5.85175">
        <ele>951</ele>
        <time>2010-03-18T12:56:10.96</time>
      </trkpt>
      <trkpt lat="45.29034" lon="5.85179">
        <ele>950</ele>
        <time>2010-03-18T12:56:22.95</time>
      </trkpt>
      <trkpt lat="45.29036" lon="5.85186">
        <ele>951</ele>
        <time>2010-03-18T12:56:32.96</time>
      </trkpt>
      <trkpt lat="45.29038" lon="5.85186">
        <ele>951</ele>
        <time>2010-03-18T12:56:42.95</time>
      </trkpt>
      <trkpt lat="45.29039" lon="5.85189">
        <ele>951</ele>
        <time>2010-03-18T12:56:52.95</time>
      </trkpt>
      <trkpt lat="45.29039" lon="5.85188">
        <ele>951</ele>
        <time>2010-03-18T12:57:02.95</time>
      </trkpt>
      <trkpt lat="45.29036" lon="5.85191">
        <ele>951</ele>
        <time>2010-03-18T12:57:12.94</time>
      </trkpt>
      <trkpt lat="45.29038" lon="5.85195">
        <ele>951</ele>
        <time>2010-03-18T12:57:22.94</time>
      </trkpt>
      <trkpt lat="45.29055" lon="5.85224">
        <ele>951</ele>
        <time>2010-03-18T12:57:34.93</time>
      </trkpt>
      <trkpt lat="45.29061" lon="5.85223">
        <ele>951</ele>
        <time>2010-03-18T12:57:44.93</time>
      </trkpt>
      <trkpt lat="45.29064" lon="5.85221">
        <ele>951</ele>
        <time>2010-03-18T12:57:55.92</time>
      </trkpt>
      <trkpt lat="45.29067" lon="5.85223">
        <ele>951</ele>
        <time>2010-03-18T12:58:05.92</time>
      </trkpt>
      <trkpt lat="45.29071" lon="5.85226">
        <ele>951</ele>
        <time>2010-03-18T12:58:15.92</time>
      </trkpt>
      <trkpt lat="45.29071" lon="5.85233">
        <ele>951</ele>
        <time>2010-03-18T12:58:25.91</time>
      </trkpt>
      <trkpt lat="45.29071" lon="5.85231">
        <ele>951</ele>
        <time>2010-03-18T12:58:35.90</time>
      </trkpt>
      <trkpt lat="45.29071" lon="5.85225">
        <ele>952</ele>
        <time>2010-03-18T12:58:45.90</time>
      </trkpt>
      <trkpt lat="45.29067" lon="5.85226">
        <ele>951</ele>
        <time>2010-03-18T12:58:55.90</time>
      </trkpt>
      <trkpt lat="45.29066" lon="5.85234">
        <ele>951</ele>
        <time>2010-03-18T12:59:06.90</time>
      </trkpt>
      <trkpt lat="45.29058" lon="5.85235">
        <ele>951</ele>
        <time>2010-03-18T12:59:17.90</time>
      </trkpt>
      <trkpt lat="45.29058" lon="5.85238">
        <ele>951</ele>
        <time>2010-03-18T12:59:27.89</time>
      </trkpt>
      <trkpt lat="45.29057" lon="5.8524">
        <ele>951</ele>
        <time>2010-03-18T12:59:37.89</time>
      </trkpt>
      <trkpt lat="45.29056" lon="5.85243">
        <ele>951</ele>
        <time>2010-03-18T12:59:47.89</time>
      </trkpt>
      <trkpt lat="45.29052" lon="5.85249">
        <ele>950</ele>
        <time>2010-03-18T12:59:57.89</time>
      </trkpt>
      <trkpt lat="45.29037" lon="5.85247">
        <ele>949</ele>
        <time>2010-03-18T13:00:08.88</time>
      </trkpt>
      <trkpt lat="45.29025" lon="5.8525">
        <ele>948</ele>
        <time>2010-03-18T13:00:19.88</time>
      </trkpt>
      <trkpt lat="45.29006" lon="5.85252">
        <ele>946</ele>
        <time>2010-03-18T13:00:32.88</time>
      </trkpt>
      <trkpt lat="45.28996" lon="5.8526">
        <ele>944</ele>
        <time>2010-03-18T13:00:42.88</time>
      </trkpt>
      <trkpt lat="45.2897" lon="5.85278">
        <ele>943</ele>
        <time>2010-03-18T13:00:53.88</time>
      </trkpt>
      <trkpt lat="45.28925" lon="5.85331">
        <ele>942</ele>
        <time>2010-03-18T13:01:05.87</time>
      </trkpt>
      <trkpt lat="45.28872" lon="5.85306">
        <ele>927</ele>
        <time>2010-03-18T13:01:16.87</time>
      </trkpt>
      <trkpt lat="45.28872" lon="5.85344">
        <ele>934</ele>
        <time>2010-03-18T13:01:27.86</time>
      </trkpt>
      <trkpt lat="45.28843" lon="5.85345">
        <ele>929</ele>
        <time>2010-03-18T13:01:38.86</time>
      </trkpt>
      <trkpt lat="45.28762" lon="5.85344">
        <ele>913</ele>
        <time>2010-03-18T13:01:52.85</time>
      </trkpt>
      <trkpt lat="45.28695" lon="5.85338">
        <ele>908</ele>
        <time>2010-03-18T13:02:06.85</time>
      </trkpt>
      <trkpt lat="45.28626" lon="5.85335">
        <ele>895</ele>
        <time>2010-03-18T13:02:20.85</time>
      </trkpt>
      <trkpt lat="45.28557" lon="5.85416">
        <ele>876</ele>
        <time>2010-03-18T13:02:33.85</time>
      </trkpt>
      <trkpt lat="45.28462" lon="5.85596">
        <ele>875</ele>
        <time>2010-03-18T13:02:50.85</time>
      </trkpt>
      <trkpt lat="45.28456" lon="5.85631">
        <ele>881</ele>
        <time>2010-03-18T13:03:03.84</time>
      </trkpt>
      <trkpt lat="45.28451" lon="5.85658">
        <ele>885</ele>
        <time>2010-03-18T13:03:13.84</time>
      </trkpt>
      <trkpt lat="45.28453" lon="5.85674">
        <ele>912</ele>
        <time>2010-03-18T13:03:25.84</time>
      </trkpt>
      <trkpt lat="45.28451" lon="5.8568">
        <ele>912</ele>
        <time>2010-03-18T13:03:35.83</time>
      </trkpt>
      <trkpt lat="45.28453" lon="5.85685">
        <ele>914</ele>
        <time>2010-03-18T13:03:45.83</time>
      </trkpt>
      <trkpt lat="45.28435" lon="5.85699">
        <ele>913</ele>
        <time>2010-03-18T13:03:55.83</time>
      </trkpt>
      <trkpt lat="45.28423" lon="5.85725">
        <ele>920</ele>
        <time>2010-03-18T13:04:07.83</time>
      </trkpt>
      <trkpt lat="45.2842" lon="5.8579">
        <ele>939</ele>
        <time>2010-03-18T13:04:23.82</time>
      </trkpt>
      <trkpt lat="45.28411" lon="5.85832">
        <ele>924</ele>
        <time>2010-03-18T13:04:36.81</time>
      </trkpt>
      <trkpt lat="45.28406" lon="5.8585">
        <ele>887</ele>
        <time>2010-03-18T13:04:51.79</time>
      </trkpt>
      <trkpt lat="45.28405" lon="5.85891">
        <ele>874</ele>
        <time>2010-03-18T13:05:01.81</time>
      </trkpt>
      <trkpt lat="45.28406" lon="5.85899">
        <ele>882</ele>
        <time>2010-03-18T13:05:11.81</time>
      </trkpt>
      <trkpt lat="45.28408" lon="5.85902">
        <ele>889</ele>
        <time>2010-03-18T13:05:21.81</time>
      </trkpt>
      <trkpt lat="45.28406" lon="5.85915">
        <ele>901</ele>
        <time>2010-03-18T13:05:32.80</time>
      </trkpt>
      <trkpt lat="45.28409" lon="5.85919">
        <ele>899</ele>
        <time>2010-03-18T13:05:42.80</time>
      </trkpt>
      <trkpt lat="45.28414" lon="5.85927">
        <ele>888</ele>
        <time>2010-03-18T13:05:52.80</time>
      </trkpt>
      <trkpt lat="45.28409" lon="5.85918">
        <ele>898</ele>
        <time>2010-03-18T13:06:03.78</time>
      </trkpt>
      <trkpt lat="45.28439" lon="5.85934">
        <ele>939</ele>
        <time>2010-03-18T13:06:16.79</time>
      </trkpt>
      <trkpt lat="45.28424" lon="5.85924">
        <ele>939</ele>
        <time>2010-03-18T13:06:27.78</time>
      </trkpt>
      <trkpt lat="45.28419" lon="5.85933">
        <ele>939</ele>
        <time>2010-03-18T13:06:39.78</time>
      </trkpt>
      <trkpt lat="45.28428" lon="5.85934">
        <ele>939</ele>
        <time>2010-03-18T13:06:49.78</time>
      </trkpt>
      <trkpt lat="45.28433" lon="5.85933">
        <ele>939</ele>
        <time>2010-03-18T13:06:59.78</time>
      </trkpt>
      <trkpt lat="45.28436" lon="5.85928">
        <ele>939</ele>
        <time>2010-03-18T13:07:09.78</time>
      </trkpt>
      <trkpt lat="45.28429" lon="5.85925">
        <ele>939</ele>
        <time>2010-03-18T13:07:20.77</time>
      </trkpt>
      <trkpt lat="45.28426" lon="5.85926">
        <ele>939</ele>
        <time>2010-03-18T13:07:31.77</time>
      </trkpt>
      <trkpt lat="45.2843" lon="5.85927">
        <ele>939</ele>
        <time>2010-03-18T13:07:41.77</time>
      </trkpt>
      <trkpt lat="45.28432" lon="5.85927">
        <ele>939</ele>
        <time>2010-03-18T13:07:52.77</time>
      </trkpt>
      <trkpt lat="45.28433" lon="5.85929">
        <ele>939</ele>
        <time>2010-03-18T13:08:03.76</time>
      </trkpt>
      <trkpt lat="45.28429" lon="5.85929">
        <ele>939</ele>
        <time>2010-03-18T13:08:13.76</time>
      </trkpt>
      <trkpt lat="45.28422" lon="5.85926">
        <ele>939</ele>
        <time>2010-03-18T13:08:25.76</time>
      </trkpt>
      <trkpt lat="45.28418" lon="5.85926">
        <ele>939</ele>
        <time>2010-03-18T13:08:36.76</time>
      </trkpt>
      <trkpt lat="45.28428" lon="5.85933">
        <ele>939</ele>
        <time>2010-03-18T13:08:46.76</time>
      </trkpt>
      <trkpt lat="45.28463" lon="5.8593">
        <ele>939</ele>
        <time>2010-03-18T13:09:12.73</time>
      </trkpt>
      <trkpt lat="45.28436" lon="5.85931">
        <ele>939</ele>
        <time>2010-03-18T13:09:29.73</time>
      </trkpt>
      <trkpt lat="45.28432" lon="5.85917">
        <ele>941</ele>
        <time>2010-03-18T13:09:39.73</time>
      </trkpt>
      <trkpt lat="45.28428" lon="5.85913">
        <ele>940</ele>
        <time>2010-03-18T13:09:50.73</time>
      </trkpt>
      <trkpt lat="45.28427" lon="5.85914">
        <ele>940</ele>
        <time>2010-03-18T13:10:00.73</time>
      </trkpt>
      <trkpt lat="45.28426" lon="5.85923">
        <ele>939</ele>
        <time>2010-03-18T13:10:10.73</time>
      </trkpt>
      <trkpt lat="45.28433" lon="5.85927">
        <ele>939</ele>
        <time>2010-03-18T13:10:21.73</time>
      </trkpt>
      <trkpt lat="45.28439" lon="5.85927">
        <ele>939</ele>
        <time>2010-03-18T13:10:31.72</time>
      </trkpt>
      <trkpt lat="45.28441" lon="5.85923">
        <ele>939</ele>
        <time>2010-03-18T13:10:41.72</time>
      </trkpt>
      <trkpt lat="45.28447" lon="5.85922">
        <ele>939</ele>
        <time>2010-03-18T13:10:52.72</time>
      </trkpt>
      <trkpt lat="45.2845" lon="5.85922">
        <ele>939</ele>
        <time>2010-03-18T13:11:02.71</time>
      </trkpt>
      <trkpt lat="45.28448" lon="5.85925">
        <ele>939</ele>
        <time>2010-03-18T13:11:12.72</time>
      </trkpt>
      <trkpt lat="45.28449" lon="5.85927">
        <ele>939</ele>
        <time>2010-03-18T13:11:23.71</time>
      </trkpt>
      <trkpt lat="45.28444" lon="5.85927">
        <ele>939</ele>
        <time>2010-03-18T13:11:36.71</time>
      </trkpt>
      <trkpt lat="45.28441" lon="5.85928">
        <ele>939</ele>
        <time>2010-03-18T13:11:49.71</time>
      </trkpt>
      <trkpt lat="45.2844" lon="5.85925">
        <ele>939</ele>
        <time>2010-03-18T13:12:00.70</time>
      </trkpt>
      <trkpt lat="45.28434" lon="5.85921">
        <ele>939</ele>
        <time>2010-03-18T13:12:12.70</time>
      </trkpt>
      <trkpt lat="45.28441" lon="5.85925">
        <ele>939</ele>
        <time>2010-03-18T13:12:22.70</time>
      </trkpt>
      <trkpt lat="45.28447" lon="5.85929">
        <ele>939</ele>
        <time>2010-03-18T13:12:34.70</time>
      </trkpt>
      <trkpt lat="45.28439" lon="5.85925">
        <ele>939</ele>
        <time>2010-03-18T13:12:48.69</time>
      </trkpt>
      <trkpt lat="45.28443" lon="5.85928">
        <ele>939</ele>
        <time>2010-03-18T13:12:58.70</time>
      </trkpt>
      <trkpt lat="45.28434" lon="5.85925">
        <ele>939</ele>
        <time>2010-03-18T13:13:09.69</time>
      </trkpt>
      <trkpt lat="45.28432" lon="5.85923">
        <ele>939</ele>
        <time>2010-03-18T13:13:19.69</time>
      </trkpt>
      <trkpt lat="45.2843" lon="5.85923">
        <ele>939</ele>
        <time>2010-03-18T13:13:30.69</time>
      </trkpt>
      <trkpt lat="45.2843" lon="5.85922">
        <ele>939</ele>
        <time>2010-03-18T13:13:40.68</time>
      </trkpt>
      <trkpt lat="45.28422" lon="5.85916">
        <ele>940</ele>
        <time>2010-03-18T13:13:52.68</time>
      </trkpt>
      <trkpt lat="45.28422" lon="5.85915">
        <ele>940</ele>
        <time>2010-03-18T13:14:02.68</time>
      </trkpt>
      <trkpt lat="45.28429" lon="5.85919">
        <ele>939</ele>
        <time>2010-03-18T13:14:12.67</time>
      </trkpt>
      <trkpt lat="45.28431" lon="5.85922">
        <ele>939</ele>
        <time>2010-03-18T13:14:24.66</time>
      </trkpt>
      <trkpt lat="45.28427" lon="5.85921">
        <ele>939</ele>
        <time>2010-03-18T13:14:34.67</time>
      </trkpt>
      <trkpt lat="45.28425" lon="5.8592">
        <ele>939</ele>
        <time>2010-03-18T13:14:44.66</time>
      </trkpt>
      <trkpt lat="45.28425" lon="5.85921">
        <ele>939</ele>
        <time>2010-03-18T13:14:55.66</time>
      </trkpt>
      <trkpt lat="45.28423" lon="5.8592">
        <ele>939</ele>
        <time>2010-03-18T13:15:06.66</time>
      </trkpt>
      <trkpt lat="45.28424" lon="5.8592">
        <ele>939</ele>
        <time>2010-03-18T13:15:17.66</time>
      </trkpt>
      <trkpt lat="45.28426" lon="5.8592">
        <ele>939</ele>
        <time>2010-03-18T13:15:27.65</time>
      </trkpt>
      <trkpt lat="45.28427" lon="5.85921">
        <ele>939</ele>
        <time>2010-03-18T13:15:37.64</time>
      </trkpt>
      <trkpt lat="45.28428" lon="5.85921">
        <ele>939</ele>
        <time>2010-03-18T13:15:47.65</time>
      </trkpt>
      <trkpt lat="45.28433" lon="5.85924">
        <ele>939</ele>
        <time>2010-03-18T13:15:57.64</time>
      </trkpt>
      <trkpt lat="45.2842" lon="5.85916">
        <ele>939</ele>
        <time>2010-03-18T13:16:10.64</time>
      </trkpt>
      <trkpt lat="45.28409" lon="5.85909">
        <ele>901</ele>
        <time>2010-03-18T13:16:23.64</time>
      </trkpt>
      <trkpt lat="45.28432" lon="5.8591">
        <ele>941</ele>
        <time>2010-03-18T13:16:41.63</time>
      </trkpt>
      <trkpt lat="45.28427" lon="5.85917">
        <ele>939</ele>
        <time>2010-03-18T13:16:52.62</time>
      </trkpt>
      <trkpt lat="45.28426" lon="5.8592">
        <ele>939</ele>
        <time>2010-03-18T13:17:02.63</time>
      </trkpt>
      <trkpt lat="45.28435" lon="5.85927">
        <ele>939</ele>
        <time>2010-03-18T13:17:17.63</time>
      </trkpt>
      <trkpt lat="45.28434" lon="5.85919">
        <ele>939</ele>
        <time>2010-03-18T13:17:29.62</time>
      </trkpt>
      <trkpt lat="45.2843" lon="5.85922">
        <ele>939</ele>
        <time>2010-03-18T13:17:40.62</time>
      </trkpt>
      <trkpt lat="45.28427" lon="5.85909">
        <ele>940</ele>
        <time>2010-03-18T13:18:04.62</time>
      </trkpt>
      <trkpt lat="45.28425" lon="5.85914">
        <ele>940</ele>
        <time>2010-03-18T13:18:15.62</time>
      </trkpt>
      <trkpt lat="45.28427" lon="5.8592">
        <ele>939</ele>
        <time>2010-03-18T13:18:25.61</time>
      </trkpt>
      <trkpt lat="45.2843" lon="5.85921">
        <ele>939</ele>
        <time>2010-03-18T13:18:35.61</time>
      </trkpt>
      <trkpt lat="45.28431" lon="5.85923">
        <ele>939</ele>
        <time>2010-03-18T13:18:45.61</time>
      </trkpt>
      <trkpt lat="45.28437" lon="5.85926">
        <ele>939</ele>
        <time>2010-03-18T13:18:55.60</time>
      </trkpt>
      <trkpt lat="45.28437" lon="5.85922">
        <ele>939</ele>
        <time>2010-03-18T13:19:05.60</time>
      </trkpt>
      <trkpt lat="45.28442" lon="5.85921">
        <ele>939</ele>
        <time>2010-03-18T13:19:15.60</time>
      </trkpt>
      <trkpt lat="45.28442" lon="5.85921">
        <ele>939</ele>
        <time>2010-03-18T13:19:27.60</time>
      </trkpt>
      <trkpt lat="45.28436" lon="5.85922">
        <ele>939</ele>
        <time>2010-03-18T13:19:37.59</time>
      </trkpt>
      <trkpt lat="45.28431" lon="5.85922">
        <ele>939</ele>
        <time>2010-03-18T13:19:47.59</time>
      </trkpt>
      <trkpt lat="45.28427" lon="5.85923">
        <ele>939</ele>
        <time>2010-03-18T13:19:57.58</time>
      </trkpt>
      <trkpt lat="45.28422" lon="5.85926">
        <ele>939</ele>
        <time>2010-03-18T13:20:08.58</time>
      </trkpt>
      <trkpt lat="45.28421" lon="5.85927">
        <ele>939</ele>
        <time>2010-03-18T13:20:18.58</time>
      </trkpt>
      <trkpt lat="45.28421" lon="5.85927">
        <ele>939</ele>
        <time>2010-03-18T13:20:28.58</time>
      </trkpt>
      <trkpt lat="45.28422" lon="5.85928">
        <ele>939</ele>
        <time>2010-03-18T13:20:38.57</time>
      </trkpt>
      <trkpt lat="45.28424" lon="5.85929">
        <ele>939</ele>
        <time>2010-03-18T13:20:48.57</time>
      </trkpt>
      <trkpt lat="45.28419" lon="5.85941">
        <ele>939</ele>
        <time>2010-03-18T13:20:59.57</time>
      </trkpt>
      <trkpt lat="45.28424" lon="5.8596">
        <ele>939</ele>
        <time>2010-03-18T13:21:22.56</time>
      </trkpt>
      <trkpt lat="45.28426" lon="5.85957">
        <ele>939</ele>
        <time>2010-03-18T13:21:32.56</time>
      </trkpt>
      <trkpt lat="45.28427" lon="5.8595">
        <ele>939</ele>
        <time>2010-03-18T13:21:42.56</time>
      </trkpt>
      <trkpt lat="45.28424" lon="5.85957">
        <ele>939</ele>
        <time>2010-03-18T13:21:53.55</time>
      </trkpt>
      <trkpt lat="45.28426" lon="5.85955">
        <ele>939</ele>
        <time>2010-03-18T13:22:03.55</time>
      </trkpt>
      <trkpt lat="45.28424" lon="5.85951">
        <ele>939</ele>
        <time>2010-03-18T13:22:13.54</time>
      </trkpt>
      <trkpt lat="45.28427" lon="5.85944">
        <ele>939</ele>
        <time>2010-03-18T13:22:24.55</time>
      </trkpt>
      <trkpt lat="45.28425" lon="5.85941">
        <ele>939</ele>
        <time>2010-03-18T13:22:34.54</time>
      </trkpt>
      <trkpt lat="45.28418" lon="5.85934">
        <ele>939</ele>
        <time>2010-03-18T13:22:47.54</time>
      </trkpt>
      <trkpt lat="45.28417" lon="5.85927">
        <ele>939</ele>
        <time>2010-03-18T13:22:57.53</time>
      </trkpt>
      <trkpt lat="45.28419" lon="5.85924">
        <ele>939</ele>
        <time>2010-03-18T13:23:07.53</time>
      </trkpt>
      <trkpt lat="45.28423" lon="5.85923">
        <ele>939</ele>
        <time>2010-03-18T13:23:17.53</time>
      </trkpt>
      <trkpt lat="45.28424" lon="5.85928">
        <ele>939</ele>
        <time>2010-03-18T13:23:28.52</time>
      </trkpt>
      <trkpt lat="45.28425" lon="5.85928">
        <ele>939</ele>
        <time>2010-03-18T13:23:39.52</time>
      </trkpt>
      <trkpt lat="45.2842" lon="5.85924">
        <ele>939</ele>
        <time>2010-03-18T13:23:51.51</time>
      </trkpt>
      <trkpt lat="45.28435" lon="5.85934">
        <ele>939</ele>
        <time>2010-03-18T13:24:02.51</time>
      </trkpt>
      <trkpt lat="45.28423" lon="5.85927">
        <ele>939</ele>
        <time>2010-03-18T13:24:14.51</time>
      </trkpt>
      <trkpt lat="45.28424" lon="5.85929">
        <ele>939</ele>
        <time>2010-03-18T13:24:24.50</time>
      </trkpt>
      <trkpt lat="45.28419" lon="5.85929">
        <ele>939</ele>
        <time>2010-03-18T13:24:34.50</time>
      </trkpt>
      <trkpt lat="45.28417" lon="5.8593">
        <ele>939</ele>
        <time>2010-03-18T13:24:44.50</time>
      </trkpt>
      <trkpt lat="45.28421" lon="5.8593">
        <ele>939</ele>
        <time>2010-03-18T13:24:55.50</time>
      </trkpt>
      <trkpt lat="45.28428" lon="5.8593">
        <ele>939</ele>
        <time>2010-03-18T13:25:06.49</time>
      </trkpt>
      <trkpt lat="45.28423" lon="5.85927">
        <ele>939</ele>
        <time>2010-03-18T13:25:16.49</time>
      </trkpt>
      <trkpt lat="45.28421" lon="5.85925">
        <ele>939</ele>
        <time>2010-03-18T13:25:26.49</time>
      </trkpt>
      <trkpt lat="45.28429" lon="5.85928">
        <ele>939</ele>
        <time>2010-03-18T13:25:36.49</time>
      </trkpt>
      <trkpt lat="45.28436" lon="5.85924">
        <ele>939</ele>
        <time>2010-03-18T13:25:47.48</time>
      </trkpt>
      <trkpt lat="45.28437" lon="5.85923">
        <ele>939</ele>
        <time>2010-03-18T13:25:57.48</time>
      </trkpt>
      <trkpt lat="45.28436" lon="5.85924">
        <ele>939</ele>
        <time>2010-03-18T13:26:07.48</time>
      </trkpt>
      <trkpt lat="45.28433" lon="5.85927">
        <ele>939</ele>
        <time>2010-03-18T13:26:17.49</time>
      </trkpt>
      <trkpt lat="45.28433" lon="5.85928">
        <ele>939</ele>
        <time>2010-03-18T13:26:27.47</time>
      </trkpt>
      <trkpt lat="45.28433" lon="5.85929">
        <ele>939</ele>
        <time>2010-03-18T13:26:37.47</time>
      </trkpt>
      <trkpt lat="45.28433" lon="5.8593">
        <ele>939</ele>
        <time>2010-03-18T13:26:47.47</time>
      </trkpt>
      <trkpt lat="45.28432" lon="5.85931">
        <ele>939</ele>
        <time>2010-03-18T13:26:58.47</time>
      </trkpt>
      <trkpt lat="45.28431" lon="5.85935">
        <ele>939</ele>
        <time>2010-03-18T13:27:09.45</time>
      </trkpt>
      <trkpt lat="45.28429" lon="5.85936">
        <ele>939</ele>
        <time>2010-03-18T13:27:20.46</time>
      </trkpt>
      <trkpt lat="45.28427" lon="5.85938">
        <ele>939</ele>
        <time>2010-03-18T13:27:30.45</time>
      </trkpt>
      <trkpt lat="45.28426" lon="5.85942">
        <ele>939</ele>
        <time>2010-03-18T13:27:40.45</time>
      </trkpt>
      <trkpt lat="45.2843" lon="5.85938">
        <ele>939</ele>
        <time>2010-03-18T13:27:50.45</time>
      </trkpt>
      <trkpt lat="45.28429" lon="5.85934">
        <ele>939</ele>
        <time>2010-03-18T13:28:00.44</time>
      </trkpt>
      <trkpt lat="45.28427" lon="5.85932">
        <ele>939</ele>
        <time>2010-03-18T13:28:10.44</time>
      </trkpt>
      <trkpt lat="45.28432" lon="5.85928">
        <ele>939</ele>
        <time>2010-03-18T13:28:21.44</time>
      </trkpt>
      <trkpt lat="45.28434" lon="5.85931">
        <ele>939</ele>
        <time>2010-03-18T13:28:32.44</time>
      </trkpt>
      <trkpt lat="45.28435" lon="5.85932">
        <ele>939</ele>
        <time>2010-03-18T13:28:42.43</time>
      </trkpt>
      <trkpt lat="45.28418" lon="5.85914">
        <ele>939</ele>
        <time>2010-03-18T13:28:55.43</time>
      </trkpt>
      <trkpt lat="45.28416" lon="5.85928">
        <ele>888</ele>
        <time>2010-03-18T13:29:06.43</time>
      </trkpt>
      <trkpt lat="45.28418" lon="5.8593">
        <ele>939</ele>
        <time>2010-03-18T13:29:16.43</time>
      </trkpt>
      <trkpt lat="45.28419" lon="5.85933">
        <ele>939</ele>
        <time>2010-03-18T13:29:26.42</time>
      </trkpt>
      <trkpt lat="45.28415" lon="5.85931">
        <ele>877</ele>
        <time>2010-03-18T13:29:36.42</time>
      </trkpt>
      <trkpt lat="45.28415" lon="5.85931">
        <ele>879</ele>
        <time>2010-03-18T13:29:46.42</time>
      </trkpt>
      <trkpt lat="45.28417" lon="5.85931">
        <ele>939</ele>
        <time>2010-03-18T13:29:56.41</time>
      </trkpt>
      <trkpt lat="45.28418" lon="5.85929">
        <ele>939</ele>
        <time>2010-03-18T13:30:07.41</time>
      </trkpt>
      <trkpt lat="45.28419" lon="5.85929">
        <ele>939</ele>
        <time>2010-03-18T13:30:17.42</time>
      </trkpt>
      <trkpt lat="45.28421" lon="5.85932">
        <ele>939</ele>
        <time>2010-03-18T13:30:27.41</time>
      </trkpt>
      <trkpt lat="45.2842" lon="5.85932">
        <ele>939</ele>
        <time>2010-03-18T13:30:37.41</time>
      </trkpt>
      <trkpt lat="45.28427" lon="5.85926">
        <ele>939</ele>
        <time>2010-03-18T13:30:48.40</time>
      </trkpt>
      <trkpt lat="45.28425" lon="5.85929">
        <ele>939</ele>
        <time>2010-03-18T13:30:58.40</time>
      </trkpt>
      <trkpt lat="45.28425" lon="5.85929">
        <ele>939</ele>
        <time>2010-03-18T13:31:08.40</time>
      </trkpt>
      <trkpt lat="45.28424" lon="5.85929">
        <ele>939</ele>
        <time>2010-03-18T13:31:18.40</time>
      </trkpt>
      <trkpt lat="45.28423" lon="5.85929">
        <ele>939</ele>
        <time>2010-03-18T13:31:28.40</time>
      </trkpt>
      <trkpt lat="45.28419" lon="5.85928">
        <ele>939</ele>
        <time>2010-03-18T13:31:39.39</time>
      </trkpt>
      <trkpt lat="45.28419" lon="5.85926">
        <ele>939</ele>
        <time>2010-03-18T13:31:49.39</time>
      </trkpt>
      <trkpt lat="45.28418" lon="5.85931">
        <ele>939</ele>
        <time>2010-03-18T13:32:00.38</time>
      </trkpt>
      <trkpt lat="45.28407" lon="5.85931">
        <ele>866</ele>
        <time>2010-03-18T13:32:12.38</time>
      </trkpt>
      <trkpt lat="45.28402" lon="5.8591">
        <ele>886</ele>
        <time>2010-03-18T13:32:24.38</time>
      </trkpt>
      <trkpt lat="45.28404" lon="5.85931">
        <ele>860</ele>
        <time>2010-03-18T13:32:37.38</time>
      </trkpt>
      <trkpt lat="45.28406" lon="5.85937">
        <ele>852</ele>
        <time>2010-03-18T13:32:47.38</time>
      </trkpt>
      <trkpt lat="45.28411" lon="5.85939">
        <ele>856</ele>
        <time>2010-03-18T13:32:57.37</time>
      </trkpt>
      <trkpt lat="45.28418" lon="5.8594">
        <ele>939</ele>
        <time>2010-03-18T13:33:08.37</time>
      </trkpt>
      <trkpt lat="45.2842" lon="5.8594">
        <ele>939</ele>
        <time>2010-03-18T13:33:18.36</time>
      </trkpt>
      <trkpt lat="45.28421" lon="5.85932">
        <ele>939</ele>
        <time>2010-03-18T13:33:29.36</time>
      </trkpt>
      <trkpt lat="45.28422" lon="5.85931">
        <ele>939</ele>
        <time>2010-03-18T13:33:39.36</time>
      </trkpt>
      <trkpt lat="45.28424" lon="5.85917">
        <ele>939</ele>
        <time>2010-03-18T13:33:49.36</time>
      </trkpt>
      <trkpt lat="45.28426" lon="5.8591">
        <ele>940</ele>
        <time>2010-03-18T13:34:01.36</time>
      </trkpt>
      <trkpt lat="45.28429" lon="5.8591">
        <ele>941</ele>
        <time>2010-03-18T13:34:11.35</time>
      </trkpt>
      <trkpt lat="45.28427" lon="5.85912">
        <ele>940</ele>
        <time>2010-03-18T13:34:21.36</time>
      </trkpt>
      <trkpt lat="45.28427" lon="5.85913">
        <ele>940</ele>
        <time>2010-03-18T13:34:31.35</time>
      </trkpt>
      <trkpt lat="45.2842" lon="5.859">
        <ele>941</ele>
        <time>2010-03-18T13:34:43.35</time>
      </trkpt>
      <trkpt lat="45.28415" lon="5.85912">
        <ele>920</ele>
        <time>2010-03-18T13:34:53.35</time>
      </trkpt>
      <trkpt lat="45.2841" lon="5.85931">
        <ele>872</ele>
        <time>2010-03-18T13:35:03.34</time>
      </trkpt>
      <trkpt lat="45.28412" lon="5.85965">
        <ele>840</ele>
        <time>2010-03-18T13:35:13.34</time>
      </trkpt>
      <trkpt lat="45.28416" lon="5.85982">
        <ele>863</ele>
        <time>2010-03-18T13:35:23.34</time>
      </trkpt>
      <trkpt lat="45.28416" lon="5.8599">
        <ele>885</ele>
        <time>2010-03-18T13:35:33.34</time>
      </trkpt>
      <trkpt lat="45.28411" lon="5.86032">
        <ele>796</ele>
        <time>2010-03-18T13:35:46.34</time>
      </trkpt>
      <trkpt lat="45.28411" lon="5.86034">
        <ele>794</ele>
        <time>2010-03-18T13:35:56.34</time>
      </trkpt>
      <trkpt lat="45.28424" lon="5.86038">
        <ele>910</ele>
        <time>2010-03-18T13:36:07.34</time>
      </trkpt>
      <trkpt lat="45.28425" lon="5.86042">
        <ele>907</ele>
        <time>2010-03-18T13:36:17.34</time>
      </trkpt>
      <trkpt lat="45.28421" lon="5.86043">
        <ele>906</ele>
        <time>2010-03-18T13:36:29.33</time>
      </trkpt>
      <trkpt lat="45.28426" lon="5.86046">
        <ele>905</ele>
        <time>2010-03-18T13:36:39.33</time>
      </trkpt>
      <trkpt lat="45.28429" lon="5.86049">
        <ele>903</ele>
        <time>2010-03-18T13:36:49.33</time>
      </trkpt>
      <trkpt lat="45.2843" lon="5.8605">
        <ele>903</ele>
        <time>2010-03-18T13:36:59.33</time>
      </trkpt>
      <trkpt lat="45.2843" lon="5.86051">
        <ele>903</ele>
        <time>2010-03-18T13:37:09.33</time>
      </trkpt>
      <trkpt lat="45.28431" lon="5.8605">
        <ele>903</ele>
        <time>2010-03-18T13:37:19.32</time>
      </trkpt>
      <trkpt lat="45.28432" lon="5.86051">
        <ele>903</ele>
        <time>2010-03-18T13:37:29.32</time>
      </trkpt>
      <trkpt lat="45.28438" lon="5.86048">
        <ele>906</ele>
        <time>2010-03-18T13:37:39.32</time>
      </trkpt>
      <trkpt lat="45.28437" lon="5.86049">
        <ele>906</ele>
        <time>2010-03-18T13:37:49.32</time>
      </trkpt>
      <trkpt lat="45.28433" lon="5.86017">
        <ele>921</ele>
        <time>2010-03-18T13:37:59.32</time>
      </trkpt>
      <trkpt lat="45.28426" lon="5.85982">
        <ele>938</ele>
        <time>2010-03-18T13:38:10.31</time>
      </trkpt>
      <trkpt lat="45.28416" lon="5.85981">
        <ele>862</ele>
        <time>2010-03-18T13:38:21.31</time>
      </trkpt>
      <trkpt lat="45.28408" lon="5.85971">
        <ele>840</ele>
        <time>2010-03-18T13:38:33.31</time>
      </trkpt>
      <trkpt lat="45.28402" lon="5.85939">
        <ele>844</ele>
        <time>2010-03-18T13:38:43.30</time>
      </trkpt>
      <trkpt lat="45.28398" lon="5.85915">
        <ele>881</ele>
        <time>2010-03-18T13:38:53.29</time>
      </trkpt>
      <trkpt lat="45.28394" lon="5.85893">
        <ele>861</ele>
        <time>2010-03-18T13:39:03.30</time>
      </trkpt>
      <trkpt lat="45.28393" lon="5.85866">
        <ele>860</ele>
        <time>2010-03-18T13:39:15.29</time>
      </trkpt>
      <trkpt lat="45.2839" lon="5.85835">
        <ele>869</ele>
        <time>2010-03-18T13:39:27.29</time>
      </trkpt>
      <trkpt lat="45.28393" lon="5.85796">
        <ele>879</ele>
        <time>2010-03-18T13:39:38.29</time>
      </trkpt>
      <trkpt lat="45.28402" lon="5.85748">
        <ele>898</ele>
        <time>2010-03-18T13:39:50.29</time>
      </trkpt>
      <trkpt lat="45.28406" lon="5.8573">
        <ele>889</ele>
        <time>2010-03-18T13:40:02.28</time>
      </trkpt>
      <trkpt lat="45.28407" lon="5.85713">
        <ele>879</ele>
        <time>2010-03-18T13:40:14.28</time>
      </trkpt>
      <trkpt lat="45.28405" lon="5.85709">
        <ele>877</ele>
        <time>2010-03-18T13:40:24.27</time>
      </trkpt>
      <trkpt lat="45.28401" lon="5.85706">
        <ele>875</ele>
        <time>2010-03-18T13:40:34.27</time>
      </trkpt>
      <trkpt lat="45.284" lon="5.85707">
        <ele>875</ele>
        <time>2010-03-18T13:40:44.27</time>
      </trkpt>
      <trkpt lat="45.28395" lon="5.85693">
        <ele>870</ele>
        <time>2010-03-18T13:40:56.27</time>
      </trkpt>
      <trkpt lat="45.28366" lon="5.85718">
        <ele>861</ele>
        <time>2010-03-18T13:41:07.27</time>
      </trkpt>
      <trkpt lat="45.28351" lon="5.85739">
        <ele>850</ele>
        <time>2010-03-18T13:41:19.27</time>
      </trkpt>
      <trkpt lat="45.28343" lon="5.85697">
        <ele>850</ele>
        <time>2010-03-18T13:41:30.26</time>
      </trkpt>
      <trkpt lat="45.28332" lon="5.85667">
        <ele>816</ele>
        <time>2010-03-18T13:41:41.26</time>
      </trkpt>
      <trkpt lat="45.28321" lon="5.85623">
        <ele>755</ele>
        <time>2010-03-18T13:41:53.26</time>
      </trkpt>
      <trkpt lat="45.28329" lon="5.85579">
        <ele>793</ele>
        <time>2010-03-18T13:42:07.26</time>
      </trkpt>
      <trkpt lat="45.28343" lon="5.85508">
        <ele>782</ele>
        <time>2010-03-18T13:42:23.25</time>
      </trkpt>
      <trkpt lat="45.28331" lon="5.85441">
        <ele>724</ele>
        <time>2010-03-18T13:42:35.25</time>
      </trkpt>
      <trkpt lat="45.28341" lon="5.85366">
        <ele>715</ele>
        <time>2010-03-18T13:42:51.24</time>
      </trkpt>
      <trkpt lat="45.28329" lon="5.85355">
        <ele>696</ele>
        <time>2010-03-18T13:43:01.24</time>
      </trkpt>
      <trkpt lat="45.28289" lon="5.85363">
        <ele>698</ele>
        <time>2010-03-18T13:43:15.24</time>
      </trkpt>
      <trkpt lat="45.28278" lon="5.85368">
        <ele>698</ele>
        <time>2010-03-18T13:43:25.24</time>
      </trkpt>
      <trkpt lat="45.28276" lon="5.85333">
        <ele>680</ele>
        <time>2010-03-18T13:43:37.23</time>
      </trkpt>
      <trkpt lat="45.28302" lon="5.85309">
        <ele>677</ele>
        <time>2010-03-18T13:43:52.23</time>
      </trkpt>
      <trkpt lat="45.28279" lon="5.85275">
        <ele>669</ele>
        <time>2010-03-18T13:44:04.22</time>
      </trkpt>
      <trkpt lat="45.28275" lon="5.85269">
        <ele>667</ele>
        <time>2010-03-18T13:44:14.22</time>
      </trkpt>
      <trkpt lat="45.28271" lon="5.85269">
        <ele>666</ele>
        <time>2010-03-18T13:44:24.22</time>
      </trkpt>
      <trkpt lat="45.28269" lon="5.85267">
        <ele>666</ele>
        <time>2010-03-18T13:44:34.22</time>
      </trkpt>
      <trkpt lat="45.28262" lon="5.85266">
        <ele>664</ele>
        <time>2010-03-18T13:44:46.22</time>
      </trkpt>
      <trkpt lat="45.28254" lon="5.85264">
        <ele>661</ele>
        <time>2010-03-18T13:44:57.21</time>
      </trkpt>
      <trkpt lat="45.28253" lon="5.85265">
        <ele>662</ele>
        <time>2010-03-18T13:45:07.21</time>
      </trkpt>
      <trkpt lat="45.28252" lon="5.85266">
        <ele>662</ele>
        <time>2010-03-18T13:45:17.21</time>
      </trkpt>
      <trkpt lat="45.28252" lon="5.85268">
        <ele>663</ele>
        <time>2010-03-18T13:45:27.21</time>
      </trkpt>
      <trkpt lat="45.28253" lon="5.85268">
        <ele>663</ele>
        <time>2010-03-18T13:45:37.20</time>
      </trkpt>
      <trkpt lat="45.28253" lon="5.85268">
        <ele>663</ele>
        <time>2010-03-18T13:45:47.20</time>
      </trkpt>
      <trkpt lat="45.28253" lon="5.85267">
        <ele>663</ele>
        <time>2010-03-18T13:45:57.20</time>
      </trkpt>
      <trkpt lat="45.28252" lon="5.85269">
        <ele>664</ele>
        <time>2010-03-18T13:46:07.20</time>
      </trkpt>
      <trkpt lat="45.28247" lon="5.85272">
        <ele>618</ele>
        <time>2010-03-18T13:46:17.19</time>
      </trkpt>
      <trkpt lat="45.28249" lon="5.85271">
        <ele>619</ele>
        <time>2010-03-18T13:46:27.19</time>
      </trkpt>
      <trkpt lat="45.28248" lon="5.85243">
        <ele>641</ele>
        <time>2010-03-18T13:46:40.18</time>
      </trkpt>
      <trkpt lat="45.28248" lon="5.85227">
        <ele>630</ele>
        <time>2010-03-18T13:46:52.18</time>
      </trkpt>
      <trkpt lat="45.28235" lon="5.85213">
        <ele>623</ele>
        <time>2010-03-18T13:47:02.18</time>
      </trkpt>
      <trkpt lat="45.28229" lon="5.85207">
        <ele>622</ele>
        <time>2010-03-18T13:47:12.18</time>
      </trkpt>
      <trkpt lat="45.28206" lon="5.85216">
        <ele>612</ele>
        <time>2010-03-18T13:47:25.18</time>
      </trkpt>
      <trkpt lat="45.28199" lon="5.85228">
        <ele>604</ele>
        <time>2010-03-18T13:47:35.17</time>
      </trkpt>
      <trkpt lat="45.28192" lon="5.85251">
        <ele>568</ele>
        <time>2010-03-18T13:47:46.17</time>
      </trkpt>
      <trkpt lat="45.28166" lon="5.85258">
        <ele>518</ele>
        <time>2010-03-18T13:48:00.17</time>
      </trkpt>
      <trkpt lat="45.28157" lon="5.85348">
        <ele>441</ele>
        <time>2010-03-18T13:48:21.16</time>
      </trkpt>
      <trkpt lat="45.28133" lon="5.85375">
        <ele>440</ele>
        <time>2010-03-18T13:48:35.17</time>
      </trkpt>
      <trkpt lat="45.28093" lon="5.8539">
        <ele>442</ele>
        <time>2010-03-18T13:49:03.15</time>
      </trkpt>
      <trkpt lat="45.28093" lon="5.85436">
        <ele>458</ele>
        <time>2010-03-18T13:49:20.15</time>
      </trkpt>
      <trkpt lat="45.28088" lon="5.85465">
        <ele>464</ele>
        <time>2010-03-18T13:49:32.15</time>
      </trkpt>
      <trkpt lat="45.28072" lon="5.8547">
        <ele>453</ele>
        <time>2010-03-18T13:49:42.14</time>
      </trkpt>
      <trkpt lat="45.28069" lon="5.85471">
        <ele>453</ele>
        <time>2010-03-18T13:49:52.14</time>
      </trkpt>
      <trkpt lat="45.28072" lon="5.85477">
        <ele>455</ele>
        <time>2010-03-18T13:50:02.14</time>
      </trkpt>
      <trkpt lat="45.2807" lon="5.85474">
        <ele>454</ele>
        <time>2010-03-18T13:50:13.14</time>
      </trkpt>
      <trkpt lat="45.28068" lon="5.85474">
        <ele>453</ele>
        <time>2010-03-18T13:50:24.14</time>
      </trkpt>
      <trkpt lat="45.2806" lon="5.85475">
        <ele>452</ele>
        <time>2010-03-18T13:50:35.13</time>
      </trkpt>
      <trkpt lat="45.28011" lon="5.85482">
        <ele>439</ele>
        <time>2010-03-18T13:51:11.13</time>
      </trkpt>
      <trkpt lat="45.27979" lon="5.85487">
        <ele>418</ele>
        <time>2010-03-18T13:51:24.12</time>
      </trkpt>
      <trkpt lat="45.27968" lon="5.85479">
        <ele>414</ele>
        <time>2010-03-18T13:51:35.12</time>
      </trkpt>
      <trkpt lat="45.27956" lon="5.85468">
        <ele>410</ele>
        <time>2010-03-18T13:51:48.12</time>
      </trkpt>
      <trkpt lat="45.27883" lon="5.85498">
        <ele>399</ele>
        <time>2010-03-18T13:52:08.11</time>
      </trkpt>
      <trkpt lat="45.27856" lon="5.85512">
        <ele>392</ele>
        <time>2010-03-18T13:52:20.10</time>
      </trkpt>
      <trkpt lat="45.27815" lon="5.8559">
        <ele>377</ele>
        <time>2010-03-18T13:52:48.10</time>
      </trkpt>
      <trkpt lat="45.27776" lon="5.85663">
        <ele>374</ele>
        <time>2010-03-18T13:53:08.10</time>
      </trkpt>
      <trkpt lat="45.27759" lon="5.85727">
        <ele>365</ele>
        <time>2010-03-18T13:53:31.09</time>
      </trkpt>
      <trkpt lat="45.27721" lon="5.85814">
        <ele>349</ele>
        <time>2010-03-18T13:54:16.08</time>
      </trkpt>
      <trkpt lat="45.27718" lon="5.85817">
        <ele>349</ele>
        <time>2010-03-18T13:54:48.07</time>
      </trkpt>
      <trkpt lat="45.27728" lon="5.8581">
        <ele>350</ele>
        <time>2010-03-18T13:55:42.06</time>
      </trkpt>
      <trkpt lat="45.27733" lon="5.85778">
        <ele>353</ele>
        <time>2010-03-18T13:56:44.04</time>
      </trkpt>
      <trkpt lat="45.27747" lon="5.85767">
        <ele>356</ele>
        <time>2010-03-18T13:57:03.03</time>
      </trkpt>
      <trkpt lat="45.27679" lon="5.85804">
        <ele>347</ele>
        <time>2010-03-18T13:57:26.02</time>
      </trkpt>
      <trkpt lat="45.27762" lon="5.85832">
        <ele>352</ele>
        <time>2010-03-18T13:57:51.02</time>
      </trkpt>
      <trkpt lat="45.27715" lon="5.85793">
        <ele>350</ele>
        <time>2010-03-18T13:58:14.02</time>
      </trkpt>
      <trkpt lat="45.27706" lon="5.85832">
        <ele>347</ele>
        <time>2010-03-18T13:58:30.02</time>
      </trkpt>
      <trkpt lat="45.27599" lon="5.85939">
        <ele>325</ele>
        <time>2010-03-18T14:00:56.00</time>
      </trkpt>
      <trkpt lat="45.2757" lon="5.85918">
        <ele>326</ele>
        <time>2010-03-18T14:01:09.99</time>
      </trkpt>
      <trkpt lat="45.27515" lon="5.85864">
        <ele>330</ele>
        <time>2010-03-18T14:01:28.98</time>
      </trkpt>
      <trkpt lat="45.27486" lon="5.85875">
        <ele>332</ele>
        <time>2010-03-18T14:01:39.98</time>
      </trkpt>
      <trkpt lat="45.27476" lon="5.8587">
        <ele>332</ele>
        <time>2010-03-18T14:01:50.97</time>
      </trkpt>
      <trkpt lat="45.27438" lon="5.85866">
        <ele>332</ele>
        <time>2010-03-18T14:02:03.97</time>
      </trkpt>
      <trkpt lat="45.27422" lon="5.85857">
        <ele>332</ele>
        <time>2010-03-18T14:02:16.97</time>
      </trkpt>
      <trkpt lat="45.27414" lon="5.85838">
        <ele>333</ele>
        <time>2010-03-18T14:02:28.97</time>
      </trkpt>
      <trkpt lat="45.27401" lon="5.85825">
        <ele>337</ele>
        <time>2010-03-18T14:02:38.97</time>
      </trkpt>
      <trkpt lat="45.27392" lon="5.85802">
        <ele>339</ele>
        <time>2010-03-18T14:02:48.96</time>
      </trkpt>
      <trkpt lat="45.27384" lon="5.8578">
        <ele>341</ele>
        <time>2010-03-18T14:02:58.96</time>
      </trkpt>
      <trkpt lat="45.27374" lon="5.85763">
        <ele>342</ele>
        <time>2010-03-18T14:03:08.95</time>
      </trkpt>
      <trkpt lat="45.27367" lon="5.85744">
        <ele>346</ele>
        <time>2010-03-18T14:03:18.95</time>
      </trkpt>
      <trkpt lat="45.27361" lon="5.85719">
        <ele>347</ele>
        <time>2010-03-18T14:03:28.95</time>
      </trkpt>
      <trkpt lat="45.27355" lon="5.85705">
        <ele>347</ele>
        <time>2010-03-18T14:03:38.95</time>
      </trkpt>
      <trkpt lat="45.27343" lon="5.85687">
        <ele>348</ele>
        <time>2010-03-18T14:03:48.95</time>
      </trkpt>
      <trkpt lat="45.27336" lon="5.85667">
        <ele>350</ele>
        <time>2010-03-18T14:03:58.94</time>
      </trkpt>
      <trkpt lat="45.27328" lon="5.85653">
        <ele>352</ele>
        <time>2010-03-18T14:04:08.94</time>
      </trkpt>
      <trkpt lat="45.27328" lon="5.8563">
        <ele>354</ele>
        <time>2010-03-18T14:04:18.94</time>
      </trkpt>
      <trkpt lat="45.27328" lon="5.85613">
        <ele>355</ele>
        <time>2010-03-18T14:04:28.94</time>
      </trkpt>
      <trkpt lat="45.27327" lon="5.856">
        <ele>355</ele>
        <time>2010-03-18T14:04:38.94</time>
      </trkpt>
      <trkpt lat="45.27331" lon="5.85588">
        <ele>355</ele>
        <time>2010-03-18T14:04:48.93</time>
      </trkpt>
      <trkpt lat="45.27332" lon="5.85566">
        <ele>358</ele>
        <time>2010-03-18T14:04:58.92</time>
      </trkpt>
      <trkpt lat="45.27333" lon="5.8553">
        <ele>360</ele>
        <time>2010-03-18T14:05:09.92</time>
      </trkpt>
      <trkpt lat="45.27332" lon="5.8551">
        <ele>361</ele>
        <time>2010-03-18T14:05:19.92</time>
      </trkpt>
      <trkpt lat="45.27337" lon="5.85496">
        <ele>362</ele>
        <time>2010-03-18T14:05:29.92</time>
      </trkpt>
      <trkpt lat="45.27336" lon="5.85478">
        <ele>364</ele>
        <time>2010-03-18T14:05:39.91</time>
      </trkpt>
      <trkpt lat="45.27341" lon="5.85466">
        <ele>365</ele>
        <time>2010-03-18T14:05:49.91</time>
      </trkpt>
      <trkpt lat="45.27339" lon="5.8544">
        <ele>367</ele>
        <time>2010-03-18T14:06:01.91</time>
      </trkpt>
      <trkpt lat="45.27339" lon="5.85423">
        <ele>369</ele>
        <time>2010-03-18T14:06:11.90</time>
      </trkpt>
      <trkpt lat="45.27341" lon="5.85409">
        <ele>372</ele>
        <time>2010-03-18T14:06:22.90</time>
      </trkpt>
      <trkpt lat="45.27345" lon="5.85388">
        <ele>375</ele>
        <time>2010-03-18T14:06:34.90</time>
      </trkpt>
      <trkpt lat="45.2734" lon="5.85362">
        <ele>377</ele>
        <time>2010-03-18T14:06:48.90</time>
      </trkpt>
      <trkpt lat="45.27335" lon="5.8535">
        <ele>378</ele>
        <time>2010-03-18T14:07:00.89</time>
      </trkpt>
      <trkpt lat="45.27339" lon="5.8533">
        <ele>382</ele>
        <time>2010-03-18T14:07:11.89</time>
      </trkpt>
      <trkpt lat="45.27335" lon="5.85325">
        <ele>383</ele>
        <time>2010-03-18T14:07:22.88</time>
      </trkpt>
      <trkpt lat="45.27333" lon="5.85306">
        <ele>386</ele>
        <time>2010-03-18T14:07:34.88</time>
      </trkpt>
      <trkpt lat="45.27329" lon="5.85299">
        <ele>387</ele>
        <time>2010-03-18T14:07:44.89</time>
      </trkpt>
      <trkpt lat="45.27329" lon="5.85297">
        <ele>387</ele>
        <time>2010-03-18T14:07:54.88</time>
      </trkpt>
      <trkpt lat="45.2734" lon="5.85295">
        <ele>389</ele>
        <time>2010-03-18T14:08:05.88</time>
      </trkpt>
      <trkpt lat="45.27351" lon="5.85299">
        <ele>389</ele>
        <time>2010-03-18T14:08:18.87</time>
      </trkpt>
      <trkpt lat="45.27363" lon="5.85305">
        <ele>388</ele>
        <time>2010-03-18T14:08:32.87</time>
      </trkpt>
      <trkpt lat="45.27372" lon="5.85299">
        <ele>389</ele>
        <time>2010-03-18T14:08:44.87</time>
      </trkpt>
      <trkpt lat="45.27376" lon="5.85291">
        <ele>390</ele>
        <time>2010-03-18T14:08:54.86</time>
      </trkpt>
      <trkpt lat="45.27387" lon="5.85277">
        <ele>392</ele>
        <time>2010-03-18T14:09:05.86</time>
      </trkpt>
      <trkpt lat="45.27393" lon="5.85261">
        <ele>394</ele>
        <time>2010-03-18T14:09:16.86</time>
      </trkpt>
      <trkpt lat="45.27396" lon="5.85257">
        <ele>395</ele>
        <time>2010-03-18T14:09:26.85</time>
      </trkpt>
      <trkpt lat="45.27396" lon="5.85257">
        <ele>395</ele>
        <time>2010-03-18T14:09:37.85</time>
      </trkpt>
      <trkpt lat="45.2739" lon="5.85252">
        <ele>394</ele>
        <time>2010-03-18T14:09:53.84</time>
      </trkpt>
      <trkpt lat="45.27389" lon="5.85248">
        <ele>404</ele>
        <time>2010-03-18T14:10:03.84</time>
      </trkpt>
      <trkpt lat="45.27389" lon="5.85248">
        <ele>404</ele>
        <time>2010-03-18T14:10:13.84</time>
      </trkpt>
      <trkpt lat="45.27392" lon="5.85251">
        <ele>395</ele>
        <time>2010-03-18T14:10:23.84</time>
      </trkpt>
      <trkpt lat="45.27395" lon="5.85251">
        <ele>395</ele>
        <time>2010-03-18T14:10:33.83</time>
      </trkpt>
      <trkpt lat="45.27395" lon="5.85253">
        <ele>395</ele>
        <time>2010-03-18T14:10:43.83</time>
      </trkpt>
      <trkpt lat="45.27396" lon="5.85253">
        <ele>395</ele>
        <time>2010-03-18T14:10:53.83</time>
      </trkpt>
      <trkpt lat="45.27396" lon="5.85252">
        <ele>395</ele>
        <time>2010-03-18T14:11:03.83</time>
      </trkpt>
      <trkpt lat="45.27396" lon="5.85252">
        <ele>395</ele>
        <time>2010-03-18T14:11:13.82</time>
      </trkpt>
      <trkpt lat="45.27397" lon="5.85253">
        <ele>395</ele>
        <time>2010-03-18T14:11:23.82</time>
      </trkpt>
      <trkpt lat="45.27398" lon="5.85252">
        <ele>395</ele>
        <time>2010-03-18T14:11:33.81</time>
      </trkpt>
      <trkpt lat="45.27398" lon="5.85252">
        <ele>396</ele>
        <time>2010-03-18T14:11:43.81</time>
      </trkpt>
      <trkpt lat="45.27398" lon="5.85251">
        <ele>396</ele>
        <time>2010-03-18T14:11:53.81</time>
      </trkpt>
      <trkpt lat="45.27399" lon="5.85246">
        <ele>404</ele>
        <time>2010-03-18T14:12:03.81</time>
      </trkpt>
      <trkpt lat="45.27402" lon="5.85238">
        <ele>404</ele>
        <time>2010-03-18T14:12:13.80</time>
      </trkpt>
      <trkpt lat="45.27402" lon="5.85229">
        <ele>405</ele>
        <time>2010-03-18T14:12:23.80</time>
      </trkpt>
      <trkpt lat="45.27408" lon="5.85218">
        <ele>406</ele>
        <time>2010-03-18T14:12:33.80</time>
      </trkpt>
      <trkpt lat="45.27411" lon="5.85207">
        <ele>408</ele>
        <time>2010-03-18T14:12:43.79</time>
      </trkpt>
      <trkpt lat="45.27418" lon="5.85198">
        <ele>415</ele>
        <time>2010-03-18T14:12:53.79</time>
      </trkpt>
      <trkpt lat="45.27423" lon="5.85185">
        <ele>416</ele>
        <time>2010-03-18T14:13:03.79</time>
      </trkpt>
      <trkpt lat="45.27429" lon="5.85171">
        <ele>417</ele>
        <time>2010-03-18T14:13:13.78</time>
      </trkpt>
      <trkpt lat="45.2743" lon="5.85161">
        <ele>424</ele>
        <time>2010-03-18T14:13:23.78</time>
      </trkpt>
      <trkpt lat="45.27432" lon="5.85152">
        <ele>426</ele>
        <time>2010-03-18T14:13:33.78</time>
      </trkpt>
      <trkpt lat="45.27437" lon="5.8514">
        <ele>429</ele>
        <time>2010-03-18T14:13:43.78</time>
      </trkpt>
      <trkpt lat="45.27441" lon="5.85134">
        <ele>430</ele>
        <time>2010-03-18T14:13:53.77</time>
      </trkpt>
      <trkpt lat="45.27444" lon="5.85129">
        <ele>431</ele>
        <time>2010-03-18T14:14:03.77</time>
      </trkpt>
      <trkpt lat="45.27449" lon="5.85107">
        <ele>434</ele>
        <time>2010-03-18T14:14:22.76</time>
      </trkpt>
      <trkpt lat="45.27449" lon="5.85077">
        <ele>447</ele>
        <time>2010-03-18T14:14:38.73</time>
      </trkpt>
      <trkpt lat="45.27452" lon="5.85062">
        <ele>449</ele>
        <time>2010-03-18T14:14:48.72</time>
      </trkpt>
      <trkpt lat="45.27453" lon="5.85057">
        <ele>450</ele>
        <time>2010-03-18T14:14:58.71</time>
      </trkpt>
      <trkpt lat="45.27456" lon="5.85051">
        <ele>451</ele>
        <time>2010-03-18T14:15:10.70</time>
      </trkpt>
      <trkpt lat="45.27453" lon="5.85047">
        <ele>451</ele>
        <time>2010-03-18T14:15:20.69</time>
      </trkpt>
      <trkpt lat="45.27451" lon="5.85043">
        <ele>451</ele>
        <time>2010-03-18T14:15:30.69</time>
      </trkpt>
      <trkpt lat="45.27456" lon="5.8504">
        <ele>452</ele>
        <time>2010-03-18T14:15:42.69</time>
      </trkpt>
      <trkpt lat="45.27455" lon="5.8504">
        <ele>452</ele>
        <time>2010-03-18T14:15:52.68</time>
      </trkpt>
      <trkpt lat="45.27456" lon="5.8504">
        <ele>452</ele>
        <time>2010-03-18T14:16:02.68</time>
      </trkpt>
      <trkpt lat="45.27456" lon="5.85031">
        <ele>453</ele>
        <time>2010-03-18T14:16:12.68</time>
      </trkpt>
      <trkpt lat="45.27459" lon="5.85026">
        <ele>454</ele>
        <time>2010-03-18T14:16:22.68</time>
      </trkpt>
      <trkpt lat="45.27464" lon="5.85018">
        <ele>455</ele>
        <time>2010-03-18T14:16:32.67</time>
      </trkpt>
      <trkpt lat="45.2747" lon="5.85008">
        <ele>456</ele>
        <time>2010-03-18T14:16:43.67</time>
      </trkpt>
      <trkpt lat="45.27473" lon="5.85003">
        <ele>456</ele>
        <time>2010-03-18T14:16:53.67</time>
      </trkpt>
      <trkpt lat="45.27477" lon="5.84997">
        <ele>467</ele>
        <time>2010-03-18T14:17:04.66</time>
      </trkpt>
      <trkpt lat="45.27484" lon="5.84986">
        <ele>467</ele>
        <time>2010-03-18T14:17:14.66</time>
      </trkpt>
      <trkpt lat="45.27486" lon="5.84985">
        <ele>467</ele>
        <time>2010-03-18T14:17:24.66</time>
      </trkpt>
      <trkpt lat="45.27489" lon="5.84976">
        <ele>468</ele>
        <time>2010-03-18T14:17:34.66</time>
      </trkpt>
      <trkpt lat="45.27492" lon="5.84968">
        <ele>469</ele>
        <time>2010-03-18T14:17:44.66</time>
      </trkpt>
      <trkpt lat="45.27495" lon="5.84958">
        <ele>471</ele>
        <time>2010-03-18T14:17:54.66</time>
      </trkpt>
      <trkpt lat="45.27496" lon="5.84945">
        <ele>473</ele>
        <time>2010-03-18T14:18:07.65</time>
      </trkpt>
      <trkpt lat="45.27497" lon="5.84934">
        <ele>474</ele>
        <time>2010-03-18T14:18:27.65</time>
      </trkpt>
      <trkpt lat="45.275" lon="5.84927">
        <ele>476</ele>
        <time>2010-03-18T14:18:47.64</time>
      </trkpt>
      <trkpt lat="45.27501" lon="5.84916">
        <ele>480</ele>
        <time>2010-03-18T14:19:07.64</time>
      </trkpt>
      <trkpt lat="45.27502" lon="5.84899">
        <ele>489</ele>
        <time>2010-03-18T14:19:27.64</time>
      </trkpt>
      <trkpt lat="45.275" lon="5.84882">
        <ele>494</ele>
        <time>2010-03-18T14:19:46.63</time>
      </trkpt>
      <trkpt lat="45.27494" lon="5.84872">
        <ele>487</ele>
        <time>2010-03-18T14:19:59.63</time>
      </trkpt>
      <trkpt lat="45.27489" lon="5.84865">
        <ele>488</ele>
        <time>2010-03-18T14:20:10.63</time>
      </trkpt>
      <trkpt lat="45.27485" lon="5.84851">
        <ele>490</ele>
        <time>2010-03-18T14:20:21.62</time>
      </trkpt>
      <trkpt lat="45.27487" lon="5.84842">
        <ele>492</ele>
        <time>2010-03-18T14:20:31.62</time>
      </trkpt>
      <trkpt lat="45.27482" lon="5.8483">
        <ele>499</ele>
        <time>2010-03-18T14:20:41.62</time>
      </trkpt>
      <trkpt lat="45.27476" lon="5.8482">
        <ele>500</ele>
        <time>2010-03-18T14:20:51.62</time>
      </trkpt>
      <trkpt lat="45.27467" lon="5.84811">
        <ele>500</ele>
        <time>2010-03-18T14:21:01.61</time>
      </trkpt>
      <trkpt lat="45.27457" lon="5.84798">
        <ele>501</ele>
        <time>2010-03-18T14:21:11.61</time>
      </trkpt>
      <trkpt lat="45.2745" lon="5.8479">
        <ele>501</ele>
        <time>2010-03-18T14:21:21.62</time>
      </trkpt>
      <trkpt lat="45.27443" lon="5.84791">
        <ele>501</ele>
        <time>2010-03-18T14:21:31.61</time>
      </trkpt>
      <trkpt lat="45.27432" lon="5.84791">
        <ele>500</ele>
        <time>2010-03-18T14:21:41.60</time>
      </trkpt>
      <trkpt lat="45.27431" lon="5.84791">
        <ele>500</ele>
        <time>2010-03-18T14:21:51.60</time>
      </trkpt>
      <trkpt lat="45.27414" lon="5.84798">
        <ele>492</ele>
        <time>2010-03-18T14:22:03.60</time>
      </trkpt>
      <trkpt lat="45.27408" lon="5.84796">
        <ele>492</ele>
        <time>2010-03-18T14:22:15.60</time>
      </trkpt>
      <trkpt lat="45.27401" lon="5.84809">
        <ele>490</ele>
        <time>2010-03-18T14:22:27.59</time>
      </trkpt>
      <trkpt lat="45.27394" lon="5.84828">
        <ele>490</ele>
        <time>2010-03-18T14:22:37.59</time>
      </trkpt>
      <trkpt lat="45.27394" lon="5.84838">
        <ele>485</ele>
        <time>2010-03-18T14:22:47.59</time>
      </trkpt>
      <trkpt lat="45.27395" lon="5.84839">
        <ele>485</ele>
        <time>2010-03-18T14:22:57.58</time>
      </trkpt>
      <trkpt lat="45.27398" lon="5.84846">
        <ele>484</ele>
        <time>2010-03-18T14:23:07.58</time>
      </trkpt>
      <trkpt lat="45.27397" lon="5.84847">
        <ele>484</ele>
        <time>2010-03-18T14:23:17.59</time>
      </trkpt>
      <trkpt lat="45.27397" lon="5.84851">
        <ele>484</ele>
        <time>2010-03-18T14:23:27.58</time>
      </trkpt>
      <trkpt lat="45.27396" lon="5.84855">
        <ele>484</ele>
        <time>2010-03-18T14:23:37.57</time>
      </trkpt>
      <trkpt lat="45.27396" lon="5.84855">
        <ele>484</ele>
        <time>2010-03-18T14:23:47.57</time>
      </trkpt>
      <trkpt lat="45.27399" lon="5.84851">
        <ele>484</ele>
        <time>2010-03-18T14:23:57.57</time>
      </trkpt>
      <trkpt lat="45.27404" lon="5.84844">
        <ele>485</ele>
        <time>2010-03-18T14:24:07.57</time>
      </trkpt>
      <trkpt lat="45.27404" lon="5.84837">
        <ele>486</ele>
        <time>2010-03-18T14:24:17.57</time>
      </trkpt>
      <trkpt lat="45.27398" lon="5.84812">
        <ele>490</ele>
        <time>2010-03-18T14:24:27.56</time>
      </trkpt>
      <trkpt lat="45.27387" lon="5.84792">
        <ele>491</ele>
        <time>2010-03-18T14:24:37.56</time>
      </trkpt>
      <trkpt lat="45.2737" lon="5.84806">
        <ele>489</ele>
        <time>2010-03-18T14:24:47.56</time>
      </trkpt>
      <trkpt lat="45.27361" lon="5.84812">
        <ele>488</ele>
        <time>2010-03-18T14:24:57.55</time>
      </trkpt>
      <trkpt lat="45.27356" lon="5.84808">
        <ele>488</ele>
        <time>2010-03-18T14:25:07.55</time>
      </trkpt>
      <trkpt lat="45.27345" lon="5.84811">
        <ele>487</ele>
        <time>2010-03-18T14:25:17.55</time>
      </trkpt>
      <trkpt lat="45.2734" lon="5.84819">
        <ele>486</ele>
        <time>2010-03-18T14:25:29.54</time>
      </trkpt>
      <trkpt lat="45.27341" lon="5.84819">
        <ele>486</ele>
        <time>2010-03-18T14:25:39.54</time>
      </trkpt>
      <trkpt lat="45.27337" lon="5.84822">
        <ele>485</ele>
        <time>2010-03-18T14:25:49.54</time>
      </trkpt>
      <trkpt lat="45.27334" lon="5.84821">
        <ele>485</ele>
        <time>2010-03-18T14:25:59.53</time>
      </trkpt>
      <trkpt lat="45.2733" lon="5.84824">
        <ele>480</ele>
        <time>2010-03-18T14:26:09.53</time>
      </trkpt>
      <trkpt lat="45.27331" lon="5.84831">
        <ele>481</ele>
        <time>2010-03-18T14:26:19.53</time>
      </trkpt>
      <trkpt lat="45.27337" lon="5.84836">
        <ele>482</ele>
        <time>2010-03-18T14:26:29.53</time>
      </trkpt>
      <trkpt lat="45.27348" lon="5.84844">
        <ele>482</ele>
        <time>2010-03-18T14:26:40.52</time>
      </trkpt>
      <trkpt lat="45.27358" lon="5.84839">
        <ele>482</ele>
        <time>2010-03-18T14:26:51.52</time>
      </trkpt>
      <trkpt lat="45.27366" lon="5.84826">
        <ele>488</ele>
        <time>2010-03-18T14:27:01.52</time>
      </trkpt>
      <trkpt lat="45.27374" lon="5.84808">
        <ele>489</ele>
        <time>2010-03-18T14:27:11.51</time>
      </trkpt>
      <trkpt lat="45.27372" lon="5.84804">
        <ele>490</ele>
        <time>2010-03-18T14:27:21.51</time>
      </trkpt>
      <trkpt lat="45.27365" lon="5.84808">
        <ele>489</ele>
        <time>2010-03-18T14:27:31.51</time>
      </trkpt>
      <trkpt lat="45.27359" lon="5.84809">
        <ele>488</ele>
        <time>2010-03-18T14:27:41.50</time>
      </trkpt>
      <trkpt lat="45.27349" lon="5.84816">
        <ele>487</ele>
        <time>2010-03-18T14:27:52.50</time>
      </trkpt>
      <trkpt lat="45.27346" lon="5.84815">
        <ele>487</ele>
        <time>2010-03-18T14:28:02.50</time>
      </trkpt>
      <trkpt lat="45.27343" lon="5.84814">
        <ele>487</ele>
        <time>2010-03-18T14:28:12.49</time>
      </trkpt>
      <trkpt lat="45.2735" lon="5.84804">
        <ele>488</ele>
        <time>2010-03-18T14:28:23.49</time>
      </trkpt>
      <trkpt lat="45.27358" lon="5.84791">
        <ele>490</ele>
        <time>2010-03-18T14:28:33.49</time>
      </trkpt>
      <trkpt lat="45.27357" lon="5.84778">
        <ele>490</ele>
        <time>2010-03-18T14:28:43.49</time>
      </trkpt>
      <trkpt lat="45.27352" lon="5.84754">
        <ele>491</ele>
        <time>2010-03-18T14:28:54.48</time>
      </trkpt>
      <trkpt lat="45.27339" lon="5.8472">
        <ele>498</ele>
        <time>2010-03-18T14:29:06.48</time>
      </trkpt>
      <trkpt lat="45.27317" lon="5.8465">
        <ele>493</ele>
        <time>2010-03-18T14:29:19.48</time>
      </trkpt>
      <trkpt lat="45.27239" lon="5.84626">
        <ele>470</ele>
        <time>2010-03-18T14:29:37.47</time>
      </trkpt>
      <trkpt lat="45.27174" lon="5.84644">
        <ele>463</ele>
        <time>2010-03-18T14:29:55.47</time>
      </trkpt>
      <trkpt lat="45.27158" lon="5.84643">
        <ele>458</ele>
        <time>2010-03-18T14:30:06.46</time>
      </trkpt>
      <trkpt lat="45.27148" lon="5.84632">
        <ele>459</ele>
        <time>2010-03-18T14:30:16.46</time>
      </trkpt>
      <trkpt lat="45.27138" lon="5.84621">
        <ele>459</ele>
        <time>2010-03-18T14:30:26.46</time>
      </trkpt>
      <trkpt lat="45.27135" lon="5.84611">
        <ele>459</ele>
        <time>2010-03-18T14:30:36.46</time>
      </trkpt>
      <trkpt lat="45.27129" lon="5.84604">
        <ele>460</ele>
        <time>2010-03-18T14:30:46.45</time>
      </trkpt>
      <trkpt lat="45.27128" lon="5.84587">
        <ele>460</ele>
        <time>2010-03-18T14:30:57.45</time>
      </trkpt>
      <trkpt lat="45.27128" lon="5.84566">
        <ele>466</ele>
        <time>2010-03-18T14:31:07.45</time>
      </trkpt>
      <trkpt lat="45.27128" lon="5.84541">
        <ele>468</ele>
        <time>2010-03-18T14:31:19.44</time>
      </trkpt>
      <trkpt lat="45.27121" lon="5.84521">
        <ele>470</ele>
        <time>2010-03-18T14:31:29.44</time>
      </trkpt>
      <trkpt lat="45.27113" lon="5.84511">
        <ele>470</ele>
        <time>2010-03-18T14:31:40.44</time>
      </trkpt>
      <trkpt lat="45.2711" lon="5.84494">
        <ele>478</ele>
        <time>2010-03-18T14:31:52.43</time>
      </trkpt>
      <trkpt lat="45.27107" lon="5.8446">
        <ele>481</ele>
        <time>2010-03-18T14:32:08.43</time>
      </trkpt>
      <trkpt lat="45.27096" lon="5.84447">
        <ele>481</ele>
        <time>2010-03-18T14:32:19.43</time>
      </trkpt>
      <trkpt lat="45.27073" lon="5.84422">
        <ele>477</ele>
        <time>2010-03-18T14:32:32.42</time>
      </trkpt>
      <trkpt lat="45.27071" lon="5.84403">
        <ele>480</ele>
        <time>2010-03-18T14:32:42.42</time>
      </trkpt>
      <trkpt lat="45.27064" lon="5.84379">
        <ele>482</ele>
        <time>2010-03-18T14:32:53.42</time>
      </trkpt>
      <trkpt lat="45.27061" lon="5.84358">
        <ele>483</ele>
        <time>2010-03-18T14:33:03.41</time>
      </trkpt>
      <trkpt lat="45.27066" lon="5.84338">
        <ele>485</ele>
        <time>2010-03-18T14:33:13.41</time>
      </trkpt>
      <trkpt lat="45.27073" lon="5.84322">
        <ele>489</ele>
        <time>2010-03-18T14:33:23.41</time>
      </trkpt>
      <trkpt lat="45.27078" lon="5.84303">
        <ele>489</ele>
        <time>2010-03-18T14:33:33.41</time>
      </trkpt>
      <trkpt lat="45.2708" lon="5.84284">
        <ele>490</ele>
        <time>2010-03-18T14:33:43.41</time>
      </trkpt>
      <trkpt lat="45.27084" lon="5.84266">
        <ele>500</ele>
        <time>2010-03-18T14:33:53.40</time>
      </trkpt>
      <trkpt lat="45.27082" lon="5.84261">
        <ele>493</ele>
        <time>2010-03-18T14:34:03.41</time>
      </trkpt>
      <trkpt lat="45.27082" lon="5.84254">
        <ele>494</ele>
        <time>2010-03-18T14:34:13.39</time>
      </trkpt>
      <trkpt lat="45.27082" lon="5.84251">
        <ele>495</ele>
        <time>2010-03-18T14:34:23.39</time>
      </trkpt>
      <trkpt lat="45.27082" lon="5.84249">
        <ele>495</ele>
        <time>2010-03-18T14:34:33.39</time>
      </trkpt>
      <trkpt lat="45.27082" lon="5.84237">
        <ele>496</ele>
        <time>2010-03-18T14:34:43.39</time>
      </trkpt>
      <trkpt lat="45.27084" lon="5.84219">
        <ele>510</ele>
        <time>2010-03-18T14:34:53.38</time>
      </trkpt>
      <trkpt lat="45.27082" lon="5.84204">
        <ele>499</ele>
        <time>2010-03-18T14:35:03.38</time>
      </trkpt>
      <trkpt lat="45.27079" lon="5.84191">
        <ele>500</ele>
        <time>2010-03-18T14:35:13.38</time>
      </trkpt>
      <trkpt lat="45.27079" lon="5.84172">
        <ele>504</ele>
        <time>2010-03-18T14:35:23.37</time>
      </trkpt>
      <trkpt lat="45.27078" lon="5.84156">
        <ele>507</ele>
        <time>2010-03-18T14:35:33.37</time>
      </trkpt>
      <trkpt lat="45.27077" lon="5.8413">
        <ele>508</ele>
        <time>2010-03-18T14:35:43.37</time>
      </trkpt>
      <trkpt lat="45.27076" lon="5.84107">
        <ele>511</ele>
        <time>2010-03-18T14:35:54.37</time>
      </trkpt>
      <trkpt lat="45.27073" lon="5.84098">
        <ele>512</ele>
        <time>2010-03-18T14:36:04.36</time>
      </trkpt>
      <trkpt lat="45.27075" lon="5.84079">
        <ele>516</ele>
        <time>2010-03-18T14:36:15.36</time>
      </trkpt>
      <trkpt lat="45.27076" lon="5.84057">
        <ele>516</ele>
        <time>2010-03-18T14:36:27.36</time>
      </trkpt>
      <trkpt lat="45.27076" lon="5.8404">
        <ele>517</ele>
        <time>2010-03-18T14:36:37.35</time>
      </trkpt>
      <trkpt lat="45.27075" lon="5.84025">
        <ele>518</ele>
        <time>2010-03-18T14:36:47.35</time>
      </trkpt>
      <trkpt lat="45.27081" lon="5.84003">
        <ele>521</ele>
        <time>2010-03-18T14:36:58.35</time>
      </trkpt>
      <trkpt lat="45.27081" lon="5.83986">
        <ele>522</ele>
        <time>2010-03-18T14:37:09.34</time>
      </trkpt>
      <trkpt lat="45.27084" lon="5.83972">
        <ele>531</ele>
        <time>2010-03-18T14:37:19.34</time>
      </trkpt>
      <trkpt lat="45.27089" lon="5.83956">
        <ele>533</ele>
        <time>2010-03-18T14:37:29.34</time>
      </trkpt>
      <trkpt lat="45.27094" lon="5.83941">
        <ele>534</ele>
        <time>2010-03-18T14:37:39.34</time>
      </trkpt>
      <trkpt lat="45.27099" lon="5.83927">
        <ele>534</ele>
        <time>2010-03-18T14:37:49.34</time>
      </trkpt>
      <trkpt lat="45.27102" lon="5.83913">
        <ele>536</ele>
        <time>2010-03-18T14:37:59.33</time>
      </trkpt>
      <trkpt lat="45.27107" lon="5.83901">
        <ele>538</ele>
        <time>2010-03-18T14:38:09.34</time>
      </trkpt>
      <trkpt lat="45.27114" lon="5.8388">
        <ele>540</ele>
        <time>2010-03-18T14:38:19.32</time>
      </trkpt>
      <trkpt lat="45.27121" lon="5.8386">
        <ele>541</ele>
        <time>2010-03-18T14:38:30.32</time>
      </trkpt>
      <trkpt lat="45.27126" lon="5.83846">
        <ele>541</ele>
        <time>2010-03-18T14:38:40.32</time>
      </trkpt>
      <trkpt lat="45.27129" lon="5.83833">
        <ele>545</ele>
        <time>2010-03-18T14:38:50.31</time>
      </trkpt>
      <trkpt lat="45.2713" lon="5.83818">
        <ele>545</ele>
        <time>2010-03-18T14:39:00.31</time>
      </trkpt>
      <trkpt lat="45.27135" lon="5.83801">
        <ele>546</ele>
        <time>2010-03-18T14:39:10.31</time>
      </trkpt>
      <trkpt lat="45.27139" lon="5.83792">
        <ele>546</ele>
        <time>2010-03-18T14:39:20.30</time>
      </trkpt>
      <trkpt lat="45.27141" lon="5.83785">
        <ele>546</ele>
        <time>2010-03-18T14:39:30.30</time>
      </trkpt>
      <trkpt lat="45.27143" lon="5.83779">
        <ele>547</ele>
        <time>2010-03-18T14:39:40.30</time>
      </trkpt>
      <trkpt lat="45.27149" lon="5.83767">
        <ele>548</ele>
        <time>2010-03-18T14:39:50.30</time>
      </trkpt>
      <trkpt lat="45.27155" lon="5.83754">
        <ele>549</ele>
        <time>2010-03-18T14:40:00.29</time>
      </trkpt>
      <trkpt lat="45.2716" lon="5.83739">
        <ele>551</ele>
        <time>2010-03-18T14:40:10.29</time>
      </trkpt>
      <trkpt lat="45.27163" lon="5.83728">
        <ele>551</ele>
        <time>2010-03-18T14:40:20.29</time>
      </trkpt>
      <trkpt lat="45.27167" lon="5.83715">
        <ele>552</ele>
        <time>2010-03-18T14:40:30.28</time>
      </trkpt>
      <trkpt lat="45.27173" lon="5.83696">
        <ele>561</ele>
        <time>2010-03-18T14:40:41.28</time>
      </trkpt>
      <trkpt lat="45.27174" lon="5.83691">
        <ele>561</ele>
        <time>2010-03-18T14:40:51.28</time>
      </trkpt>
      <trkpt lat="45.27174" lon="5.83689">
        <ele>561</ele>
        <time>2010-03-18T14:41:01.27</time>
      </trkpt>
      <trkpt lat="45.27181" lon="5.83676">
        <ele>561</ele>
        <time>2010-03-18T14:41:11.28</time>
      </trkpt>
      <trkpt lat="45.27191" lon="5.83663">
        <ele>565</ele>
        <time>2010-03-18T14:41:21.27</time>
      </trkpt>
      <trkpt lat="45.27197" lon="5.83652">
        <ele>566</ele>
        <time>2010-03-18T14:41:31.26</time>
      </trkpt>
      <trkpt lat="45.27203" lon="5.83648">
        <ele>567</ele>
        <time>2010-03-18T14:41:41.26</time>
      </trkpt>
      <trkpt lat="45.27209" lon="5.83637">
        <ele>569</ele>
        <time>2010-03-18T14:41:51.26</time>
      </trkpt>
      <trkpt lat="45.27219" lon="5.83616">
        <ele>570</ele>
        <time>2010-03-18T14:42:03.26</time>
      </trkpt>
      <trkpt lat="45.27224" lon="5.83604">
        <ele>572</ele>
        <time>2010-03-18T14:42:13.25</time>
      </trkpt>
      <trkpt lat="45.27231" lon="5.83591">
        <ele>574</ele>
        <time>2010-03-18T14:42:23.25</time>
      </trkpt>
      <trkpt lat="45.27234" lon="5.8358">
        <ele>578</ele>
        <time>2010-03-18T14:42:33.24</time>
      </trkpt>
      <trkpt lat="45.27239" lon="5.83571">
        <ele>578</ele>
        <time>2010-03-18T14:42:43.24</time>
      </trkpt>
      <trkpt lat="45.27244" lon="5.83561">
        <ele>578</ele>
        <time>2010-03-18T14:42:53.25</time>
      </trkpt>
      <trkpt lat="45.27247" lon="5.8355">
        <ele>578</ele>
        <time>2010-03-18T14:43:03.23</time>
      </trkpt>
      <trkpt lat="45.27252" lon="5.83537">
        <ele>591</ele>
        <time>2010-03-18T14:43:13.23</time>
      </trkpt>
      <trkpt lat="45.27257" lon="5.83529">
        <ele>591</ele>
        <time>2010-03-18T14:43:23.23</time>
      </trkpt>
      <trkpt lat="45.27261" lon="5.8352">
        <ele>591</ele>
        <time>2010-03-18T14:43:33.22</time>
      </trkpt>
      <trkpt lat="45.27262" lon="5.83513">
        <ele>590</ele>
        <time>2010-03-18T14:43:43.22</time>
      </trkpt>
      <trkpt lat="45.27263" lon="5.83511">
        <ele>590</ele>
        <time>2010-03-18T14:43:53.22</time>
      </trkpt>
      <trkpt lat="45.27272" lon="5.83504">
        <ele>591</ele>
        <time>2010-03-18T14:44:03.21</time>
      </trkpt>
      <trkpt lat="45.27281" lon="5.83486">
        <ele>593</ele>
        <time>2010-03-18T14:44:13.21</time>
      </trkpt>
      <trkpt lat="45.27288" lon="5.83475">
        <ele>595</ele>
        <time>2010-03-18T14:44:23.22</time>
      </trkpt>
      <trkpt lat="45.27293" lon="5.83468">
        <ele>595</ele>
        <time>2010-03-18T14:44:33.20</time>
      </trkpt>
      <trkpt lat="45.27292" lon="5.83465">
        <ele>595</ele>
        <time>2010-03-18T14:44:43.20</time>
      </trkpt>
      <trkpt lat="45.27293" lon="5.83464">
        <ele>595</ele>
        <time>2010-03-18T14:44:53.20</time>
      </trkpt>
      <trkpt lat="45.27293" lon="5.83461">
        <ele>595</ele>
        <time>2010-03-18T14:45:03.19</time>
      </trkpt>
      <trkpt lat="45.27293" lon="5.83461">
        <ele>595</ele>
        <time>2010-03-18T14:45:13.19</time>
      </trkpt>
      <trkpt lat="45.27295" lon="5.83454">
        <ele>596</ele>
        <time>2010-03-18T14:45:23.18</time>
      </trkpt>
      <trkpt lat="45.27296" lon="5.83452">
        <ele>596</ele>
        <time>2010-03-18T14:45:33.19</time>
      </trkpt>
      <trkpt lat="45.27298" lon="5.83447">
        <ele>596</ele>
        <time>2010-03-18T14:45:43.18</time>
      </trkpt>
      <trkpt lat="45.27298" lon="5.83446">
        <ele>596</ele>
        <time>2010-03-18T14:45:53.18</time>
      </trkpt>
      <trkpt lat="45.27297" lon="5.83449">
        <ele>596</ele>
        <time>2010-03-18T14:46:03.18</time>
      </trkpt>
      <trkpt lat="45.27296" lon="5.83452">
        <ele>596</ele>
        <time>2010-03-18T14:46:13.18</time>
      </trkpt>
      <trkpt lat="45.27297" lon="5.83448">
        <ele>596</ele>
        <time>2010-03-18T14:46:23.17</time>
      </trkpt>
      <trkpt lat="45.27299" lon="5.83444">
        <ele>596</ele>
        <time>2010-03-18T14:46:33.17</time>
      </trkpt>
      <trkpt lat="45.27299" lon="5.83444">
        <ele>596</ele>
        <time>2010-03-18T14:46:43.17</time>
      </trkpt>
      <trkpt lat="45.273" lon="5.83444">
        <ele>596</ele>
        <time>2010-03-18T14:46:53.16</time>
      </trkpt>
      <trkpt lat="45.27301" lon="5.83441">
        <ele>596</ele>
        <time>2010-03-18T14:47:03.16</time>
      </trkpt>
      <trkpt lat="45.27305" lon="5.83429">
        <ele>597</ele>
        <time>2010-03-18T14:47:13.16</time>
      </trkpt>
      <trkpt lat="45.27313" lon="5.83417">
        <ele>598</ele>
        <time>2010-03-18T14:47:23.15</time>
      </trkpt>
      <trkpt lat="45.27317" lon="5.83408">
        <ele>599</ele>
        <time>2010-03-18T14:47:33.15</time>
      </trkpt>
      <trkpt lat="45.27317" lon="5.83405">
        <ele>599</ele>
        <time>2010-03-18T14:47:43.15</time>
      </trkpt>
      <trkpt lat="45.27318" lon="5.834">
        <ele>598</ele>
        <time>2010-03-18T14:47:53.15</time>
      </trkpt>
      <trkpt lat="45.2732" lon="5.83391">
        <ele>598</ele>
        <time>2010-03-18T14:48:03.14</time>
      </trkpt>
      <trkpt lat="45.27323" lon="5.83384">
        <ele>598</ele>
        <time>2010-03-18T14:48:13.14</time>
      </trkpt>
      <trkpt lat="45.27327" lon="5.83378">
        <ele>598</ele>
        <time>2010-03-18T14:48:23.14</time>
      </trkpt>
      <trkpt lat="45.2733" lon="5.83374">
        <ele>598</ele>
        <time>2010-03-18T14:48:33.13</time>
      </trkpt>
      <trkpt lat="45.27333" lon="5.83371">
        <ele>599</ele>
        <time>2010-03-18T14:48:43.13</time>
      </trkpt>
      <trkpt lat="45.27337" lon="5.83366">
        <ele>610</ele>
        <time>2010-03-18T14:48:53.12</time>
      </trkpt>
      <trkpt lat="45.27341" lon="5.83364">
        <ele>611</ele>
        <time>2010-03-18T14:49:03.12</time>
      </trkpt>
      <trkpt lat="45.27348" lon="5.8336">
        <ele>611</ele>
        <time>2010-03-18T14:49:13.12</time>
      </trkpt>
      <trkpt lat="45.27352" lon="5.83358">
        <ele>611</ele>
        <time>2010-03-18T14:49:23.11</time>
      </trkpt>
      <trkpt lat="45.27353" lon="5.83356">
        <ele>611</ele>
        <time>2010-03-18T14:49:33.11</time>
      </trkpt>
      <trkpt lat="45.27362" lon="5.83351">
        <ele>612</ele>
        <time>2010-03-18T14:49:43.11</time>
      </trkpt>
      <trkpt lat="45.27374" lon="5.83346">
        <ele>614</ele>
        <time>2010-03-18T14:49:53.10</time>
      </trkpt>
      <trkpt lat="45.27387" lon="5.83346">
        <ele>616</ele>
        <time>2010-03-18T14:50:03.10</time>
      </trkpt>
      <trkpt lat="45.27405" lon="5.83338">
        <ele>619</ele>
        <time>2010-03-18T14:50:15.10</time>
      </trkpt>
      <trkpt lat="45.27419" lon="5.83338">
        <ele>624</ele>
        <time>2010-03-18T14:50:26.09</time>
      </trkpt>
      <trkpt lat="45.27431" lon="5.83346">
        <ele>630</ele>
        <time>2010-03-18T14:50:37.09</time>
      </trkpt>
      <trkpt lat="45.2744" lon="5.8335">
        <ele>633</ele>
        <time>2010-03-18T14:50:47.08</time>
      </trkpt>
      <trkpt lat="45.27449" lon="5.83354">
        <ele>635</ele>
        <time>2010-03-18T14:50:57.08</time>
      </trkpt>
      <trkpt lat="45.27458" lon="5.83354">
        <ele>636</ele>
        <time>2010-03-18T14:51:07.08</time>
      </trkpt>
      <trkpt lat="45.27471" lon="5.8336">
        <ele>638</ele>
        <time>2010-03-18T14:51:18.08</time>
      </trkpt>
      <trkpt lat="45.27485" lon="5.83363">
        <ele>639</ele>
        <time>2010-03-18T14:51:29.08</time>
      </trkpt>
      <trkpt lat="45.27497" lon="5.83363">
        <ele>640</ele>
        <time>2010-03-18T14:51:40.07</time>
      </trkpt>
      <trkpt lat="45.27507" lon="5.83359">
        <ele>650</ele>
        <time>2010-03-18T14:51:51.06</time>
      </trkpt>
      <trkpt lat="45.2751" lon="5.83354">
        <ele>649</ele>
        <time>2010-03-18T14:52:01.06</time>
      </trkpt>
      <trkpt lat="45.2751" lon="5.83349">
        <ele>647</ele>
        <time>2010-03-18T14:52:11.05</time>
      </trkpt>
      <trkpt lat="45.27511" lon="5.83347">
        <ele>647</ele>
        <time>2010-03-18T14:52:21.06</time>
      </trkpt>
      <trkpt lat="45.27509" lon="5.83341">
        <ele>644</ele>
        <time>2010-03-18T14:52:31.05</time>
      </trkpt>
      <trkpt lat="45.27508" lon="5.83335">
        <ele>642</ele>
        <time>2010-03-18T14:52:41.05</time>
      </trkpt>
      <trkpt lat="45.27508" lon="5.83332">
        <ele>638</ele>
        <time>2010-03-18T14:52:51.04</time>
      </trkpt>
      <trkpt lat="45.2751" lon="5.83332">
        <ele>638</ele>
        <time>2010-03-18T14:53:01.04</time>
      </trkpt>
      <trkpt lat="45.27511" lon="5.83328">
        <ele>639</ele>
        <time>2010-03-18T14:53:11.04</time>
      </trkpt>
      <trkpt lat="45.27512" lon="5.83328">
        <ele>639</ele>
        <time>2010-03-18T14:53:24.03</time>
      </trkpt>
      <trkpt lat="45.27511" lon="5.83329">
        <ele>639</ele>
        <time>2010-03-18T14:53:34.03</time>
      </trkpt>
      <trkpt lat="45.27514" lon="5.83334">
        <ele>645</ele>
        <time>2010-03-18T14:53:44.02</time>
      </trkpt>
      <trkpt lat="45.27515" lon="5.83337">
        <ele>646</ele>
        <time>2010-03-18T14:53:54.02</time>
      </trkpt>
      <trkpt lat="45.27515" lon="5.83336">
        <ele>645</ele>
        <time>2010-03-18T14:54:04.01</time>
      </trkpt>
      <trkpt lat="45.27514" lon="5.83338">
        <ele>645</ele>
        <time>2010-03-18T14:54:14.01</time>
      </trkpt>
      <trkpt lat="45.27517" lon="5.83339">
        <ele>647</ele>
        <time>2010-03-18T14:54:24.01</time>
      </trkpt>
      <trkpt lat="45.27526" lon="5.83343">
        <ele>650</ele>
        <time>2010-03-18T14:54:34.00</time>
      </trkpt>
      <trkpt lat="45.27533" lon="5.83342">
        <ele>651</ele>
        <time>2010-03-18T14:54:44.00</time>
      </trkpt>
      <trkpt lat="45.27544" lon="5.83343">
        <ele>653</ele>
        <time>2010-03-18T14:54:53.99</time>
      </trkpt>
      <trkpt lat="45.27555" lon="5.83345">
        <ele>654</ele>
        <time>2010-03-18T14:55:03.99</time>
      </trkpt>
      <trkpt lat="45.27565" lon="5.83342">
        <ele>654</ele>
        <time>2010-03-18T14:55:13.99</time>
      </trkpt>
      <trkpt lat="45.27575" lon="5.83339">
        <ele>653</ele>
        <time>2010-03-18T14:55:23.98</time>
      </trkpt>
      <trkpt lat="45.27587" lon="5.83334">
        <ele>656</ele>
        <time>2010-03-18T14:55:34.98</time>
      </trkpt>
      <trkpt lat="45.27591" lon="5.8333">
        <ele>655</ele>
        <time>2010-03-18T14:55:44.98</time>
      </trkpt>
      <trkpt lat="45.27595" lon="5.83319">
        <ele>657</ele>
        <time>2010-03-18T14:55:55.97</time>
      </trkpt>
      <trkpt lat="45.2761" lon="5.83317">
        <ele>659</ele>
        <time>2010-03-18T14:56:06.97</time>
      </trkpt>
      <trkpt lat="45.27623" lon="5.83313">
        <ele>662</ele>
        <time>2010-03-18T14:56:16.97</time>
      </trkpt>
      <trkpt lat="45.27631" lon="5.83302">
        <ele>663</ele>
        <time>2010-03-18T14:56:27.96</time>
      </trkpt>
      <trkpt lat="45.27638" lon="5.83298">
        <ele>663</ele>
        <time>2010-03-18T14:56:37.96</time>
      </trkpt>
      <trkpt lat="45.27646" lon="5.83295">
        <ele>664</ele>
        <time>2010-03-18T14:56:47.96</time>
      </trkpt>
      <trkpt lat="45.2766" lon="5.83284">
        <ele>664</ele>
        <time>2010-03-18T14:56:58.96</time>
      </trkpt>
      <trkpt lat="45.27671" lon="5.8328">
        <ele>677</ele>
        <time>2010-03-18T14:57:08.95</time>
      </trkpt>
      <trkpt lat="45.27681" lon="5.83273">
        <ele>676</ele>
        <time>2010-03-18T14:57:18.95</time>
      </trkpt>
      <trkpt lat="45.27694" lon="5.83273">
        <ele>679</ele>
        <time>2010-03-18T14:57:28.95</time>
      </trkpt>
      <trkpt lat="45.27707" lon="5.83273">
        <ele>681</ele>
        <time>2010-03-18T14:57:38.95</time>
      </trkpt>
      <trkpt lat="45.27719" lon="5.83274">
        <ele>682</ele>
        <time>2010-03-18T14:57:48.94</time>
      </trkpt>
      <trkpt lat="45.27729" lon="5.83271">
        <ele>682</ele>
        <time>2010-03-18T14:57:58.94</time>
      </trkpt>
      <trkpt lat="45.27739" lon="5.83271">
        <ele>683</ele>
        <time>2010-03-18T14:58:08.94</time>
      </trkpt>
      <trkpt lat="45.27748" lon="5.83267">
        <ele>682</ele>
        <time>2010-03-18T14:58:19.94</time>
      </trkpt>
      <trkpt lat="45.2776" lon="5.83259">
        <ele>691</ele>
        <time>2010-03-18T14:58:30.93</time>
      </trkpt>
      <trkpt lat="45.2777" lon="5.83257">
        <ele>696</ele>
        <time>2010-03-18T14:58:41.93</time>
      </trkpt>
      <trkpt lat="45.27783" lon="5.83259">
        <ele>701</ele>
        <time>2010-03-18T14:58:52.93</time>
      </trkpt>
      <trkpt lat="45.27794" lon="5.83254">
        <ele>704</ele>
        <time>2010-03-18T14:59:03.92</time>
      </trkpt>
      <trkpt lat="45.27808" lon="5.83246">
        <ele>692</ele>
        <time>2010-03-18T14:59:13.92</time>
      </trkpt>
      <trkpt lat="45.27816" lon="5.83239">
        <ele>694</ele>
        <time>2010-03-18T14:59:23.92</time>
      </trkpt>
      <trkpt lat="45.27824" lon="5.83237">
        <ele>696</ele>
        <time>2010-03-18T14:59:33.92</time>
      </trkpt>
      <trkpt lat="45.27833" lon="5.83231">
        <ele>695</ele>
        <time>2010-03-18T14:59:43.91</time>
      </trkpt>
      <trkpt lat="45.27841" lon="5.83229">
        <ele>706</ele>
        <time>2010-03-18T14:59:53.91</time>
      </trkpt>
      <trkpt lat="45.2785" lon="5.83229">
        <ele>706</ele>
        <time>2010-03-18T15:00:03.91</time>
      </trkpt>
      <trkpt lat="45.27855" lon="5.83229">
        <ele>707</ele>
        <time>2010-03-18T15:00:13.90</time>
      </trkpt>
      <trkpt lat="45.27863" lon="5.8323">
        <ele>708</ele>
        <time>2010-03-18T15:00:23.91</time>
      </trkpt>
      <trkpt lat="45.27865" lon="5.8323">
        <ele>708</ele>
        <time>2010-03-18T15:00:33.90</time>
      </trkpt>
      <trkpt lat="45.27866" lon="5.83229">
        <ele>708</ele>
        <time>2010-03-18T15:00:43.90</time>
      </trkpt>
      <trkpt lat="45.27872" lon="5.83224">
        <ele>708</ele>
        <time>2010-03-18T15:00:53.90</time>
      </trkpt>
      <trkpt lat="45.27878" lon="5.83226">
        <ele>709</ele>
        <time>2010-03-18T15:01:03.90</time>
      </trkpt>
      <trkpt lat="45.27885" lon="5.83225">
        <ele>710</ele>
        <time>2010-03-18T15:01:13.89</time>
      </trkpt>
      <trkpt lat="45.27892" lon="5.83226">
        <ele>712</ele>
        <time>2010-03-18T15:01:23.89</time>
      </trkpt>
      <trkpt lat="45.27897" lon="5.83224">
        <ele>712</ele>
        <time>2010-03-18T15:01:33.89</time>
      </trkpt>
      <trkpt lat="45.27903" lon="5.83224">
        <ele>713</ele>
        <time>2010-03-18T15:01:43.89</time>
      </trkpt>
      <trkpt lat="45.27911" lon="5.83221">
        <ele>713</ele>
        <time>2010-03-18T15:01:53.88</time>
      </trkpt>
      <trkpt lat="45.27918" lon="5.83221">
        <ele>725</ele>
        <time>2010-03-18T15:02:03.88</time>
      </trkpt>
      <trkpt lat="45.27927" lon="5.83224">
        <ele>725</ele>
        <time>2010-03-18T15:02:13.88</time>
      </trkpt>
      <trkpt lat="45.27934" lon="5.83224">
        <ele>726</ele>
        <time>2010-03-18T15:02:23.88</time>
      </trkpt>
      <trkpt lat="45.2794" lon="5.83222">
        <ele>726</ele>
        <time>2010-03-18T15:02:33.88</time>
      </trkpt>
      <trkpt lat="45.27946" lon="5.83221">
        <ele>726</ele>
        <time>2010-03-18T15:02:43.87</time>
      </trkpt>
      <trkpt lat="45.27954" lon="5.83217">
        <ele>726</ele>
        <time>2010-03-18T15:02:53.87</time>
      </trkpt>
      <trkpt lat="45.2796" lon="5.83213">
        <ele>727</ele>
        <time>2010-03-18T15:03:03.87</time>
      </trkpt>
      <trkpt lat="45.27967" lon="5.83213">
        <ele>727</ele>
        <time>2010-03-18T15:03:13.86</time>
      </trkpt>
      <trkpt lat="45.27972" lon="5.83213">
        <ele>728</ele>
        <time>2010-03-18T15:03:23.86</time>
      </trkpt>
      <trkpt lat="45.27981" lon="5.83216">
        <ele>730</ele>
        <time>2010-03-18T15:03:33.86</time>
      </trkpt>
      <trkpt lat="45.27988" lon="5.83217">
        <ele>731</ele>
        <time>2010-03-18T15:03:43.86</time>
      </trkpt>
      <trkpt lat="45.27994" lon="5.83215">
        <ele>730</ele>
        <time>2010-03-18T15:03:53.85</time>
      </trkpt>
      <trkpt lat="45.28003" lon="5.83216">
        <ele>742</ele>
        <time>2010-03-18T15:04:03.85</time>
      </trkpt>
      <trkpt lat="45.2801" lon="5.83214">
        <ele>742</ele>
        <time>2010-03-18T15:04:13.85</time>
      </trkpt>
      <trkpt lat="45.2802" lon="5.83211">
        <ele>741</ele>
        <time>2010-03-18T15:04:23.85</time>
      </trkpt>
      <trkpt lat="45.28028" lon="5.83211">
        <ele>742</ele>
        <time>2010-03-18T15:04:33.84</time>
      </trkpt>
      <trkpt lat="45.28032" lon="5.83209">
        <ele>742</ele>
        <time>2010-03-18T15:04:43.84</time>
      </trkpt>
      <trkpt lat="45.28039" lon="5.83213">
        <ele>744</ele>
        <time>2010-03-18T15:04:54.84</time>
      </trkpt>
      <trkpt lat="45.28045" lon="5.83218">
        <ele>745</ele>
        <time>2010-03-18T15:05:04.84</time>
      </trkpt>
      <trkpt lat="45.28052" lon="5.83221">
        <ele>746</ele>
        <time>2010-03-18T15:05:14.83</time>
      </trkpt>
      <trkpt lat="45.2806" lon="5.8323">
        <ele>749</ele>
        <time>2010-03-18T15:05:25.84</time>
      </trkpt>
      <trkpt lat="45.28067" lon="5.83232">
        <ele>751</ele>
        <time>2010-03-18T15:05:35.83</time>
      </trkpt>
      <trkpt lat="45.28074" lon="5.8323">
        <ele>752</ele>
        <time>2010-03-18T15:05:45.82</time>
      </trkpt>
      <trkpt lat="45.2808" lon="5.8323">
        <ele>753</ele>
        <time>2010-03-18T15:05:55.82</time>
      </trkpt>
      <trkpt lat="45.28086" lon="5.83229">
        <ele>764</ele>
        <time>2010-03-18T15:06:05.82</time>
      </trkpt>
      <trkpt lat="45.28095" lon="5.83226">
        <ele>764</ele>
        <time>2010-03-18T15:06:15.82</time>
      </trkpt>
      <trkpt lat="45.28102" lon="5.83224">
        <ele>764</ele>
        <time>2010-03-18T15:06:25.81</time>
      </trkpt>
      <trkpt lat="45.28107" lon="5.83224">
        <ele>765</ele>
        <time>2010-03-18T15:06:35.81</time>
      </trkpt>
      <trkpt lat="45.28112" lon="5.83223">
        <ele>766</ele>
        <time>2010-03-18T15:06:45.81</time>
      </trkpt>
      <trkpt lat="45.28119" lon="5.83223">
        <ele>767</ele>
        <time>2010-03-18T15:06:55.81</time>
      </trkpt>
      <trkpt lat="45.28127" lon="5.83227">
        <ele>769</ele>
        <time>2010-03-18T15:07:05.80</time>
      </trkpt>
      <trkpt lat="45.28134" lon="5.8323">
        <ele>771</ele>
        <time>2010-03-18T15:07:15.80</time>
      </trkpt>
      <trkpt lat="45.2814" lon="5.8323">
        <ele>773</ele>
        <time>2010-03-18T15:07:25.80</time>
      </trkpt>
      <trkpt lat="45.28143" lon="5.8323">
        <ele>774</ele>
        <time>2010-03-18T15:07:35.79</time>
      </trkpt>
      <trkpt lat="45.2815" lon="5.83236">
        <ele>778</ele>
        <time>2010-03-18T15:07:45.79</time>
      </trkpt>
      <trkpt lat="45.28156" lon="5.83232">
        <ele>779</ele>
        <time>2010-03-18T15:07:55.79</time>
      </trkpt>
      <trkpt lat="45.2816" lon="5.83225">
        <ele>776</ele>
        <time>2010-03-18T15:08:05.79</time>
      </trkpt>
      <trkpt lat="45.28167" lon="5.83218">
        <ele>790</ele>
        <time>2010-03-18T15:08:15.78</time>
      </trkpt>
      <trkpt lat="45.28174" lon="5.83212">
        <ele>789</ele>
        <time>2010-03-18T15:08:25.78</time>
      </trkpt>
      <trkpt lat="45.28176" lon="5.8321">
        <ele>788</ele>
        <time>2010-03-18T15:08:35.78</time>
      </trkpt>
      <trkpt lat="45.28182" lon="5.83206">
        <ele>788</ele>
        <time>2010-03-18T15:08:45.78</time>
      </trkpt>
      <trkpt lat="45.28184" lon="5.8321">
        <ele>789</ele>
        <time>2010-03-18T15:08:56.77</time>
      </trkpt>
      <trkpt lat="45.28187" lon="5.83206">
        <ele>788</ele>
        <time>2010-03-18T15:09:06.77</time>
      </trkpt>
      <trkpt lat="45.28189" lon="5.83203">
        <ele>788</ele>
        <time>2010-03-18T15:09:16.77</time>
      </trkpt>
      <trkpt lat="45.28191" lon="5.83199">
        <ele>787</ele>
        <time>2010-03-18T15:09:26.77</time>
      </trkpt>
      <trkpt lat="45.28192" lon="5.83196">
        <ele>787</ele>
        <time>2010-03-18T15:09:36.76</time>
      </trkpt>
      <trkpt lat="45.28194" lon="5.83196">
        <ele>787</ele>
        <time>2010-03-18T15:09:46.76</time>
      </trkpt>
      <trkpt lat="45.28194" lon="5.83196">
        <ele>787</ele>
        <time>2010-03-18T15:09:56.76</time>
      </trkpt>
      <trkpt lat="45.28192" lon="5.83189">
        <ele>785</ele>
        <time>2010-03-18T15:10:06.75</time>
      </trkpt>
      <trkpt lat="45.28195" lon="5.83191">
        <ele>786</ele>
        <time>2010-03-18T15:10:16.75</time>
      </trkpt>
      <trkpt lat="45.28196" lon="5.8319">
        <ele>786</ele>
        <time>2010-03-18T15:10:26.75</time>
      </trkpt>
      <trkpt lat="45.28195" lon="5.83179">
        <ele>783</ele>
        <time>2010-03-18T15:10:37.74</time>
      </trkpt>
      <trkpt lat="45.28195" lon="5.83161">
        <ele>770</ele>
        <time>2010-03-18T15:10:48.74</time>
      </trkpt>
      <trkpt lat="45.28195" lon="5.83157">
        <ele>770</ele>
        <time>2010-03-18T15:10:58.74</time>
      </trkpt>
      <trkpt lat="45.28196" lon="5.83157">
        <ele>770</ele>
        <time>2010-03-18T15:11:10.74</time>
      </trkpt>
      <trkpt lat="45.28196" lon="5.83157">
        <ele>770</ele>
        <time>2010-03-18T15:11:20.74</time>
      </trkpt>
      <trkpt lat="45.28197" lon="5.83166">
        <ele>771</ele>
        <time>2010-03-18T15:11:30.73</time>
      </trkpt>
      <trkpt lat="45.28201" lon="5.83171">
        <ele>784</ele>
        <time>2010-03-18T15:11:40.73</time>
      </trkpt>
      <trkpt lat="45.28204" lon="5.83173">
        <ele>785</ele>
        <time>2010-03-18T15:11:50.73</time>
      </trkpt>
      <trkpt lat="45.28209" lon="5.83178">
        <ele>787</ele>
        <time>2010-03-18T15:12:01.73</time>
      </trkpt>
      <trkpt lat="45.28213" lon="5.83184">
        <ele>789</ele>
        <time>2010-03-18T15:12:11.72</time>
      </trkpt>
      <trkpt lat="45.28219" lon="5.83185">
        <ele>790</ele>
        <time>2010-03-18T15:12:21.72</time>
      </trkpt>
      <trkpt lat="45.28223" lon="5.83185">
        <ele>790</ele>
        <time>2010-03-18T15:12:31.71</time>
      </trkpt>
      <trkpt lat="45.28226" lon="5.83183">
        <ele>791</ele>
        <time>2010-03-18T15:12:42.71</time>
      </trkpt>
      <trkpt lat="45.28234" lon="5.8318">
        <ele>791</ele>
        <time>2010-03-18T15:12:52.71</time>
      </trkpt>
      <trkpt lat="45.28241" lon="5.83171">
        <ele>791</ele>
        <time>2010-03-18T15:13:03.71</time>
      </trkpt>
      <trkpt lat="45.28244" lon="5.8317">
        <ele>791</ele>
        <time>2010-03-18T15:13:13.70</time>
      </trkpt>
      <trkpt lat="45.28248" lon="5.83172">
        <ele>791</ele>
        <time>2010-03-18T15:13:23.70</time>
      </trkpt>
      <trkpt lat="45.28254" lon="5.83174">
        <ele>797</ele>
        <time>2010-03-18T15:13:33.70</time>
      </trkpt>
      <trkpt lat="45.2826" lon="5.83168">
        <ele>798</ele>
        <time>2010-03-18T15:13:43.69</time>
      </trkpt>
      <trkpt lat="45.28265" lon="5.83167">
        <ele>800</ele>
        <time>2010-03-18T15:13:53.69</time>
      </trkpt>
      <trkpt lat="45.28273" lon="5.83168">
        <ele>803</ele>
        <time>2010-03-18T15:14:03.69</time>
      </trkpt>
      <trkpt lat="45.28279" lon="5.8317">
        <ele>805</ele>
        <time>2010-03-18T15:14:13.69</time>
      </trkpt>
      <trkpt lat="45.28287" lon="5.83169">
        <ele>806</ele>
        <time>2010-03-18T15:14:23.68</time>
      </trkpt>
      <trkpt lat="45.28293" lon="5.83169">
        <ele>807</ele>
        <time>2010-03-18T15:14:33.68</time>
      </trkpt>
      <trkpt lat="45.28303" lon="5.83171">
        <ele>808</ele>
        <time>2010-03-18T15:14:44.68</time>
      </trkpt>
      <trkpt lat="45.28313" lon="5.83171">
        <ele>809</ele>
        <time>2010-03-18T15:14:54.67</time>
      </trkpt>
      <trkpt lat="45.2832" lon="5.83179">
        <ele>809</ele>
        <time>2010-03-18T15:15:04.67</time>
      </trkpt>
      <trkpt lat="45.28328" lon="5.83184">
        <ele>810</ele>
        <time>2010-03-18T15:15:14.67</time>
      </trkpt>
      <trkpt lat="45.28334" lon="5.83185">
        <ele>818</ele>
        <time>2010-03-18T15:15:24.66</time>
      </trkpt>
      <trkpt lat="45.28341" lon="5.83186">
        <ele>819</ele>
        <time>2010-03-18T15:15:34.66</time>
      </trkpt>
      <trkpt lat="45.28346" lon="5.83187">
        <ele>820</ele>
        <time>2010-03-18T15:15:44.66</time>
      </trkpt>
      <trkpt lat="45.28351" lon="5.83183">
        <ele>820</ele>
        <time>2010-03-18T15:15:54.66</time>
      </trkpt>
      <trkpt lat="45.28355" lon="5.83181">
        <ele>820</ele>
        <time>2010-03-18T15:16:04.65</time>
      </trkpt>
      <trkpt lat="45.28359" lon="5.83176">
        <ele>821</ele>
        <time>2010-03-18T15:16:14.65</time>
      </trkpt>
      <trkpt lat="45.28363" lon="5.83177">
        <ele>822</ele>
        <time>2010-03-18T15:16:25.64</time>
      </trkpt>
      <trkpt lat="45.2837" lon="5.83172">
        <ele>823</ele>
        <time>2010-03-18T15:16:35.64</time>
      </trkpt>
      <trkpt lat="45.28378" lon="5.83169">
        <ele>824</ele>
        <time>2010-03-18T15:16:46.64</time>
      </trkpt>
      <trkpt lat="45.28383" lon="5.83171">
        <ele>824</ele>
        <time>2010-03-18T15:16:56.64</time>
      </trkpt>
      <trkpt lat="45.2839" lon="5.83168">
        <ele>825</ele>
        <time>2010-03-18T15:17:06.63</time>
      </trkpt>
      <trkpt lat="45.28396" lon="5.83165">
        <ele>816</ele>
        <time>2010-03-18T15:17:16.63</time>
      </trkpt>
      <trkpt lat="45.28404" lon="5.83162">
        <ele>818</ele>
        <time>2010-03-18T15:17:26.63</time>
      </trkpt>
      <trkpt lat="45.28414" lon="5.83157">
        <ele>819</ele>
        <time>2010-03-18T15:17:36.62</time>
      </trkpt>
      <trkpt lat="45.28423" lon="5.83147">
        <ele>826</ele>
        <time>2010-03-18T15:17:46.62</time>
      </trkpt>
      <trkpt lat="45.28429" lon="5.83146">
        <ele>827</ele>
        <time>2010-03-18T15:17:56.62</time>
      </trkpt>
      <trkpt lat="45.28435" lon="5.83152">
        <ele>828</ele>
        <time>2010-03-18T15:18:06.62</time>
      </trkpt>
      <trkpt lat="45.28444" lon="5.83146">
        <ele>829</ele>
        <time>2010-03-18T15:18:16.61</time>
      </trkpt>
      <trkpt lat="45.28452" lon="5.83142">
        <ele>830</ele>
        <time>2010-03-18T15:18:26.61</time>
      </trkpt>
      <trkpt lat="45.28458" lon="5.83142">
        <ele>831</ele>
        <time>2010-03-18T15:18:36.61</time>
      </trkpt>
      <trkpt lat="45.28462" lon="5.83145">
        <ele>832</ele>
        <time>2010-03-18T15:18:46.60</time>
      </trkpt>
      <trkpt lat="45.28466" lon="5.83143">
        <ele>833</ele>
        <time>2010-03-18T15:18:56.60</time>
      </trkpt>
      <trkpt lat="45.28473" lon="5.83145">
        <ele>835</ele>
        <time>2010-03-18T15:19:06.60</time>
      </trkpt>
      <trkpt lat="45.28481" lon="5.83143">
        <ele>836</ele>
        <time>2010-03-18T15:19:16.60</time>
      </trkpt>
      <trkpt lat="45.28486" lon="5.83149">
        <ele>838</ele>
        <time>2010-03-18T15:19:26.59</time>
      </trkpt>
      <trkpt lat="45.28489" lon="5.83147">
        <ele>838</ele>
        <time>2010-03-18T15:19:36.59</time>
      </trkpt>
      <trkpt lat="45.28495" lon="5.83152">
        <ele>842</ele>
        <time>2010-03-18T15:19:46.59</time>
      </trkpt>
      <trkpt lat="45.28499" lon="5.83151">
        <ele>841</ele>
        <time>2010-03-18T15:19:56.59</time>
      </trkpt>
      <trkpt lat="45.28505" lon="5.83154">
        <ele>851</ele>
        <time>2010-03-18T15:20:07.58</time>
      </trkpt>
      <trkpt lat="45.28509" lon="5.83144">
        <ele>850</ele>
        <time>2010-03-18T15:20:18.58</time>
      </trkpt>
      <trkpt lat="45.28519" lon="5.83146">
        <ele>851</ele>
        <time>2010-03-18T15:20:28.58</time>
      </trkpt>
      <trkpt lat="45.28526" lon="5.83143">
        <ele>851</ele>
        <time>2010-03-18T15:20:38.57</time>
      </trkpt>
      <trkpt lat="45.28533" lon="5.83138">
        <ele>851</ele>
        <time>2010-03-18T15:20:48.57</time>
      </trkpt>
      <trkpt lat="45.28541" lon="5.83139">
        <ele>853</ele>
        <time>2010-03-18T15:20:58.56</time>
      </trkpt>
      <trkpt lat="45.28547" lon="5.83141">
        <ele>854</ele>
        <time>2010-03-18T15:21:08.56</time>
      </trkpt>
      <trkpt lat="45.28555" lon="5.83146">
        <ele>856</ele>
        <time>2010-03-18T15:21:18.57</time>
      </trkpt>
      <trkpt lat="45.2856" lon="5.83146">
        <ele>857</ele>
        <time>2010-03-18T15:21:28.56</time>
      </trkpt>
      <trkpt lat="45.28566" lon="5.83145">
        <ele>858</ele>
        <time>2010-03-18T15:21:38.55</time>
      </trkpt>
      <trkpt lat="45.28571" lon="5.83139">
        <ele>857</ele>
        <time>2010-03-18T15:21:48.55</time>
      </trkpt>
      <trkpt lat="45.28573" lon="5.83136">
        <ele>856</ele>
        <time>2010-03-18T15:21:58.55</time>
      </trkpt>
      <trkpt lat="45.28579" lon="5.83133">
        <ele>856</ele>
        <time>2010-03-18T15:22:08.54</time>
      </trkpt>
      <trkpt lat="45.28586" lon="5.83129">
        <ele>870</ele>
        <time>2010-03-18T15:22:18.54</time>
      </trkpt>
      <trkpt lat="45.28591" lon="5.83121">
        <ele>868</ele>
        <time>2010-03-18T15:22:28.55</time>
      </trkpt>
      <trkpt lat="45.28599" lon="5.83118">
        <ele>868</ele>
        <time>2010-03-18T15:22:38.53</time>
      </trkpt>
      <trkpt lat="45.28604" lon="5.83114">
        <ele>868</ele>
        <time>2010-03-18T15:22:48.54</time>
      </trkpt>
      <trkpt lat="45.28609" lon="5.83115">
        <ele>869</ele>
        <time>2010-03-18T15:22:58.53</time>
      </trkpt>
      <trkpt lat="45.28611" lon="5.83115">
        <ele>869</ele>
        <time>2010-03-18T15:23:08.52</time>
      </trkpt>
      <trkpt lat="45.28613" lon="5.83117">
        <ele>870</ele>
        <time>2010-03-18T15:23:18.52</time>
      </trkpt>
      <trkpt lat="45.28617" lon="5.83111">
        <ele>870</ele>
        <time>2010-03-18T15:23:28.52</time>
      </trkpt>
      <trkpt lat="45.28621" lon="5.83112">
        <ele>871</ele>
        <time>2010-03-18T15:23:38.53</time>
      </trkpt>
      <trkpt lat="45.28627" lon="5.83111">
        <ele>872</ele>
        <time>2010-03-18T15:23:48.51</time>
      </trkpt>
      <trkpt lat="45.28631" lon="5.83109">
        <ele>872</ele>
        <time>2010-03-18T15:23:58.51</time>
      </trkpt>
      <trkpt lat="45.28634" lon="5.83104">
        <ele>872</ele>
        <time>2010-03-18T15:24:08.51</time>
      </trkpt>
      <trkpt lat="45.28637" lon="5.83102">
        <ele>872</ele>
        <time>2010-03-18T15:24:18.50</time>
      </trkpt>
      <trkpt lat="45.2864" lon="5.83099">
        <ele>872</ele>
        <time>2010-03-18T15:24:28.50</time>
      </trkpt>
      <trkpt lat="45.28646" lon="5.83098">
        <ele>873</ele>
        <time>2010-03-18T15:24:38.50</time>
      </trkpt>
      <trkpt lat="45.2865" lon="5.83095">
        <ele>873</ele>
        <time>2010-03-18T15:24:48.50</time>
      </trkpt>
      <trkpt lat="45.28655" lon="5.83095">
        <ele>873</ele>
        <time>2010-03-18T15:24:58.49</time>
      </trkpt>
      <trkpt lat="45.28659" lon="5.8309">
        <ele>873</ele>
        <time>2010-03-18T15:25:08.50</time>
      </trkpt>
      <trkpt lat="45.28667" lon="5.83089">
        <ele>873</ele>
        <time>2010-03-18T15:25:18.49</time>
      </trkpt>
      <trkpt lat="45.28673" lon="5.83088">
        <ele>881</ele>
        <time>2010-03-18T15:25:28.49</time>
      </trkpt>
      <trkpt lat="45.28675" lon="5.83084">
        <ele>882</ele>
        <time>2010-03-18T15:25:38.49</time>
      </trkpt>
      <trkpt lat="45.28677" lon="5.83082">
        <ele>879</ele>
        <time>2010-03-18T15:25:48.49</time>
      </trkpt>
      <trkpt lat="45.28688" lon="5.83076">
        <ele>885</ele>
        <time>2010-03-18T15:25:59.49</time>
      </trkpt>
      <trkpt lat="45.2869" lon="5.83062">
        <ele>887</ele>
        <time>2010-03-18T15:26:10.47</time>
      </trkpt>
      <trkpt lat="45.28693" lon="5.83064">
        <ele>887</ele>
        <time>2010-03-18T15:26:20.47</time>
      </trkpt>
      <trkpt lat="45.28695" lon="5.83068">
        <ele>888</ele>
        <time>2010-03-18T15:26:30.47</time>
      </trkpt>
      <trkpt lat="45.28696" lon="5.8307">
        <ele>888</ele>
        <time>2010-03-18T15:26:40.47</time>
      </trkpt>
      <trkpt lat="45.287" lon="5.83073">
        <ele>888</ele>
        <time>2010-03-18T15:26:50.46</time>
      </trkpt>
      <trkpt lat="45.28702" lon="5.83076">
        <ele>889</ele>
        <time>2010-03-18T15:27:00.46</time>
      </trkpt>
      <trkpt lat="45.28703" lon="5.83078">
        <ele>889</ele>
        <time>2010-03-18T15:27:10.46</time>
      </trkpt>
      <trkpt lat="45.28703" lon="5.83077">
        <ele>889</ele>
        <time>2010-03-18T15:27:20.45</time>
      </trkpt>
      <trkpt lat="45.28704" lon="5.83076">
        <ele>890</ele>
        <time>2010-03-18T15:27:30.46</time>
      </trkpt>
      <trkpt lat="45.28704" lon="5.83072">
        <ele>890</ele>
        <time>2010-03-18T15:27:40.46</time>
      </trkpt>
      <trkpt lat="45.28705" lon="5.83071">
        <ele>890</ele>
        <time>2010-03-18T15:27:50.45</time>
      </trkpt>
      <trkpt lat="45.28708" lon="5.83071">
        <ele>891</ele>
        <time>2010-03-18T15:28:00.45</time>
      </trkpt>
      <trkpt lat="45.28707" lon="5.83073">
        <ele>891</ele>
        <time>2010-03-18T15:28:10.44</time>
      </trkpt>
      <trkpt lat="45.287" lon="5.83068">
        <ele>889</ele>
        <time>2010-03-18T15:28:20.44</time>
      </trkpt>
      <trkpt lat="45.28696" lon="5.83062">
        <ele>889</ele>
        <time>2010-03-18T15:28:30.43</time>
      </trkpt>
      <trkpt lat="45.28697" lon="5.83062">
        <ele>889</ele>
        <time>2010-03-18T15:28:40.43</time>
      </trkpt>
      <trkpt lat="45.28697" lon="5.83063">
        <ele>889</ele>
        <time>2010-03-18T15:28:50.43</time>
      </trkpt>
      <trkpt lat="45.28698" lon="5.83065">
        <ele>889</ele>
        <time>2010-03-18T15:29:00.42</time>
      </trkpt>
      <trkpt lat="45.28698" lon="5.83067">
        <ele>888</ele>
        <time>2010-03-18T15:29:10.42</time>
      </trkpt>
      <trkpt lat="45.28697" lon="5.83072">
        <ele>888</ele>
        <time>2010-03-18T15:29:20.42</time>
      </trkpt>
      <trkpt lat="45.28692" lon="5.83087">
        <ele>893</ele>
        <time>2010-03-18T15:29:32.42</time>
      </trkpt>
      <trkpt lat="45.28697" lon="5.83106">
        <ele>898</ele>
        <time>2010-03-18T15:29:44.41</time>
      </trkpt>
      <trkpt lat="45.28702" lon="5.83101">
        <ele>899</ele>
        <time>2010-03-18T15:29:55.41</time>
      </trkpt>
      <trkpt lat="45.28705" lon="5.8309">
        <ele>898</ele>
        <time>2010-03-18T15:30:05.41</time>
      </trkpt>
      <trkpt lat="45.28705" lon="5.83087">
        <ele>898</ele>
        <time>2010-03-18T15:30:16.41</time>
      </trkpt>
      <trkpt lat="45.28705" lon="5.83082">
        <ele>890</ele>
        <time>2010-03-18T15:30:26.41</time>
      </trkpt>
      <trkpt lat="45.287" lon="5.83068">
        <ele>889</ele>
        <time>2010-03-18T15:30:38.40</time>
      </trkpt>
      <trkpt lat="45.28699" lon="5.83067">
        <ele>889</ele>
        <time>2010-03-18T15:30:48.39</time>
      </trkpt>
      <trkpt lat="45.28701" lon="5.83066">
        <ele>889</ele>
        <time>2010-03-18T15:30:58.39</time>
      </trkpt>
      <trkpt lat="45.28701" lon="5.83067">
        <ele>889</ele>
        <time>2010-03-18T15:31:08.39</time>
      </trkpt>
      <trkpt lat="45.28702" lon="5.83067">
        <ele>890</ele>
        <time>2010-03-18T15:31:18.39</time>
      </trkpt>
      <trkpt lat="45.28704" lon="5.83069">
        <ele>890</ele>
        <time>2010-03-18T15:31:28.38</time>
      </trkpt>
      <trkpt lat="45.28705" lon="5.83064">
        <ele>890</ele>
        <time>2010-03-18T15:31:38.38</time>
      </trkpt>
      <trkpt lat="45.28704" lon="5.83059">
        <ele>890</ele>
        <time>2010-03-18T15:31:48.38</time>
      </trkpt>
      <trkpt lat="45.28706" lon="5.83055">
        <ele>891</ele>
        <time>2010-03-18T15:31:58.38</time>
      </trkpt>
      <trkpt lat="45.28705" lon="5.83057">
        <ele>891</ele>
        <time>2010-03-18T15:32:08.37</time>
      </trkpt>
      <trkpt lat="45.28702" lon="5.83059">
        <ele>890</ele>
        <time>2010-03-18T15:32:18.37</time>
      </trkpt>
      <trkpt lat="45.28701" lon="5.8306">
        <ele>890</ele>
        <time>2010-03-18T15:32:28.36</time>
      </trkpt>
      <trkpt lat="45.28698" lon="5.83059">
        <ele>889</ele>
        <time>2010-03-18T15:32:38.36</time>
      </trkpt>
      <trkpt lat="45.28699" lon="5.83055">
        <ele>890</ele>
        <time>2010-03-18T15:32:48.37</time>
      </trkpt>
      <trkpt lat="45.28702" lon="5.83053">
        <ele>890</ele>
        <time>2010-03-18T15:32:58.36</time>
      </trkpt>
      <trkpt lat="45.28702" lon="5.83052">
        <ele>890</ele>
        <time>2010-03-18T15:33:08.35</time>
      </trkpt>
      <trkpt lat="45.28702" lon="5.83051">
        <ele>890</ele>
        <time>2010-03-18T15:33:18.35</time>
      </trkpt>
      <trkpt lat="45.28702" lon="5.83051">
        <ele>890</ele>
        <time>2010-03-18T15:33:28.36</time>
      </trkpt>
      <trkpt lat="45.28703" lon="5.83051">
        <ele>891</ele>
        <time>2010-03-18T15:33:38.35</time>
      </trkpt>
      <trkpt lat="45.28698" lon="5.8305">
        <ele>890</ele>
        <time>2010-03-18T15:33:49.34</time>
      </trkpt>
      <trkpt lat="45.28695" lon="5.83048">
        <ele>889</ele>
        <time>2010-03-18T15:33:59.34</time>
      </trkpt>
      <trkpt lat="45.28695" lon="5.83045">
        <ele>889</ele>
        <time>2010-03-18T15:34:10.34</time>
      </trkpt>
      <trkpt lat="45.2869" lon="5.83042">
        <ele>889</ele>
        <time>2010-03-18T15:34:21.33</time>
      </trkpt>
      <trkpt lat="45.28694" lon="5.83046">
        <ele>889</ele>
        <time>2010-03-18T15:34:31.33</time>
      </trkpt>
      <trkpt lat="45.28692" lon="5.83048">
        <ele>889</ele>
        <time>2010-03-18T15:34:41.33</time>
      </trkpt>
      <trkpt lat="45.28695" lon="5.8305">
        <ele>889</ele>
        <time>2010-03-18T15:34:51.33</time>
      </trkpt>
      <trkpt lat="45.28697" lon="5.83051">
        <ele>890</ele>
        <time>2010-03-18T15:35:01.32</time>
      </trkpt>
      <trkpt lat="45.28696" lon="5.83051">
        <ele>889</ele>
        <time>2010-03-18T15:35:11.32</time>
      </trkpt>
      <trkpt lat="45.28697" lon="5.83049">
        <ele>890</ele>
        <time>2010-03-18T15:35:21.32</time>
      </trkpt>
      <trkpt lat="45.28704" lon="5.83037">
        <ele>891</ele>
        <time>2010-03-18T15:35:33.31</time>
      </trkpt>
      <trkpt lat="45.28705" lon="5.83038">
        <ele>892</ele>
        <time>2010-03-18T15:35:45.31</time>
      </trkpt>
      <trkpt lat="45.28701" lon="5.83048">
        <ele>890</ele>
        <time>2010-03-18T15:35:55.30</time>
      </trkpt>
      <trkpt lat="45.28692" lon="5.8306">
        <ele>888</ele>
        <time>2010-03-18T15:36:07.30</time>
      </trkpt>
      <trkpt lat="45.28693" lon="5.83063">
        <ele>888</ele>
        <time>2010-03-18T15:36:17.31</time>
      </trkpt>
      <trkpt lat="45.28703" lon="5.83062">
        <ele>890</ele>
        <time>2010-03-18T15:36:30.30</time>
      </trkpt>
      <trkpt lat="45.287" lon="5.83066">
        <ele>889</ele>
        <time>2010-03-18T15:36:41.29</time>
      </trkpt>
      <trkpt lat="45.28699" lon="5.83068">
        <ele>889</ele>
        <time>2010-03-18T15:36:51.27</time>
      </trkpt>
      <trkpt lat="45.28695" lon="5.83088">
        <ele>894</ele>
        <time>2010-03-18T15:37:04.29</time>
      </trkpt>
      <trkpt lat="45.28699" lon="5.83082">
        <ele>888</ele>
        <time>2010-03-18T15:37:14.28</time>
      </trkpt>
      <trkpt lat="45.2869" lon="5.83073">
        <ele>886</ele>
        <time>2010-03-18T15:37:25.28</time>
      </trkpt>
      <trkpt lat="45.28693" lon="5.83072">
        <ele>887</ele>
        <time>2010-03-18T15:37:35.28</time>
      </trkpt>
      <trkpt lat="45.28695" lon="5.83069">
        <ele>888</ele>
        <time>2010-03-18T15:37:45.27</time>
      </trkpt>
      <trkpt lat="45.28693" lon="5.83071">
        <ele>887</ele>
        <time>2010-03-18T15:37:55.27</time>
      </trkpt>
      <trkpt lat="45.28693" lon="5.83069">
        <ele>887</ele>
        <time>2010-03-18T15:38:05.27</time>
      </trkpt>
      <trkpt lat="45.28693" lon="5.83068">
        <ele>887</ele>
        <time>2010-03-18T15:38:15.26</time>
      </trkpt>
      <trkpt lat="45.2869" lon="5.83072">
        <ele>886</ele>
        <time>2010-03-18T15:38:26.26</time>
      </trkpt>
      <trkpt lat="45.28686" lon="5.83078">
        <ele>884</ele>
        <time>2010-03-18T15:38:37.26</time>
      </trkpt>
      <trkpt lat="45.28685" lon="5.8307">
        <ele>885</ele>
        <time>2010-03-18T15:38:47.26</time>
      </trkpt>
      <trkpt lat="45.2868" lon="5.83058">
        <ele>886</ele>
        <time>2010-03-18T15:38:58.25</time>
      </trkpt>
      <trkpt lat="45.2867" lon="5.83039">
        <ele>887</ele>
        <time>2010-03-18T15:39:09.25</time>
      </trkpt>
      <trkpt lat="45.28669" lon="5.83033">
        <ele>887</ele>
        <time>2010-03-18T15:39:19.25</time>
      </trkpt>
      <trkpt lat="45.28649" lon="5.83036">
        <ele>870</ele>
        <time>2010-03-18T15:39:31.24</time>
      </trkpt>
      <trkpt lat="45.28617" lon="5.83041">
        <ele>865</ele>
        <time>2010-03-18T15:39:46.24</time>
      </trkpt>
      <trkpt lat="45.28612" lon="5.8303">
        <ele>865</ele>
        <time>2010-03-18T15:39:57.23</time>
      </trkpt>
      <trkpt lat="45.28608" lon="5.83023">
        <ele>865</ele>
        <time>2010-03-18T15:40:07.23</time>
      </trkpt>
      <trkpt lat="45.28604" lon="5.83016">
        <ele>865</ele>
        <time>2010-03-18T15:40:17.24</time>
      </trkpt>
      <trkpt lat="45.28594" lon="5.8301">
        <ele>864</ele>
        <time>2010-03-18T15:40:28.22</time>
      </trkpt>
      <trkpt lat="45.28589" lon="5.83012">
        <ele>864</ele>
        <time>2010-03-18T15:40:38.22</time>
      </trkpt>
      <trkpt lat="45.28579" lon="5.83012">
        <ele>855</ele>
        <time>2010-03-18T15:40:49.22</time>
      </trkpt>
      <trkpt lat="45.28569" lon="5.83007">
        <ele>853</ele>
        <time>2010-03-18T15:40:59.22</time>
      </trkpt>
      <trkpt lat="45.28561" lon="5.83014">
        <ele>850</ele>
        <time>2010-03-18T15:41:09.22</time>
      </trkpt>
      <trkpt lat="45.28574" lon="5.82988">
        <ele>865</ele>
        <time>2010-03-18T15:41:23.21</time>
      </trkpt>
      <trkpt lat="45.28564" lon="5.83006">
        <ele>852</ele>
        <time>2010-03-18T15:41:37.21</time>
      </trkpt>
      <trkpt lat="45.28558" lon="5.83001">
        <ele>850</ele>
        <time>2010-03-18T15:41:47.21</time>
      </trkpt>
      <trkpt lat="45.28551" lon="5.83002">
        <ele>848</ele>
        <time>2010-03-18T15:41:58.20</time>
      </trkpt>
      <trkpt lat="45.28544" lon="5.83001">
        <ele>846</ele>
        <time>2010-03-18T15:42:09.20</time>
      </trkpt>
      <trkpt lat="45.28537" lon="5.82998">
        <ele>859</ele>
        <time>2010-03-18T15:42:19.20</time>
      </trkpt>
      <trkpt lat="45.28534" lon="5.82992">
        <ele>859</ele>
        <time>2010-03-18T15:42:30.19</time>
      </trkpt>
      <trkpt lat="45.2853" lon="5.82989">
        <ele>858</ele>
        <time>2010-03-18T15:42:40.19</time>
      </trkpt>
      <trkpt lat="45.28517" lon="5.82986">
        <ele>853</ele>
        <time>2010-03-18T15:42:51.19</time>
      </trkpt>
      <trkpt lat="45.28507" lon="5.82985">
        <ele>850</ele>
        <time>2010-03-18T15:43:01.19</time>
      </trkpt>
      <trkpt lat="45.28494" lon="5.82983">
        <ele>838</ele>
        <time>2010-03-18T15:43:11.18</time>
      </trkpt>
      <trkpt lat="45.28481" lon="5.82976">
        <ele>839</ele>
        <time>2010-03-18T15:43:22.18</time>
      </trkpt>
      <trkpt lat="45.28457" lon="5.82963">
        <ele>839</ele>
        <time>2010-03-18T15:43:37.18</time>
      </trkpt>
      <trkpt lat="45.28418" lon="5.82942">
        <ele>840</ele>
        <time>2010-03-18T15:43:57.18</time>
      </trkpt>
      <trkpt lat="45.28364" lon="5.82924">
        <ele>816</ele>
        <time>2010-03-18T15:44:11.18</time>
      </trkpt>
      <trkpt lat="45.2834" lon="5.82923">
        <ele>811</ele>
        <time>2010-03-18T15:44:23.17</time>
      </trkpt>
      <trkpt lat="45.28315" lon="5.82919">
        <ele>799</ele>
        <time>2010-03-18T15:44:36.17</time>
      </trkpt>
      <trkpt lat="45.28279" lon="5.82923">
        <ele>790</ele>
        <time>2010-03-18T15:44:51.16</time>
      </trkpt>
      <trkpt lat="45.28263" lon="5.82923">
        <ele>787</ele>
        <time>2010-03-18T15:45:03.16</time>
      </trkpt>
      <trkpt lat="45.28224" lon="5.82918">
        <ele>776</ele>
        <time>2010-03-18T15:45:16.16</time>
      </trkpt>
      <trkpt lat="45.28165" lon="5.8291">
        <ele>775</ele>
        <time>2010-03-18T15:45:30.15</time>
      </trkpt>
      <trkpt lat="45.2811" lon="5.8293">
        <ele>760</ele>
        <time>2010-03-18T15:45:48.14</time>
      </trkpt>
      <trkpt lat="45.2809" lon="5.82941">
        <ele>758</ele>
        <time>2010-03-18T15:46:01.14</time>
      </trkpt>
      <trkpt lat="45.28075" lon="5.82949">
        <ele>746</ele>
        <time>2010-03-18T15:46:11.14</time>
      </trkpt>
      <trkpt lat="45.2807" lon="5.82952">
        <ele>745</ele>
        <time>2010-03-18T15:46:21.13</time>
      </trkpt>
      <trkpt lat="45.28067" lon="5.82956">
        <ele>744</ele>
        <time>2010-03-18T15:46:31.13</time>
      </trkpt>
      <trkpt lat="45.28061" lon="5.82962">
        <ele>742</ele>
        <time>2010-03-18T15:46:41.13</time>
      </trkpt>
      <trkpt lat="45.28059" lon="5.82965">
        <ele>742</ele>
        <time>2010-03-18T15:46:51.12</time>
      </trkpt>
      <trkpt lat="45.28053" lon="5.82969">
        <ele>740</ele>
        <time>2010-03-18T15:47:01.12</time>
      </trkpt>
      <trkpt lat="45.28055" lon="5.8298">
        <ele>740</ele>
        <time>2010-03-18T15:47:13.12</time>
      </trkpt>
      <trkpt lat="45.28041" lon="5.82978">
        <ele>738</ele>
        <time>2010-03-18T15:47:24.11</time>
      </trkpt>
      <trkpt lat="45.28034" lon="5.82979">
        <ele>737</ele>
        <time>2010-03-18T15:47:34.11</time>
      </trkpt>
      <trkpt lat="45.28032" lon="5.82976">
        <ele>737</ele>
        <time>2010-03-18T15:47:44.11</time>
      </trkpt>
      <trkpt lat="45.28031" lon="5.82975">
        <ele>737</ele>
        <time>2010-03-18T15:47:54.11</time>
      </trkpt>
      <trkpt lat="45.28029" lon="5.82969">
        <ele>737</ele>
        <time>2010-03-18T15:48:04.10</time>
      </trkpt>
      <trkpt lat="45.28026" lon="5.8296">
        <ele>738</ele>
        <time>2010-03-18T15:48:14.10</time>
      </trkpt>
      <trkpt lat="45.28026" lon="5.82958">
        <ele>738</ele>
        <time>2010-03-18T15:48:24.09</time>
      </trkpt>
      <trkpt lat="45.28026" lon="5.82958">
        <ele>738</ele>
        <time>2010-03-18T15:48:34.09</time>
      </trkpt>
      <trkpt lat="45.28026" lon="5.82959">
        <ele>738</ele>
        <time>2010-03-18T15:48:44.09</time>
      </trkpt>
      <trkpt lat="45.28023" lon="5.82961">
        <ele>738</ele>
        <time>2010-03-18T15:48:54.09</time>
      </trkpt>
      <trkpt lat="45.28026" lon="5.82965">
        <ele>737</ele>
        <time>2010-03-18T15:49:04.08</time>
      </trkpt>
      <trkpt lat="45.28009" lon="5.82941">
        <ele>738</ele>
        <time>2010-03-18T15:49:17.09</time>
      </trkpt>
      <trkpt lat="45.27956" lon="5.8289">
        <ele>732</ele>
        <time>2010-03-18T15:49:32.08</time>
      </trkpt>
      <trkpt lat="45.27917" lon="5.82878">
        <ele>728</ele>
        <time>2010-03-18T15:49:47.07</time>
      </trkpt>
      <trkpt lat="45.27866" lon="5.82845">
        <ele>714</ele>
        <time>2010-03-18T15:50:03.07</time>
      </trkpt>
      <trkpt lat="45.27738" lon="5.82882">
        <ele>689</ele>
        <time>2010-03-18T15:50:21.07</time>
      </trkpt>
      <trkpt lat="45.27642" lon="5.82932">
        <ele>668</ele>
        <time>2010-03-18T15:50:37.07</time>
      </trkpt>
      <trkpt lat="45.27559" lon="5.82904">
        <ele>671</ele>
        <time>2010-03-18T15:50:51.05</time>
      </trkpt>
      <trkpt lat="45.27421" lon="5.82904">
        <ele>646</ele>
        <time>2010-03-18T15:51:09.06</time>
      </trkpt>
      <trkpt lat="45.27339" lon="5.82965">
        <ele>631</ele>
        <time>2010-03-18T15:51:25.05</time>
      </trkpt>
      <trkpt lat="45.27337" lon="5.82971">
        <ele>630</ele>
        <time>2010-03-18T15:51:36.05</time>
      </trkpt>
      <trkpt lat="45.27319" lon="5.82997">
        <ele>630</ele>
        <time>2010-03-18T15:51:48.05</time>
      </trkpt>
      <trkpt lat="45.2725" lon="5.8307">
        <ele>613</ele>
        <time>2010-03-18T15:52:03.04</time>
      </trkpt>
      <trkpt lat="45.27245" lon="5.83094">
        <ele>604</ele>
        <time>2010-03-18T15:52:14.04</time>
      </trkpt>
      <trkpt lat="45.27255" lon="5.8311">
        <ele>604</ele>
        <time>2010-03-18T15:52:25.04</time>
      </trkpt>
      <trkpt lat="45.27248" lon="5.83122">
        <ele>600</ele>
        <time>2010-03-18T15:52:35.04</time>
      </trkpt>
      <trkpt lat="45.27248" lon="5.83129">
        <ele>599</ele>
        <time>2010-03-18T15:52:45.03</time>
      </trkpt>
      <trkpt lat="45.27251" lon="5.83137">
        <ele>602</ele>
        <time>2010-03-18T15:52:55.03</time>
      </trkpt>
      <trkpt lat="45.27251" lon="5.8314">
        <ele>601</ele>
        <time>2010-03-18T15:53:06.03</time>
      </trkpt>
      <trkpt lat="45.27251" lon="5.83143">
        <ele>601</ele>
        <time>2010-03-18T15:53:16.03</time>
      </trkpt>
      <trkpt lat="45.27252" lon="5.83146">
        <ele>601</ele>
        <time>2010-03-18T15:53:26.03</time>
      </trkpt>
      <trkpt lat="45.27254" lon="5.83145">
        <ele>601</ele>
        <time>2010-03-18T15:53:36.02</time>
      </trkpt>
      <trkpt lat="45.27254" lon="5.83146">
        <ele>601</ele>
        <time>2010-03-18T15:53:46.02</time>
      </trkpt>
      <trkpt lat="45.27254" lon="5.83146">
        <ele>601</ele>
        <time>2010-03-18T15:53:56.02</time>
      </trkpt>
      <trkpt lat="45.27254" lon="5.83146">
        <ele>601</ele>
        <time>2010-03-18T15:54:06.02</time>
      </trkpt>
      <trkpt lat="45.27254" lon="5.83146">
        <ele>601</ele>
        <time>2010-03-18T15:54:16.02</time>
      </trkpt>
      <trkpt lat="45.27254" lon="5.83146">
        <ele>601</ele>
        <time>2010-03-18T15:54:26.01</time>
      </trkpt>
      <trkpt lat="45.27255" lon="5.83146">
        <ele>601</ele>
        <time>2010-03-18T15:54:36.01</time>
      </trkpt>
      <trkpt lat="45.27255" lon="5.83147">
        <ele>601</ele>
        <time>2010-03-18T15:54:46.01</time>
      </trkpt>
      <trkpt lat="45.27234" lon="5.83166">
        <ele>596</ele>
        <time>2010-03-18T15:54:56.01</time>
      </trkpt>
      <trkpt lat="45.27215" lon="5.83237">
        <ele>586</ele>
        <time>2010-03-18T15:55:07.01</time>
      </trkpt>
      <trkpt lat="45.27213" lon="5.83285">
        <ele>584</ele>
        <time>2010-03-18T15:55:17.01</time>
      </trkpt>
      <trkpt lat="45.27216" lon="5.83299">
        <ele>584</ele>
        <time>2010-03-18T15:55:27.00</time>
      </trkpt>
      <trkpt lat="45.27216" lon="5.83304">
        <ele>584</ele>
        <time>2010-03-18T15:55:37.00</time>
      </trkpt>
      <trkpt lat="45.27218" lon="5.83307">
        <ele>584</ele>
        <time>2010-03-18T15:55:47.00</time>
      </trkpt>
      <trkpt lat="45.27219" lon="5.83308">
        <ele>584</ele>
        <time>2010-03-18T15:55:57.00</time>
      </trkpt>
      <trkpt lat="45.27226" lon="5.83315">
        <ele>585</ele>
        <time>2010-03-18T15:56:06.99</time>
      </trkpt>
      <trkpt lat="45.27234" lon="5.83322">
        <ele>586</ele>
        <time>2010-03-18T15:56:18.00</time>
      </trkpt>
      <trkpt lat="45.27243" lon="5.83327">
        <ele>588</ele>
        <time>2010-03-18T15:56:27.99</time>
      </trkpt>
      <trkpt lat="45.27253" lon="5.8333">
        <ele>591</ele>
        <time>2010-03-18T15:56:37.99</time>
      </trkpt>
      <trkpt lat="45.27263" lon="5.83333">
        <ele>593</ele>
        <time>2010-03-18T15:56:47.98</time>
      </trkpt>
      <trkpt lat="45.27273" lon="5.83334">
        <ele>594</ele>
        <time>2010-03-18T15:56:57.98</time>
      </trkpt>
      <trkpt lat="45.27283" lon="5.83333">
        <ele>596</ele>
        <time>2010-03-18T15:57:07.98</time>
      </trkpt>
      <trkpt lat="45.27294" lon="5.8333">
        <ele>597</ele>
        <time>2010-03-18T15:57:18.97</time>
      </trkpt>
      <trkpt lat="45.27304" lon="5.83331">
        <ele>598</ele>
        <time>2010-03-18T15:57:28.97</time>
      </trkpt>
      <trkpt lat="45.27314" lon="5.83329">
        <ele>599</ele>
        <time>2010-03-18T15:57:38.97</time>
      </trkpt>
      <trkpt lat="45.27323" lon="5.83329">
        <ele>601</ele>
        <time>2010-03-18T15:57:48.97</time>
      </trkpt>
      <trkpt lat="45.2733" lon="5.8333">
        <ele>602</ele>
        <time>2010-03-18T15:57:58.96</time>
      </trkpt>
      <trkpt lat="45.2734" lon="5.83328">
        <ele>606</ele>
        <time>2010-03-18T15:58:08.96</time>
      </trkpt>
      <trkpt lat="45.27349" lon="5.83329">
        <ele>607</ele>
        <time>2010-03-18T15:58:18.96</time>
      </trkpt>
      <trkpt lat="45.27357" lon="5.8333">
        <ele>609</ele>
        <time>2010-03-18T15:58:28.96</time>
      </trkpt>
      <trkpt lat="45.27372" lon="5.83328">
        <ele>611</ele>
        <time>2010-03-18T15:58:39.95</time>
      </trkpt>
      <trkpt lat="45.27384" lon="5.83326">
        <ele>613</ele>
        <time>2010-03-18T15:58:49.95</time>
      </trkpt>
      <trkpt lat="45.27397" lon="5.83325">
        <ele>615</ele>
        <time>2010-03-18T15:59:00.95</time>
      </trkpt>
      <trkpt lat="45.27407" lon="5.83324">
        <ele>617</ele>
        <time>2010-03-18T15:59:10.95</time>
      </trkpt>
      <trkpt lat="45.27416" lon="5.83322">
        <ele>618</ele>
        <time>2010-03-18T15:59:21.94</time>
      </trkpt>
      <trkpt lat="45.27424" lon="5.83318">
        <ele>624</ele>
        <time>2010-03-18T15:59:32.94</time>
      </trkpt>
      <trkpt lat="45.27426" lon="5.83314">
        <ele>624</ele>
        <time>2010-03-18T15:59:42.94</time>
      </trkpt>
      <trkpt lat="45.27427" lon="5.83307">
        <ele>624</ele>
        <time>2010-03-18T15:59:53.94</time>
      </trkpt>
      <trkpt lat="45.27394" lon="5.83299">
        <ele>614</ele>
        <time>2010-03-18T16:00:03.93</time>
      </trkpt>
      <trkpt lat="45.27365" lon="5.83312">
        <ele>611</ele>
        <time>2010-03-18T16:00:14.93</time>
      </trkpt>
      <trkpt lat="45.27322" lon="5.83329">
        <ele>600</ele>
        <time>2010-03-18T16:00:25.92</time>
      </trkpt>
      <trkpt lat="45.27283" lon="5.83368">
        <ele>595</ele>
        <time>2010-03-18T16:00:38.93</time>
      </trkpt>
      <trkpt lat="45.27285" lon="5.83371">
        <ele>596</ele>
        <time>2010-03-18T16:00:48.93</time>
      </trkpt>
      <trkpt lat="45.27282" lon="5.83372">
        <ele>595</ele>
        <time>2010-03-18T16:00:58.92</time>
      </trkpt>
      <trkpt lat="45.27265" lon="5.83371">
        <ele>594</ele>
        <time>2010-03-18T16:01:08.92</time>
      </trkpt>
      <trkpt lat="45.27235" lon="5.83369">
        <ele>585</ele>
        <time>2010-03-18T16:01:20.92</time>
      </trkpt>
      <trkpt lat="45.2721" lon="5.83378">
        <ele>583</ele>
        <time>2010-03-18T16:01:30.92</time>
      </trkpt>
      <trkpt lat="45.27182" lon="5.83385">
        <ele>581</ele>
        <time>2010-03-18T16:01:41.92</time>
      </trkpt>
      <trkpt lat="45.27158" lon="5.83388">
        <ele>573</ele>
        <time>2010-03-18T16:01:51.91</time>
      </trkpt>
      <trkpt lat="45.27107" lon="5.83397">
        <ele>569</ele>
        <time>2010-03-18T16:02:05.91</time>
      </trkpt>
      <trkpt lat="45.27056" lon="5.83419">
        <ele>558</ele>
        <time>2010-03-18T16:02:22.90</time>
      </trkpt>
      <trkpt lat="45.27024" lon="5.83449">
        <ele>555</ele>
        <time>2010-03-18T16:02:36.90</time>
      </trkpt>
      <trkpt lat="45.26933" lon="5.83478">
        <ele>542</ele>
        <time>2010-03-18T16:02:53.90</time>
      </trkpt>
      <trkpt lat="45.26899" lon="5.83514">
        <ele>532</ele>
        <time>2010-03-18T16:03:04.89</time>
      </trkpt>
      <trkpt lat="45.26818" lon="5.83559">
        <ele>519</ele>
        <time>2010-03-18T16:03:18.89</time>
      </trkpt>
      <trkpt lat="45.26755" lon="5.83579">
        <ele>512</ele>
        <time>2010-03-18T16:03:31.89</time>
      </trkpt>
      <trkpt lat="45.26736" lon="5.8359">
        <ele>508</ele>
        <time>2010-03-18T16:03:43.88</time>
      </trkpt>
      <trkpt lat="45.26712" lon="5.83601">
        <ele>505</ele>
        <time>2010-03-18T16:03:54.88</time>
      </trkpt>
      <trkpt lat="45.26686" lon="5.83607">
        <ele>503</ele>
        <time>2010-03-18T16:04:05.87</time>
      </trkpt>
      <trkpt lat="45.26667" lon="5.83612">
        <ele>503</ele>
        <time>2010-03-18T16:04:15.87</time>
      </trkpt>
      <trkpt lat="45.26644" lon="5.8363">
        <ele>494</ele>
        <time>2010-03-18T16:04:26.86</time>
      </trkpt>
      <trkpt lat="45.26605" lon="5.83668">
        <ele>489</ele>
        <time>2010-03-18T16:04:36.86</time>
      </trkpt>
      <trkpt lat="45.26555" lon="5.8372">
        <ele>480</ele>
        <time>2010-03-18T16:04:46.87</time>
      </trkpt>
      <trkpt lat="45.26534" lon="5.83762">
        <ele>477</ele>
        <time>2010-03-18T16:04:58.87</time>
      </trkpt>
      <trkpt lat="45.26536" lon="5.83774">
        <ele>477</ele>
        <time>2010-03-18T16:05:08.86</time>
      </trkpt>
      <trkpt lat="45.26537" lon="5.83779">
        <ele>477</ele>
        <time>2010-03-18T16:05:18.86</time>
      </trkpt>
      <trkpt lat="45.26535" lon="5.83785">
        <ele>477</ele>
        <time>2010-03-18T16:05:28.86</time>
      </trkpt>
      <trkpt lat="45.26527" lon="5.83788">
        <ele>476</ele>
        <time>2010-03-18T16:05:40.85</time>
      </trkpt>
      <trkpt lat="45.26526" lon="5.83789">
        <ele>476</ele>
        <time>2010-03-18T16:05:51.83</time>
      </trkpt>
      <trkpt lat="45.26525" lon="5.83789">
        <ele>476</ele>
        <time>2010-03-18T16:06:01.81</time>
      </trkpt>
      <trkpt lat="45.26525" lon="5.83789">
        <ele>476</ele>
        <time>2010-03-18T16:06:16.84</time>
      </trkpt>
      <trkpt lat="45.26525" lon="5.8379">
        <ele>476</ele>
        <time>2010-03-18T16:06:29.80</time>
      </trkpt>
      <trkpt lat="45.26524" lon="5.8379">
        <ele>476</ele>
        <time>2010-03-18T16:06:46.79</time>
      </trkpt>
      <trkpt lat="45.26524" lon="5.8379">
        <ele>476</ele>
        <time>2010-03-18T16:07:06.78</time>
      </trkpt>
      <trkpt lat="45.26524" lon="5.8379">
        <ele>476</ele>
        <time>2010-03-18T16:07:18.78</time>
      </trkpt>
      <trkpt lat="45.26523" lon="5.8379">
        <ele>476</ele>
        <time>2010-03-18T16:07:28.78</time>
      </trkpt>
      <trkpt lat="45.26522" lon="5.8379">
        <ele>476</ele>
        <time>2010-03-18T16:07:38.78</time>
      </trkpt>
      <trkpt lat="45.26522" lon="5.8379">
        <ele>476</ele>
        <time>2010-03-18T16:07:48.78</time>
      </trkpt>
      <trkpt lat="45.26522" lon="5.8379">
        <ele>476</ele>
        <time>2010-03-18T16:07:58.77</time>
      </trkpt>
      <trkpt lat="45.26522" lon="5.8379">
        <ele>476</ele>
        <time>2010-03-18T16:08:08.77</time>
      </trkpt>
      <trkpt lat="45.26522" lon="5.8379">
        <ele>476</ele>
        <time>2010-03-18T16:08:18.77</time>
      </trkpt>
      <trkpt lat="45.26522" lon="5.8379">
        <ele>476</ele>
        <time>2010-03-18T16:08:28.76</time>
      </trkpt>
      <trkpt lat="45.26522" lon="5.8379">
        <ele>476</ele>
        <time>2010-03-18T16:08:38.76</time>
      </trkpt>
      <trkpt lat="45.26522" lon="5.8379">
        <ele>476</ele>
        <time>2010-03-18T16:08:48.76</time>
      </trkpt>
      <trkpt lat="45.26522" lon="5.8379">
        <ele>476</ele>
        <time>2010-03-18T16:08:58.76</time>
      </trkpt>
      <trkpt lat="45.26522" lon="5.8379">
        <ele>476</ele>
        <time>2010-03-18T16:09:08.75</time>
      </trkpt>
      <trkpt lat="45.26522" lon="5.83791">
        <ele>476</ele>
        <time>2010-03-18T16:09:18.75</time>
      </trkpt>
      <trkpt lat="45.26522" lon="5.83791">
        <ele>476</ele>
        <time>2010-03-18T16:09:28.75</time>
      </trkpt>
      <trkpt lat="45.26523" lon="5.8379">
        <ele>476</ele>
        <time>2010-03-18T16:09:39.74</time>
      </trkpt>
      <trkpt lat="45.26525" lon="5.83789">
        <ele>476</ele>
        <time>2010-03-18T16:09:49.74</time>
      </trkpt>
      <trkpt lat="45.26526" lon="5.83789">
        <ele>476</ele>
        <time>2010-03-18T16:09:59.73</time>
      </trkpt>
      <trkpt lat="45.26525" lon="5.8379">
        <ele>476</ele>
        <time>2010-03-18T16:10:09.73</time>
      </trkpt>
      <trkpt lat="45.26524" lon="5.8379">
        <ele>476</ele>
        <time>2010-03-18T16:10:19.73</time>
      </trkpt>
      <trkpt lat="45.26522" lon="5.83791">
        <ele>476</ele>
        <time>2010-03-18T16:10:29.72</time>
      </trkpt>
      <trkpt lat="45.2652" lon="5.83791">
        <ele>476</ele>
        <time>2010-03-18T16:10:39.72</time>
      </trkpt>
      <trkpt lat="45.26523" lon="5.8379">
        <ele>476</ele>
        <time>2010-03-18T16:10:49.72</time>
      </trkpt>
      <trkpt lat="45.26523" lon="5.8379">
        <ele>476</ele>
        <time>2010-03-18T16:10:59.72</time>
      </trkpt>
      <trkpt lat="45.26524" lon="5.83792">
        <ele>476</ele>
        <time>2010-03-18T16:11:09.71</time>
      </trkpt>
      <trkpt lat="45.26524" lon="5.83793">
        <ele>476</ele>
        <time>2010-03-18T16:11:19.71</time>
      </trkpt>
      <trkpt lat="45.26513" lon="5.83772">
        <ele>476</ele>
        <time>2010-03-18T16:11:29.71</time>
      </trkpt>
      <trkpt lat="45.26492" lon="5.83712">
        <ele>471</ele>
        <time>2010-03-18T16:11:39.70</time>
      </trkpt>
      <trkpt lat="45.26475" lon="5.83691">
        <ele>470</ele>
        <time>2010-03-18T16:11:49.69</time>
      </trkpt>
      <trkpt lat="45.26443" lon="5.83703">
        <ele>468</ele>
        <time>2010-03-18T16:11:59.70</time>
      </trkpt>
      <trkpt lat="45.26405" lon="5.83716">
        <ele>459</ele>
        <time>2010-03-18T16:12:09.69</time>
      </trkpt>
      <trkpt lat="45.26354" lon="5.83747">
        <ele>456</ele>
        <time>2010-03-18T16:12:20.68</time>
      </trkpt>
      <trkpt lat="45.2633" lon="5.83729">
        <ele>451</ele>
        <time>2010-03-18T16:12:33.68</time>
      </trkpt>
      <trkpt lat="45.26329" lon="5.83729">
        <ele>451</ele>
        <time>2010-03-18T16:12:43.68</time>
      </trkpt>
      <trkpt lat="45.26327" lon="5.83705">
        <ele>451</ele>
        <time>2010-03-18T16:12:53.68</time>
      </trkpt>
      <trkpt lat="45.26328" lon="5.83696">
        <ele>452</ele>
        <time>2010-03-18T16:13:03.68</time>
      </trkpt>
      <trkpt lat="45.26317" lon="5.83668">
        <ele>453</ele>
        <time>2010-03-18T16:13:13.67</time>
      </trkpt>
      <trkpt lat="45.26309" lon="5.8363">
        <ele>453</ele>
        <time>2010-03-18T16:13:25.67</time>
      </trkpt>
      <trkpt lat="45.26307" lon="5.83629">
        <ele>453</ele>
        <time>2010-03-18T16:13:35.66</time>
      </trkpt>
      <trkpt lat="45.26299" lon="5.83621">
        <ele>452</ele>
        <time>2010-03-18T16:13:45.65</time>
      </trkpt>
      <trkpt lat="45.26299" lon="5.8362">
        <ele>452</ele>
        <time>2010-03-18T16:13:55.66</time>
      </trkpt>
      <trkpt lat="45.26298" lon="5.83621">
        <ele>452</ele>
        <time>2010-03-18T16:14:05.66</time>
      </trkpt>
      <trkpt lat="45.26297" lon="5.83621">
        <ele>452</ele>
        <time>2010-03-18T16:14:15.66</time>
      </trkpt>
      <trkpt lat="45.2627" lon="5.83627">
        <ele>451</ele>
        <time>2010-03-18T16:14:27.65</time>
      </trkpt>
      <trkpt lat="45.26227" lon="5.83641">
        <ele>443</ele>
        <time>2010-03-18T16:14:37.64</time>
      </trkpt>
      <trkpt lat="45.26181" lon="5.83646">
        <ele>440</ele>
        <time>2010-03-18T16:14:47.64</time>
      </trkpt>
      <trkpt lat="45.26141" lon="5.83661">
        <ele>434</ele>
        <time>2010-03-18T16:14:57.64</time>
      </trkpt>
      <trkpt lat="45.26139" lon="5.83663">
        <ele>434</ele>
        <time>2010-03-18T16:15:08.64</time>
      </trkpt>
      <trkpt lat="45.26139" lon="5.83663">
        <ele>434</ele>
        <time>2010-03-18T16:15:18.64</time>
      </trkpt>
      <trkpt lat="45.26111" lon="5.8365">
        <ele>431</ele>
        <time>2010-03-18T16:15:28.62</time>
      </trkpt>
      <trkpt lat="45.2604" lon="5.83662">
        <ele>423</ele>
        <time>2010-03-18T16:15:39.63</time>
      </trkpt>
      <trkpt lat="45.25984" lon="5.83677">
        <ele>415</ele>
        <time>2010-03-18T16:15:49.62</time>
      </trkpt>
      <trkpt lat="45.25917" lon="5.83686">
        <ele>410</ele>
        <time>2010-03-18T16:16:01.62</time>
      </trkpt>
      <trkpt lat="45.25909" lon="5.83691">
        <ele>404</ele>
        <time>2010-03-18T16:16:13.62</time>
      </trkpt>
      <trkpt lat="45.25906" lon="5.83695">
        <ele>404</ele>
        <time>2010-03-18T16:16:30.74</time>
      </trkpt>
      <trkpt lat="45.25905" lon="5.83702">
        <ele>404</ele>
        <time>2010-03-18T16:16:44.61</time>
      </trkpt>
      <trkpt lat="45.25889" lon="5.83693">
        <ele>403</ele>
        <time>2010-03-18T16:16:54.59</time>
      </trkpt>
      <trkpt lat="45.25865" lon="5.83669">
        <ele>402</ele>
        <time>2010-03-18T16:17:04.59</time>
      </trkpt>
      <trkpt lat="45.25833" lon="5.83629">
        <ele>396</ele>
        <time>2010-03-18T16:17:14.59</time>
      </trkpt>
      <trkpt lat="45.258" lon="5.83582">
        <ele>396</ele>
        <time>2010-03-18T16:17:24.57</time>
      </trkpt>
      <trkpt lat="45.25772" lon="5.83548">
        <ele>395</ele>
        <time>2010-03-18T16:17:36.57</time>
      </trkpt>
      <trkpt lat="45.2576" lon="5.83532">
        <ele>394</ele>
        <time>2010-03-18T16:17:46.57</time>
      </trkpt>
      <trkpt lat="45.25758" lon="5.83532">
        <ele>394</ele>
        <time>2010-03-18T16:17:56.57</time>
      </trkpt>
      <trkpt lat="45.25737" lon="5.83522">
        <ele>388</ele>
        <time>2010-03-18T16:18:08.57</time>
      </trkpt>
      <trkpt lat="45.25717" lon="5.83505">
        <ele>387</ele>
        <time>2010-03-18T16:18:18.56</time>
      </trkpt>
      <trkpt lat="45.2569" lon="5.83498">
        <ele>385</ele>
        <time>2010-03-18T16:18:28.55</time>
      </trkpt>
      <trkpt lat="45.25671" lon="5.8349">
        <ele>384</ele>
        <time>2010-03-18T16:18:38.56</time>
      </trkpt>
      <trkpt lat="45.25655" lon="5.83491">
        <ele>380</ele>
        <time>2010-03-18T16:18:48.55</time>
      </trkpt>
      <trkpt lat="45.25628" lon="5.83476">
        <ele>378</ele>
        <time>2010-03-18T16:18:58.55</time>
      </trkpt>
      <trkpt lat="45.25607" lon="5.83445">
        <ele>377</ele>
        <time>2010-03-18T16:19:08.54</time>
      </trkpt>
      <trkpt lat="45.25595" lon="5.83415">
        <ele>376</ele>
        <time>2010-03-18T16:19:18.54</time>
      </trkpt>
      <trkpt lat="45.25584" lon="5.8339">
        <ele>377</ele>
        <time>2010-03-18T16:19:28.53</time>
      </trkpt>
      <trkpt lat="45.25559" lon="5.83375">
        <ele>370</ele>
        <time>2010-03-18T16:19:38.54</time>
      </trkpt>
      <trkpt lat="45.25542" lon="5.83336">
        <ele>369</ele>
        <time>2010-03-18T16:19:48.53</time>
      </trkpt>
      <trkpt lat="45.25533" lon="5.83297">
        <ele>371</ele>
        <time>2010-03-18T16:19:58.52</time>
      </trkpt>
      <trkpt lat="45.25536" lon="5.83267">
        <ele>372</ele>
        <time>2010-03-18T16:20:08.53</time>
      </trkpt>
      <trkpt lat="45.25531" lon="5.83243">
        <ele>374</ele>
        <time>2010-03-18T16:20:18.53</time>
      </trkpt>
      <trkpt lat="45.2553" lon="5.83226">
        <ele>374</ele>
        <time>2010-03-18T16:20:28.52</time>
      </trkpt>
      <trkpt lat="45.25529" lon="5.83204">
        <ele>375</ele>
        <time>2010-03-18T16:20:38.52</time>
      </trkpt>
      <trkpt lat="45.25527" lon="5.83192">
        <ele>375</ele>
        <time>2010-03-18T16:20:48.52</time>
      </trkpt>
      <trkpt lat="45.25522" lon="5.83192">
        <ele>375</ele>
        <time>2010-03-18T16:20:58.51</time>
      </trkpt>
      <trkpt lat="45.25524" lon="5.83192">
        <ele>375</ele>
        <time>2010-03-18T16:21:08.51</time>
      </trkpt>
      <trkpt lat="45.25516" lon="5.8319">
        <ele>374</ele>
        <time>2010-03-18T16:21:19.51</time>
      </trkpt>
      <trkpt lat="45.25515" lon="5.83188">
        <ele>374</ele>
        <time>2010-03-18T16:21:29.50</time>
      </trkpt>
      <trkpt lat="45.2551" lon="5.83186">
        <ele>374</ele>
        <time>2010-03-18T16:21:39.50</time>
      </trkpt>
      <trkpt lat="45.25487" lon="5.8316">
        <ele>373</ele>
        <time>2010-03-18T16:21:50.50</time>
      </trkpt>
      <trkpt lat="45.25456" lon="5.83131">
        <ele>373</ele>
        <time>2010-03-18T16:22:01.50</time>
      </trkpt>
      <trkpt lat="45.25426" lon="5.8311">
        <ele>374</ele>
        <time>2010-03-18T16:22:13.49</time>
      </trkpt>
      <trkpt lat="45.25381" lon="5.83094">
        <ele>371</ele>
        <time>2010-03-18T16:22:27.48</time>
      </trkpt>
      <trkpt lat="45.25339" lon="5.83099">
        <ele>371</ele>
        <time>2010-03-18T16:22:38.48</time>
      </trkpt>
      <trkpt lat="45.25332" lon="5.83087">
        <ele>371</ele>
        <time>2010-03-18T16:22:48.47</time>
      </trkpt>
      <trkpt lat="45.25318" lon="5.83084">
        <ele>369</ele>
        <time>2010-03-18T16:22:58.47</time>
      </trkpt>
      <trkpt lat="45.25291" lon="5.83076">
        <ele>372</ele>
        <time>2010-03-18T16:23:10.47</time>
      </trkpt>
      <trkpt lat="45.25237" lon="5.83062">
        <ele>368</ele>
        <time>2010-03-18T16:23:27.47</time>
      </trkpt>
      <trkpt lat="45.25157" lon="5.83026">
        <ele>366</ele>
        <time>2010-03-18T16:23:47.46</time>
      </trkpt>
      <trkpt lat="45.25094" lon="5.82993">
        <ele>367</ele>
        <time>2010-03-18T16:24:07.46</time>
      </trkpt>
      <trkpt lat="45.2506" lon="5.82943">
        <ele>366</ele>
        <time>2010-03-18T16:24:27.45</time>
      </trkpt>
      <trkpt lat="45.25026" lon="5.82909">
        <ele>368</ele>
        <time>2010-03-18T16:24:47.45</time>
      </trkpt>
      <trkpt lat="45.24986" lon="5.82864">
        <ele>365</ele>
        <time>2010-03-18T16:25:06.45</time>
      </trkpt>
      <trkpt lat="45.24959" lon="5.82824">
        <ele>368</ele>
        <time>2010-03-18T16:25:22.45</time>
      </trkpt>
      <trkpt lat="45.24932" lon="5.82789">
        <ele>368</ele>
        <time>2010-03-18T16:25:36.44</time>
      </trkpt>
      <trkpt lat="45.24911" lon="5.82766">
        <ele>365</ele>
        <time>2010-03-18T16:25:47.45</time>
      </trkpt>
      <trkpt lat="45.2489" lon="5.82733">
        <ele>367</ele>
        <time>2010-03-18T16:26:00.44</time>
      </trkpt>
      <trkpt lat="45.24873" lon="5.82713">
        <ele>367</ele>
        <time>2010-03-18T16:26:11.44</time>
      </trkpt>
      <trkpt lat="45.24857" lon="5.82702">
        <ele>367</ele>
        <time>2010-03-18T16:26:24.44</time>
      </trkpt>
      <trkpt lat="45.24853" lon="5.82701">
        <ele>366</ele>
        <time>2010-03-18T16:26:34.44</time>
      </trkpt>
      <trkpt lat="45.24853" lon="5.82698">
        <ele>367</ele>
        <time>2010-03-18T16:26:44.43</time>
      </trkpt>
      <trkpt lat="45.24854" lon="5.82696">
        <ele>367</ele>
        <time>2010-03-18T16:26:54.43</time>
      </trkpt>
      <trkpt lat="45.24852" lon="5.82694">
        <ele>367</ele>
        <time>2010-03-18T16:27:05.43</time>
      </trkpt>
      <trkpt lat="45.24851" lon="5.82695">
        <ele>367</ele>
        <time>2010-03-18T16:27:15.42</time>
      </trkpt>
      <trkpt lat="45.24849" lon="5.82696">
        <ele>366</ele>
        <time>2010-03-18T16:27:26.42</time>
      </trkpt>
      <trkpt lat="45.24851" lon="5.82691">
        <ele>367</ele>
        <time>2010-03-18T16:27:37.42</time>
      </trkpt>
      <trkpt lat="45.24854" lon="5.82691">
        <ele>367</ele>
        <time>2010-03-18T16:27:48.42</time>
      </trkpt>
      <trkpt lat="45.24853" lon="5.8269">
        <ele>367</ele>
        <time>2010-03-18T16:27:58.41</time>
      </trkpt>
      <trkpt lat="45.24853" lon="5.82691">
        <ele>367</ele>
        <time>2010-03-18T16:28:08.41</time>
      </trkpt>
      <trkpt lat="45.24852" lon="5.82693">
        <ele>367</ele>
        <time>2010-03-18T16:28:18.40</time>
      </trkpt>
      <trkpt lat="45.2485" lon="5.82695">
        <ele>367</ele>
        <time>2010-03-18T16:28:28.40</time>
      </trkpt>
      <trkpt lat="45.24851" lon="5.82695">
        <ele>367</ele>
        <time>2010-03-18T16:28:38.40</time>
      </trkpt>
      <trkpt lat="45.24852" lon="5.82693">
        <ele>367</ele>
        <time>2010-03-18T16:28:48.40</time>
      </trkpt>
      <trkpt lat="45.24853" lon="5.82693">
        <ele>367</ele>
        <time>2010-03-18T16:28:58.40</time>
      </trkpt>
      <trkpt lat="45.24853" lon="5.82693">
        <ele>367</ele>
        <time>2010-03-18T16:29:08.40</time>
      </trkpt>
      <trkpt lat="45.24854" lon="5.82693">
        <ele>367</ele>
        <time>2010-03-18T16:29:18.39</time>
      </trkpt>
      <trkpt lat="45.24853" lon="5.82693">
        <ele>367</ele>
        <time>2010-03-18T16:29:28.39</time>
      </trkpt>
      <trkpt lat="45.24856" lon="5.82687">
        <ele>367</ele>
        <time>2010-03-18T16:29:38.39</time>
      </trkpt>
      <trkpt lat="45.24854" lon="5.82688">
        <ele>367</ele>
        <time>2010-03-18T16:29:48.39</time>
      </trkpt>
      <trkpt lat="45.24854" lon="5.82687">
        <ele>367</ele>
        <time>2010-03-18T16:29:58.38</time>
      </trkpt>
      <trkpt lat="45.24853" lon="5.82688">
        <ele>367</ele>
        <time>2010-03-18T16:30:08.37</time>
      </trkpt>
      <trkpt lat="45.24852" lon="5.82688">
        <ele>367</ele>
        <time>2010-03-18T16:30:18.38</time>
      </trkpt>
      <trkpt lat="45.24852" lon="5.82688">
        <ele>367</ele>
        <time>2010-03-18T16:30:28.38</time>
      </trkpt>
      <trkpt lat="45.24852" lon="5.82688">
        <ele>367</ele>
        <time>2010-03-18T16:30:38.37</time>
      </trkpt>
      <trkpt lat="45.24849" lon="5.82688">
        <ele>367</ele>
        <time>2010-03-18T16:30:48.37</time>
      </trkpt>
      <trkpt lat="45.24849" lon="5.82688">
        <ele>367</ele>
        <time>2010-03-18T16:30:58.37</time>
      </trkpt>
      <trkpt lat="45.24848" lon="5.82688">
        <ele>367</ele>
        <time>2010-03-18T16:31:08.37</time>
      </trkpt>
      <trkpt lat="45.24848" lon="5.82687">
        <ele>367</ele>
        <time>2010-03-18T16:31:18.36</time>
      </trkpt>
      <trkpt lat="45.24848" lon="5.82688">
        <ele>367</ele>
        <time>2010-03-18T16:31:28.36</time>
      </trkpt>
      <trkpt lat="45.24849" lon="5.82688">
        <ele>367</ele>
        <time>2010-03-18T16:31:38.36</time>
      </trkpt>
      <trkpt lat="45.24849" lon="5.82688">
        <ele>367</ele>
        <time>2010-03-18T16:31:48.35</time>
      </trkpt>
      <trkpt lat="45.2485" lon="5.82687">
        <ele>367</ele>
        <time>2010-03-18T16:31:58.35</time>
      </trkpt>
      <trkpt lat="45.2485" lon="5.82687">
        <ele>367</ele>
        <time>2010-03-18T16:32:08.34</time>
      </trkpt>
      <trkpt lat="45.24851" lon="5.82687">
        <ele>367</ele>
        <time>2010-03-18T16:32:18.34</time>
      </trkpt>
      <trkpt lat="45.2485" lon="5.82687">
        <ele>367</ele>
        <time>2010-03-18T16:32:28.34</time>
      </trkpt>
      <trkpt lat="45.24851" lon="5.82687">
        <ele>367</ele>
        <time>2010-03-18T16:32:38.33</time>
      </trkpt>
      <trkpt lat="45.24851" lon="5.82687">
        <ele>367</ele>
        <time>2010-03-18T16:32:48.33</time>
      </trkpt>
      <trkpt lat="45.2485" lon="5.82687">
        <ele>367</ele>
        <time>2010-03-18T16:32:58.34</time>
      </trkpt>
      <trkpt lat="45.2485" lon="5.82687">
        <ele>367</ele>
        <time>2010-03-18T16:33:08.33</time>
      </trkpt>
      <trkpt lat="45.2485" lon="5.82687">
        <ele>367</ele>
        <time>2010-03-18T16:33:18.33</time>
      </trkpt>
      <trkpt lat="45.2485" lon="5.82688">
        <ele>367</ele>
        <time>2010-03-18T16:33:28.32</time>
      </trkpt>
      <trkpt lat="45.2485" lon="5.82688">
        <ele>367</ele>
        <time>2010-03-18T16:33:38.33</time>
      </trkpt>
      <trkpt lat="45.2485" lon="5.82687">
        <ele>367</ele>
        <time>2010-03-18T16:33:48.32</time>
      </trkpt>
      <trkpt lat="45.2485" lon="5.82687">
        <ele>367</ele>
        <time>2010-03-18T16:33:58.32</time>
      </trkpt>
      <trkpt lat="45.2485" lon="5.82687">
        <ele>367</ele>
        <time>2010-03-18T16:34:08.32</time>
      </trkpt>
      <trkpt lat="45.24849" lon="5.82687">
        <ele>367</ele>
        <time>2010-03-18T16:34:18.31</time>
      </trkpt>
      <trkpt lat="45.24849" lon="5.82687">
        <ele>367</ele>
        <time>2010-03-18T16:34:28.31</time>
      </trkpt>
      <trkpt lat="45.24849" lon="5.82687">
        <ele>367</ele>
        <time>2010-03-18T16:34:38.31</time>
      </trkpt>
      <trkpt lat="45.24849" lon="5.82687">
        <ele>367</ele>
        <time>2010-03-18T16:34:48.31</time>
      </trkpt>
      <trkpt lat="45.24849" lon="5.82688">
        <ele>367</ele>
        <time>2010-03-18T16:34:58.30</time>
      </trkpt>
      <trkpt lat="45.24849" lon="5.82688">
        <ele>367</ele>
        <time>2010-03-18T16:35:08.30</time>
      </trkpt>
      <trkpt lat="45.24849" lon="5.82689">
        <ele>367</ele>
        <time>2010-03-18T16:35:18.30</time>
      </trkpt>
      <trkpt lat="45.24851" lon="5.8269">
        <ele>367</ele>
        <time>2010-03-18T16:35:29.29</time>
      </trkpt>
      <trkpt lat="45.24853" lon="5.8269">
        <ele>367</ele>
        <time>2010-03-18T16:35:39.29</time>
      </trkpt>
      <trkpt lat="45.24854" lon="5.8269">
        <ele>367</ele>
        <time>2010-03-18T16:35:49.29</time>
      </trkpt>
      <trkpt lat="45.24854" lon="5.82691">
        <ele>367</ele>
        <time>2010-03-18T16:35:59.28</time>
      </trkpt>
      <trkpt lat="45.24849" lon="5.82685">
        <ele>367</ele>
        <time>2010-03-18T16:36:09.29</time>
      </trkpt>
      <trkpt lat="45.24844" lon="5.82662">
        <ele>368</ele>
        <time>2010-03-18T16:36:19.28</time>
      </trkpt>
      <trkpt lat="45.24829" lon="5.82638">
        <ele>365</ele>
        <time>2010-03-18T16:36:29.28</time>
      </trkpt>
      <trkpt lat="45.24826" lon="5.82607">
        <ele>365</ele>
        <time>2010-03-18T16:36:39.28</time>
      </trkpt>
      <trkpt lat="45.24828" lon="5.82582">
        <ele>367</ele>
        <time>2010-03-18T16:36:49.27</time>
      </trkpt>
      <trkpt lat="45.2481" lon="5.8255">
        <ele>366</ele>
        <time>2010-03-18T16:36:59.27</time>
      </trkpt>
      <trkpt lat="45.24792" lon="5.8251">
        <ele>365</ele>
        <time>2010-03-18T16:37:09.27</time>
      </trkpt>
      <trkpt lat="45.24773" lon="5.82476">
        <ele>366</ele>
        <time>2010-03-18T16:37:19.26</time>
      </trkpt>
      <trkpt lat="45.24752" lon="5.82449">
        <ele>365</ele>
        <time>2010-03-18T16:37:29.26</time>
      </trkpt>
      <trkpt lat="45.24744" lon="5.82443">
        <ele>361</ele>
        <time>2010-03-18T16:37:39.26</time>
      </trkpt>
      <trkpt lat="45.24741" lon="5.82441">
        <ele>361</ele>
        <time>2010-03-18T16:37:49.26</time>
      </trkpt>
      <trkpt lat="45.24741" lon="5.8244">
        <ele>361</ele>
        <time>2010-03-18T16:37:59.26</time>
      </trkpt>
      <trkpt lat="45.24738" lon="5.82438">
        <ele>361</ele>
        <time>2010-03-18T16:38:09.25</time>
      </trkpt>
      <trkpt lat="45.24737" lon="5.82435">
        <ele>361</ele>
        <time>2010-03-18T16:38:19.25</time>
      </trkpt>
      <trkpt lat="45.24734" lon="5.82432">
        <ele>361</ele>
        <time>2010-03-18T16:38:29.25</time>
      </trkpt>
      <trkpt lat="45.24733" lon="5.82432">
        <ele>361</ele>
        <time>2010-03-18T16:38:39.24</time>
      </trkpt>
      <trkpt lat="45.24732" lon="5.82431">
        <ele>361</ele>
        <time>2010-03-18T16:38:49.24</time>
      </trkpt>
      <trkpt lat="45.2473" lon="5.8243">
        <ele>361</ele>
        <time>2010-03-18T16:39:00.24</time>
      </trkpt>
    </trkseg>
  </trk>
</gpx>